[[{"header":{"parameterUnit":"m.s-1","parameterCategory":1,"la1":30.6,"la2":28.766,"lo1":-90.7593,"lo2":-88.6598,"dy":0.0162,"dx":0.0183,"nx":116,"ny":114,"refTime":"2024-05-15T06:00:00:Z","depth":0,"parameterNumber":2,"parameterNumberName":"U-component_of_WINDS"},"data":[0.0,0.0,0.0,0.0,0.0,0.0,0.0,0.0,0.0,0.0,0.0,0.0,0.0,0.0,0.0,0.0,0.0,0.0,0.0,0.0,0.0,0.0,0.0,0.0,0.0,0.0,0.0,0.0,0.0,0.0,0.0,0.0,0.0,0.0,0.0,0.0,0.0,0.0,0.0,0.0,0.0,0.0,0.0,0.0,0.0,0.0,0.0,0.0,0.0,0.0,0.0,0.0,0.0,0.0,0.0,0.0,0.0,0.0,0.0,0.0,0.0,0.0,0.0,0.0,0.0,0.0,0.0,0.0,0.0,0.0,0.0,0.0,0.0,0.0,0.0,0.0,0.0,0.0,0.0,0.0,0.0,0.0,0.0,0.0,0.0,0.0,0.0,0.0,0.0,0.0,0.0,0.0,0.0,0.0,0.0,0.0,0.0,0.0,0.0,0.0,0.0,0.0,0.0,0.0,0.0,0.0,0.0,0.0,0.0,0.0,0.0,0.0,0.0,0.0,0.0,0.0,0.0,0.0,0.0,0.0,0.0,0.0,0.0,0.0,0.0,0.0,0.0,0.0,0.0,0.0,0.0,0.0,0.0,0.0,0.0,0.0,0.0,0.0,0.0,0.0,0.0,0.0,0.0,0.0,0.0,0.0,0.0,0.0,0.0,0.0,0.0,0.0,0.0,0.0,0.0,0.0,0.0,0.0,0.0,0.0,0.0,0.0,0.0,0.0,0.0,0.0,0.0,0.0,0.0,0.0,0.0,0.0,0.0,0.0,0.0,0.0,0.0,0.0,0.0,0.0,0.0,0.0,0.0,0.0,0.0,0.0,0.0,0.0,0.0,0.0,0.0,0.0,0.0,0.0,0.0,0.0,0.0,0.0,0.0,0.0,0.0,0.0,0.0,0.0,0.0,0.0,0.0,0.0,0.0,0.0,0.0,0.0,0.0,0.0,0.0,0.0,0.0,0.0,0.0,0.0,0.0,0.0,0.0,0.0,0.0,0.0,0.0,0.0,0.0,0.0,0.0,0.0,0.0,0.0,0.0,0.0,0.0,0.0,0.0,0.0,0.0,0.0,0.0,0.0,0.0,0.0,0.0,0.0,0.0,0.0,0.0,0.0,0.0,0.0,0.0,0.0,0.0,0.0,0.0,0.0,0.0,0.0,0.0,0.0,0.0,0.0,0.0,0.0,0.0,0.0,0.0,0.0,0.0,0.0,0.0,0.0,0.0,0.0,0.0,0.0,0.0,0.0,0.0,0.0,0.0,0.0,0.0,0.0,0.0,0.0,0.0,0.0,0.0,0.0,0.0,0.0,0.0,0.0,0.0,0.0,0.0,0.0,0.0,0.0,0.0,0.0,0.0,0.0,0.0,0.0,0.0,0.0,0.0,0.0,0.0,0.0,0.0,0.0,0.0,0.0,0.0,0.0,0.0,0.0,0.0,0.0,0.0,0.0,0.0,0.0,0.0,0.0,0.0,0.0,0.0,0.0,0.0,0.0,0.0,0.0,0.0,0.0,0.0,0.0,0.0,0.0,0.0,0.0,0.0,0.0,0.0,0.0,0.0,0.0,0.0,0.0,0.0,0.0,0.0,0.0,0.0,0.0,0.0,0.0,0.0,0.0,0.0,0.0,0.0,0.0,0.0,0.0,0.0,0.0,0.0,0.0,0.0,0.0,0.0,0.0,0.0,0.0,0.0,0.0,0.0,0.0,0.0,0.0,0.0,0.0,0.0,0.0,0.0,0.0,0.0,0.0,0.0,0.0,0.0,0.0,0.0,0.0,0.0,0.0,0.0,0.0,0.0,0.0,0.0,0.0,0.0,0.0,0.0,0.0,0.0,0.0,0.0,0.0,0.0,0.0,0.0,0.0,0.0,0.0,0.0,0.0,0.0,0.0,0.0,0.0,0.0,0.0,0.0,0.0,0.0,0.0,0.0,0.0,0.0,0.0,0.0,0.0,0.0,0.0,0.0,0.0,0.0,0.0,0.0,0.0,0.0,0.0,0.0,0.0,0.0,0.0,0.0,0.0,0.0,0.0,0.0,0.0,0.0,0.0,0.0,0.0,0.0,0.0,0.0,0.0,0.0,0.0,0.0,0.0,0.0,0.0,0.0,0.0,0.0,0.0,0.0,0.0,0.0,0.0,0.0,0.0,0.0,0.0,0.0,0.0,0.0,0.0,0.0,0.0,0.0,0.0,0.0,0.0,0.0,0.0,0.0,0.0,0.0,0.0,0.0,0.0,0.0,0.0,0.0,0.0,0.0,0.0,0.0,0.0,0.0,0.0,0.0,0.0,0.0,0.0,0.0,0.0,0.0,0.0,0.0,0.0,0.0,0.0,0.0,0.0,0.0,0.0,0.0,0.0,0.0,0.0,0.0,0.0,0.0,0.0,0.0,0.0,0.0,0.0,0.0,0.0,0.0,0.0,0.0,0.0,0.0,0.0,0.0,0.0,0.0,0.0,0.0,0.0,0.0,0.0,0.0,0.0,0.0,0.0,0.0,0.0,0.0,0.0,0.0,0.0,0.0,0.0,0.0,0.0,0.0,0.0,0.0,0.0,0.0,0.0,0.0,0.0,0.0,0.0,0.0,0.0,0.0,0.0,0.0,0.0,0.0,0.0,0.0,0.0,0.0,0.0,0.0,0.0,0.0,0.0,0.0,0.0,0.0,0.0,0.0,0.0,0.0,0.0,0.0,0.0,0.0,0.0,0.0,0.0,0.0,0.0,0.0,0.0,0.0,0.0,0.0,0.0,0.0,0.0,0.0,0.0,0.0,0.0,0.0,0.0,0.0,0.0,0.0,0.0,0.0,0.0,0.0,0.0,0.0,0.0,0.0,0.0,0.0,0.0,0.0,0.0,0.0,0.0,0.0,0.0,0.0,0.0,0.0,0.0,0.0,0.0,0.0,0.0,0.0,0.0,0.0,0.0,0.0,0.0,0.0,0.0,0.0,0.0,0.0,0.0,0.0,0.0,0.0,0.0,0.0,0.0,0.0,0.0,0.0,0.0,0.0,0.0,0.0,0.0,0.0,0.0,0.0,0.0,0.0,0.0,0.0,0.0,0.0,0.0,0.0,0.0,0.0,0.0,0.0,0.0,0.0,0.0,0.0,0.0,0.0,0.0,0.0,0.0,0.0,0.0,0.0,0.0,0.0,0.0,0.0,0.0,0.0,0.0,0.0,0.0,0.0,0.0,0.0,0.0,0.0,0.0,0.0,0.0,0.0,0.0,0.0,0.0,0.0,0.0,0.0,0.0,0.0,0.0,0.0,0.0,0.0,0.0,0.0,0.0,0.0,0.0,0.0,0.0,0.0,0.0,0.0,0.0,0.0,0.0,0.0,0.0,0.0,0.0,0.0,0.0,0.0,0.0,0.0,0.0,0.0,0.0,0.0,0.0,0.0,0.0,0.0,0.0,0.0,0.0,0.0,0.0,0.0,0.0,0.0,0.0,0.0,0.0,0.0,0.0,0.0,0.0,0.0,0.0,0.0,0.0,0.0,0.0,0.0,0.0,0.0,0.0,0.0,0.0,0.0,0.0,0.0,0.0,0.0,0.0,0.0,0.0,0.0,0.0,0.0,0.0,0.0,0.0,0.0,0.0,0.0,0.0,0.0,0.0,0.0,0.0,0.0,0.0,0.0,0.0,0.0,0.0,0.0,0.0,0.0,0.0,0.0,0.0,0.0,0.0,0.0,0.0,0.0,0.0,0.0,0.0,0.0,0.0,0.0,0.0,0.0,0.0,0.0,0.0,0.0,0.0,0.0,0.0,0.0,0.0,0.0,0.0,0.0,0.0,0.0,0.0,0.0,0.0,0.0,0.0,0.0,0.0,0.0,0.0,0.0,0.0,0.0,0.0,0.0,0.0,0.0,0.0,0.0,0.0,0.0,0.0,0.0,0.0,0.0,0.0,0.0,0.0,0.0,0.0,0.0,0.0,0.0,0.0,0.0,0.0,0.0,0.0,0.0,0.0,0.0,0.0,0.0,0.0,0.0,0.0,0.0,0.0,0.0,0.0,0.0,0.0,0.0,0.0,0.0,0.0,0.0,0.0,0.0,0.0,0.0,0.0,0.0,0.0,0.0,0.0,0.0,0.0,0.0,0.0,0.0,0.0,0.0,0.0,0.0,0.0,0.0,0.0,0.0,0.0,0.0,0.0,0.0,0.0,0.0,0.0,0.0,0.0,0.0,0.0,0.0,0.0,0.0,0.0,0.0,0.0,0.0,0.0,0.0,0.0,0.0,0.0,0.0,0.0,0.0,0.0,0.0,0.0,0.0,0.0,0.0,0.0,0.0,0.0,0.0,0.0,0.0,0.0,0.0,0.0,0.0,0.0,0.0,0.0,0.0,0.0,0.0,0.0,0.0,0.0,0.0,0.0,0.0,0.0,0.0,0.0,0.0,0.0,0.0,0.0,0.0,0.0,0.0,0.0,0.0,0.0,0.0,0.0,0.0,0.0,0.0,0.0,0.0,0.0,0.0,0.0,0.0,0.0,0.0,0.0,0.0,0.0,0.0,0.0,0.0,0.0,0.0,0.0,0.0,0.0,0.0,0.0,0.0,0.0,0.0,0.0,0.0,0.0,0.0,0.0,0.0,0.0,0.0,0.0,0.0,0.0,0.0,0.0,0.0,0.0,0.0,0.0,0.0,0.0,0.0,0.0,0.0,0.0,0.0,0.0,0.0,0.0,0.0,0.0,0.0,0.0,0.0,0.0,0.0,0.0,0.0,0.0,0.0,0.0,0.0,0.0,0.0,0.0,0.0,0.0,0.0,0.0,0.0,0.0,0.0,0.0,0.0,0.0,0.0,0.0,0.0,0.0,0.0,0.0,0.0,0.0,0.0,0.0,0.0,0.0,0.0,0.0,0.0,0.0,0.0,0.0,0.0,0.0,0.0,0.0,0.0,0.0,0.0,0.0,0.0,0.0,0.0,0.0,0.0,0.0,0.0,0.0,0.0,0.0,0.0,0.0,0.0,0.0,0.0,0.0,0.0,0.0,0.0,0.0,0.0,0.0,0.0,0.0,0.0,0.0,0.0,0.0,0.0,0.0,0.0,0.0,0.0,0.0,0.0,0.0,0.0,0.0,0.0,0.0,0.0,0.0,0.0,0.0,0.0,0.0,0.0,0.0,0.0,0.0,0.0,0.0,0.0,0.0,0.0,0.0,0.0,0.0,0.0,0.0,0.0,0.0,0.0,0.0,0.0,0.0,0.0,0.0,0.0,0.0,0.0,0.0,0.0,0.0,0.0,0.0,0.0,0.0,0.0,0.0,0.0,0.0,0.0,0.0,0.0,0.0,0.0,0.0,0.0,0.0,0.0,0.0,0.0,0.0,0.0,0.0,0.0,0.0,0.0,0.0,0.0,0.0,0.0,0.0,0.0,0.0,0.0,0.0,0.0,0.0,0.0,0.0,0.0,0.0,0.0,0.0,0.0,0.0,0.0,0.0,0.0,0.0,0.0,0.0,0.0,0.0,0.0,0.0,0.0,0.0,0.0,0.0,0.0,0.0,0.0,0.0,0.0,0.0,0.0,0.0,0.0,0.0,0.0,0.0,0.0,0.0,0.0,0.0,0.0,0.0,0.0,0.0,0.0,0.0,0.0,0.0,0.0,0.0,0.0,0.0,0.0,0.0,0.0,0.0,0.0,0.0,0.0,0.0,0.0,0.0,0.0,0.0,0.0,0.0,0.0,0.0,0.0,0.0,0.0,0.0,0.0,0.0,0.0,0.0,0.0,0.0,0.0,0.0,0.0,0.0,0.0,0.0,0.0,0.0,0.0,0.0,0.0,0.0,0.0,0.0,0.0,0.0,0.0,0.0,0.0,0.0,0.0,0.0,0.0,0.0,0.0,0.0,0.0,0.0,0.0,0.0,0.0,0.0,0.0,0.0,0.0,0.0,0.0,0.0,0.0,0.0,0.0,0.0,0.0,0.0,0.0,0.0,0.0,0.0,0.0,0.0,0.0,0.0,0.0,0.0,0.0,0.0,0.0,0.0,0.0,0.0,0.0,0.0,0.0,0.0,0.0,0.0,0.0,0.0,0.0,0.0,0.0,0.0,0.0,0.0,0.0,0.0,0.0,0.0,0.0,0.0,0.0,0.0,-5.1206,-5.0288,0.0,0.0,0.0,0.0,0.0,0.0,0.0,0.0,0.0,0.0,0.0,0.0,0.0,0.0,0.0,0.0,0.0,0.0,0.0,0.0,0.0,0.0,0.0,-5.3203,-5.3371,-5.3739,-5.3775,-5.3775,-5.3775,0.0,0.0,0.0,0.0,0.0,-5.5537,-5.5978,-5.6565,-5.7373,-5.7776,-5.8364,-5.9134,-5.9134,-5.8951,-5.8474,0.0,0.0,0.0,0.0,0.0,0.0,0.0,0.0,0.0,0.0,0.0,0.0,0.0,0.0,0.0,0.0,0.0,0.0,0.0,0.0,0.0,0.0,0.0,0.0,0.0,0.0,0.0,0.0,0.0,0.0,0.0,0.0,0.0,0.0,0.0,0.0,0.0,0.0,0.0,0.0,0.0,0.0,0.0,0.0,0.0,0.0,0.0,0.0,0.0,0.0,0.0,0.0,0.0,0.0,0.0,0.0,0.0,0.0,0.0,0.0,0.0,0.0,0.0,0.0,0.0,0.0,0.0,0.0,0.0,0.0,-5.5941,-5.3482,0.0,0.0,0.0,0.0,0.0,0.0,0.0,0.0,0.0,0.0,0.0,0.0,0.0,0.0,0.0,0.0,0.0,0.0,0.0,0.0,0.0,-5.3203,-5.3203,-5.3335,-5.3702,-5.4326,-5.4509,-5.462,-5.462,-5.5207,0.0,0.0,0.0,-5.6124,-5.6785,-5.6932,-5.7409,-5.8217,-5.9465,-6.0603,-6.1667,-6.1814,-6.1961,-6.1998,-5.9501,0.0,0.0,0.0,0.0,0.0,0.0,0.0,0.0,0.0,0.0,0.0,0.0,0.0,0.0,0.0,0.0,0.0,0.0,0.0,0.0,0.0,0.0,0.0,0.0,0.0,0.0,0.0,0.0,0.0,0.0,0.0,0.0,0.0,0.0,0.0,0.0,0.0,0.0,0.0,0.0,0.0,0.0,0.0,0.0,0.0,0.0,0.0,0.0,0.0,0.0,0.0,0.0,0.0,0.0,0.0,0.0,0.0,0.0,0.0,0.0,0.0,0.0,0.0,-6.2144,-6.4127,-6.6733,-6.6072,-6.7063,-6.9045,-6.2989,-5.9134,-5.6969,-5.5609,0.0,0.0,0.0,0.0,0.0,0.0,0.0,0.0,0.0,0.0,0.0,0.0,0.0,0.0,0.0,0.0,0.0,0.0,0.0,-5.3203,-5.3203,-5.3812,-5.4289,-5.4399,-5.5023,-5.5427,-5.5427,-5.5559,0.0,0.0,-5.6198,-5.6712,-5.6822,-5.7483,-5.8253,-5.9038,-6.1998,-6.4567,-6.6733,-6.7467,-6.8164,-6.8568,-6.2695,-6.1263,-6.3099,0.0,0.0,0.0,0.0,0.0,0.0,0.0,0.0,0.0,0.0,0.0,0.0,0.0,0.0,0.0,0.0,0.0,0.0,0.0,0.0,0.0,0.0,0.0,0.0,0.0,0.0,0.0,0.0,0.0,0.0,0.0,0.0,0.0,0.0,0.0,0.0,0.0,0.0,0.0,0.0,0.0,-5.0986,-5.0398,0.0,0.0,0.0,0.0,0.0,0.0,0.0,0.0,0.0,0.0,0.0,0.0,0.0,-6.2144,-6.3686,-6.7393,-6.8715,-6.765,-7.055,-7.2165,-7.2569,-7.2459,-7.3744,-7.5953,-7.4999,0.0,-6.2707,-5.9183,0.0,0.0,0.0,0.0,0.0,0.0,0.0,0.0,0.0,0.0,0.0,0.0,0.0,0.0,0.0,0.0,0.0,0.0,0.0,0.0,0.0,-5.4583,-5.5244,-5.5721,-5.7703,-5.818,-5.6381,-5.796,-5.8143,-5.6345,-5.7042,-5.7483,-5.7483,-5.8253,-6.0199,-6.3319,-6.6549,-6.9155,-7.1064,-7.1908,-7.2459,-7.2642,-6.9339,-6.6733,-6.464,-6.2768,0.0,0.0,0.0,0.0,0.0,0.0,0.0,0.0,0.0,0.0,0.0,0.0,0.0,0.0,0.0,0.0,0.0,0.0,0.0,0.0,0.0,0.0,0.0,0.0,0.0,0.0,0.0,0.0,0.0,0.0,0.0,0.0,0.0,0.0,0.0,0.0,0.0,0.0,0.0,-5.1977,-5.3371,-5.1683,-5.3702,-5.4069,0.0,0.0,0.0,0.0,0.0,0.0,0.0,0.0,0.0,-6.3906,-6.5888,-6.7907,-7.0,-7.2239,-7.4147,-7.5726,-7.7121,-7.8516,-7.98,-7.936,-7.9984,-8.1379,-8.0938,-7.7781,-7.2459,-6.661,-6.123,-5.6407,0.0,0.0,0.0,0.0,-5.1911,-5.2097,0.0,0.0,0.0,0.0,0.0,0.0,0.0,0.0,0.0,0.0,0.0,0.0,-5.4574,-5.6159,-5.7451,-5.8227,-6.0518,-6.0896,-5.851,-5.9795,-5.9612,-5.7226,-5.7666,-5.7997,-5.7997,-5.9612,-6.2952,-6.8054,-7.1284,-7.3891,-7.5873,-7.6717,-7.7084,-7.7047,-7.624,-7.2973,-6.7944,-6.5668,-6.3539,-6.1459,0.0,0.0,0.0,0.0,0.0,0.0,0.0,0.0,0.0,0.0,0.0,0.0,0.0,0.0,0.0,0.0,0.0,0.0,0.0,0.0,0.0,0.0,0.0,0.0,0.0,0.0,0.0,0.0,0.0,0.0,0.0,0.0,0.0,0.0,0.0,0.0,0.0,-5.4583,-5.6014,-5.2968,-5.6748,-5.7593,0.0,0.0,0.0,0.0,0.0,0.0,-6.3062,-6.6109,-6.8605,-7.0403,-7.2459,-7.4441,-7.646,-7.7708,-7.9727,-8.2553,-8.2737,-8.3765,-8.549,-8.4903,-8.4939,-8.549,-8.4682,-8.2957,-8.0167,-7.3083,-6.6725,-6.119,-5.8556,-5.638,-5.4852,-5.5876,-5.6081,-5.6129,0.0,0.0,0.0,0.0,0.0,0.0,0.0,0.0,0.0,0.0,0.0,-5.461,-5.5346,-5.8944,-6.1613,-6.2318,-6.2615,-6.267,-6.2511,-5.9795,-5.8107,-5.796,-5.796,-5.7997,-5.7997,-6.1851,-6.6586,-7.2202,-7.5402,-7.8662,-8.1782,-8.259,-8.2994,-8.2957,-8.2113,-7.947,-7.5139,-6.8972,-6.7173,-6.7871,-6.1643,0.0,0.0,0.0,0.0,0.0,0.0,0.0,0.0,0.0,0.0,0.0,0.0,0.0,0.0,0.0,0.0,0.0,0.0,0.0,0.0,0.0,0.0,0.0,0.0,0.0,0.0,0.0,0.0,0.0,0.0,0.0,0.0,0.0,0.0,0.0,0.0,0.0,0.0,-5.484,-6.1887,0.0,0.0,0.0,0.0,-6.2303,-6.5301,-6.8201,-7.0596,-7.3083,-7.5542,-7.7965,-8.1122,-8.3177,-8.4058,-8.6371,-8.7252,-8.6738,-8.7472,-8.7912,-8.8023,-8.7986,-8.7986,-8.7986,-8.7178,-8.5453,-8.2708,-7.6304,-7.1184,-6.7142,-6.404,-6.129,-5.9271,-6.077,-6.0699,-5.9915,0.0,0.0,0.0,0.0,0.0,-5.0729,-5.183,-5.2454,-5.3078,-5.3885,-5.4241,-5.5668,-5.9053,-6.1184,-6.3303,-6.5706,-6.6892,-6.6623,-6.4567,-6.2842,-6.119,-5.9612,-5.8547,-5.9465,-6.2622,-6.6145,-7.0991,-7.7194,-8.0938,-8.3911,-8.6077,-8.6885,-8.7254,-8.7252,-8.6407,-8.4682,-8.1929,-7.5432,-7.033,-6.6366,-6.3503,-6.108,0.0,0.0,0.0,0.0,0.0,0.0,0.0,0.0,0.0,0.0,0.0,0.0,0.0,0.0,0.0,0.0,0.0,0.0,0.0,0.0,0.0,0.0,0.0,0.0,0.0,0.0,0.0,0.0,0.0,0.0,0.0,0.0,0.0,0.0,0.0,0.0,0.0,-6.4604,-7.0036,0.0,-6.5521,-6.6953,-6.8274,-6.8274,-7.1762,-7.4735,-7.668,-7.9543,-8.2039,-8.3948,-8.5637,-8.7142,-8.8463,-8.828,-8.8573,-8.9307,-8.8573,-8.8206,-8.8169,-8.7655,-8.7435,-8.7362,-8.604,-8.4976,-8.3915,-8.0601,-7.6518,-7.2083,-6.8761,-6.6249,-6.4523,-6.4843,-6.4738,-6.4613,0.0,0.0,0.0,0.0,-5.0094,-5.1059,-5.1867,-5.2674,-5.3396,-5.393,-5.5194,-5.7445,-6.1197,-6.402,-6.6749,-6.9485,-6.9933,-6.8972,-6.6292,-6.4053,-6.1887,-5.9685,-5.9612,-6.1777,-6.6402,-7.0183,-7.5175,-8.1415,-8.4903,-8.7435,-8.9014,-8.9564,-8.9821,-8.9784,-8.8977,-8.7729,-8.5894,-8.1305,-7.5322,-6.8715,-6.5999,-6.3943,-6.1973,0.0,0.0,0.0,0.0,0.0,0.0,0.0,0.0,0.0,0.0,0.0,0.0,0.0,0.0,0.0,0.0,0.0,0.0,0.0,0.0,0.0,0.0,0.0,0.0,0.0,0.0,0.0,0.0,0.0,0.0,0.0,0.0,0.0,0.0,-6.6072,-7.0734,-7.1248,-7.679,-7.8369,-7.2679,-7.4111,-7.5395,-7.5395,-7.8883,-8.1709,-8.3361,-8.571,-8.7399,-8.8206,-8.9014,-8.9784,-9.0592,-8.9821,-8.9821,-9.0592,-8.9234,-8.8463,-8.8169,-8.7362,-8.6848,-8.6518,-8.5196,-8.4462,-8.4058,-8.2443,-7.9873,-7.665,-7.3879,-7.1517,-6.9634,-6.9411,-6.891,-6.8402,0.0,0.0,0.0,-4.854,-4.9794,-5.1022,-5.183,-5.2637,-5.3171,-5.3219,-5.6696,-5.9838,-6.1564,-6.7425,-7.1918,-7.3563,-7.15,-6.9449,-6.7871,-6.3172,-5.9758,-5.8217,-6.119,-6.4835,-6.9045,-7.3817,-7.9029,-8.4719,-8.7105,-8.9087,-9.0629,-9.0629,-9.0629,-9.0592,-8.9821,-8.861,-8.7068,-8.6261,-8.2223,-7.5836,-6.9376,-6.7614,-6.8201,0.0,0.0,0.0,0.0,0.0,0.0,0.0,0.0,0.0,0.0,0.0,0.0,0.0,0.0,0.0,0.0,0.0,0.0,0.0,0.0,0.0,0.0,0.0,0.0,0.0,0.0,0.0,0.0,0.0,0.0,0.0,0.0,0.0,-6.1961,-7.022,-7.5726,-7.4331,-8.1856,-8.4389,-7.7268,-8.0901,-8.3691,-8.3654,-8.6591,-8.905,-9.0592,-9.1436,-9.1473,-9.0665,-9.14,-9.1436,-9.0665,-9.14,-9.1363,-9.0555,-8.9748,-8.894,-8.8133,-8.7325,-8.6554,-8.5747,-8.4903,-8.4132,-8.3287,-8.1709,-8.1012,-8.0791,-7.9181,-7.6821,-7.4308,-7.4272,-7.2968,-7.1041,0.0,0.0,-4.7648,-4.7716,-4.8956,-5.0198,-5.1022,-5.1793,-5.2791,-5.4002,-5.6606,-6.0078,-6.4668,-6.8283,-7.2018,-7.5938,-7.3039,-7.055,-6.9486,-6.431,-6.1337,-6.1484,-6.3503,-6.7614,-7.3964,-7.7745,-8.215,-8.7215,-8.905,-9.0482,-9.1473,-9.1473,-9.1473,-9.1473,-9.1253,-9.0592,-8.9564,-8.8757,-8.6371,-8.2517,-7.5432,-7.1101,-6.8531,0.0,0.0,0.0,0.0,0.0,0.0,0.0,0.0,0.0,0.0,0.0,0.0,0.0,0.0,0.0,0.0,0.0,0.0,0.0,0.0,0.0,0.0,0.0,0.0,0.0,0.0,0.0,0.0,0.0,0.0,0.0,-6.5595,-6.9706,-7.0293,-7.5726,-8.1012,-8.4646,-8.828,-8.9711,-8.7729,-8.9307,-9.0188,-8.9528,-9.1436,-9.2574,-9.2427,-9.2611,-9.2354,-9.151,-9.1693,-9.1693,-9.1473,-9.1106,-9.0555,-8.9748,-8.8904,-8.8133,-8.7325,-8.6481,-8.6004,-8.571,-8.4352,-8.3618,-8.3324,-8.2296,-8.1158,-7.992,-7.8131,-7.6517,-7.4942,-7.3112,-7.1235,-6.9485,0.0,-4.7089,-4.7695,-4.7428,-4.8628,-4.9867,-5.0692,-5.1463,-5.2608,-5.4291,-5.7431,-6.1306,-6.6003,-6.9539,-7.2741,-7.5549,-7.2753,-6.9889,-6.7724,-6.4127,-6.2622,-6.3796,-6.7357,-7.1945,-7.7524,-8.1489,-8.538,-8.9197,-9.0482,-9.1546,-9.2354,-9.2354,-9.2354,-9.2354,-9.2354,-9.1877,-9.1069,-9.0262,-8.9087,-8.7325,-8.1709,-7.7268,-7.356,-6.9779,-6.7834,-6.688,-6.4751,-6.4457,-6.4567,-6.1153,0.0,0.0,0.0,0.0,0.0,0.0,0.0,0.0,0.0,0.0,0.0,0.0,0.0,0.0,0.0,0.0,0.0,0.0,0.0,0.0,0.0,0.0,0.0,0.0,-7.1174,-7.6056,-7.8883,-8.2296,-8.6114,-9.0445,-9.2684,-9.3749,-9.3418,-9.3822,-9.3896,-9.3382,-9.3932,-9.4079,-9.3639,-9.3272,-9.2721,-9.184,-9.1803,-9.1803,-9.1803,-9.1326,-9.0886,-9.0408,-8.9271,-8.8463,-8.7986,-8.6481,-8.56,-8.5233,-8.3948,-8.3214,-8.2847,-8.2039,-8.0938,-7.9695,0.0,0.0,0.0,0.0,-7.0366,-6.8436,0.0,-4.7272,-4.8035,-4.7491,-4.8628,-4.9867,-5.0692,-5.1463,-5.2608,-5.4291,-5.8422,-6.2431,-6.5598,-7.0033,-7.2936,-7.3377,-7.1064,-6.8017,-6.4457,-6.3429,-6.398,-6.6292,-7.2129,-7.6937,-8.0388,-8.4939,-8.839,-9.0592,-9.151,-9.2354,-9.3088,-9.3198,-9.3235,-9.3235,-9.3125,-9.2684,-9.1877,-9.1069,-9.0702,-9.0335,-8.7399,-8.4205,-8.0681,-7.5249,-7.3891,-7.4404,-7.066,-6.8568,-6.7173,-6.453,0.0,0.0,0.0,0.0,0.0,0.0,0.0,0.0,0.0,0.0,0.0,0.0,0.0,0.0,0.0,0.0,0.0,0.0,0.0,0.0,0.0,0.0,0.0,0.0,-7.6717,-8.1379,-8.6664,-8.8904,-9.0776,-9.2978,-9.5217,-9.6318,-9.5694,-9.5658,-9.5658,-9.5658,-9.496,-9.4483,-9.4299,-9.3602,0.0,0.0,0.0,-9.1803,-9.1803,-9.1803,-9.1693,-9.151,-9.0078,-8.9272,-8.9087,-8.6921,-8.5453,-8.4572,-8.3875,-8.2994,-8.2003,-8.1305,-8.0461,-7.9653,-7.9411,-7.7728,-7.5081,-7.2516,-6.9928,-6.7557,0.0,-4.6928,-4.7533,-4.7428,-4.8628,-4.9867,-5.0692,-5.1463,-5.2608,-5.4291,-5.6939,-5.97,-6.2349,-6.5223,-6.8238,-7.1505,-6.8385,-6.5925,-6.5118,-6.431,-6.6586,-7.2789,-7.6166,-7.9984,-8.4535,-8.7472,-8.9491,-9.0592,-9.2097,-9.2941,-9.3125,-9.3749,-9.4079,-9.4042,-9.3382,-9.3015,-9.2794,-9.1913,-9.1179,-9.0482,-8.9234,-8.6407,-8.2553,-7.8846,-7.6387,-7.4625,-7.2569,-7.2863,-7.367,-6.9926,-6.9779,-7.0403,-6.6182,0.0,0.0,0.0,0.0,0.0,0.0,0.0,0.0,0.0,0.0,0.0,0.0,0.0,0.0,0.0,0.0,0.0,0.0,0.0,0.0,-7.5586,-8.1452,-8.6444,-8.9491,-9.1877,-9.3529,-9.4006,-9.507,-9.5951,-9.6428,-9.6465,-9.6465,-9.6465,-9.6318,-9.5658,-9.4373,-9.4153,-9.3382,-9.184,-9.1803,-9.1803,-9.1803,-9.1803,-9.1143,-8.9858,-8.9529,0.0,-8.7472,-8.6995,-8.5967,-8.4609,-8.4462,-8.3177,-8.1232,-8.1048,-8.0131,-7.8673,-7.7192,-7.5041,-7.2653,-7.1303,-6.8795,-6.6,-4.6713,-4.7292,-4.7838,-4.7838,-4.8809,-4.9867,-5.0692,-5.1463,-5.2605,-5.4232,-5.653,-5.876,-6.0839,-6.3251,-6.5154,-6.6329,-6.387,-6.2768,-6.398,-6.6366,-7.022,-7.5842,-8.0021,-8.3691,-8.6921,-8.8977,-9.0629,-9.184,-9.2684,-9.3529,-9.4299,-9.4703,-9.4887,-9.4887,-9.4483,-9.4079,-9.3639,-9.2794,-9.2207,-9.173,-9.0519,-8.8573,-8.6114,-8.3287,-8.0938,-7.9066,-7.8259,-7.7708,-7.6974,-7.4551,-7.3707,-7.3046,-6.9449,-6.688,-6.4787,0.0,0.0,0.0,0.0,0.0,0.0,0.0,0.0,0.0,0.0,0.0,0.0,0.0,0.0,-6.3723,0.0,0.0,-7.6533,-8.1379,-8.5563,-8.8904,-9.0922,-9.2648,-9.3859,-9.4226,-9.5364,-9.6282,-9.6649,-9.6685,-9.6685,-9.6685,-9.6318,-9.5584,-9.4373,-9.3932,-9.3125,-9.184,-9.1803,-9.1803,-9.1803,-9.1803,-9.1179,-9.0005,-8.9601,-8.8793,-8.7582,-8.6371,-8.538,-8.4535,-8.3324,-8.2113,-8.0938,-8.0131,-7.9323,-7.8411,-7.6615,-7.4691,-7.2688,-7.1765,-6.934,-6.6277,-4.7223,-4.7736,-4.8306,-4.8306,-4.915,-5.0031,-5.0692,-5.161,-5.2747,-5.4216,-5.6088,-5.785,-5.9318,-6.1263,-6.1961,-6.075,-6.0199,-6.0982,-6.3576,-6.8641,-7.356,-7.8044,-8.3104,-8.6628,-8.839,-9.0005,-9.1583,-9.3088,-9.3418,-9.4226,-9.5511,-9.5658,-9.5731,-9.5731,-9.5437,-9.4923,-9.4226,-9.3272,-9.2868,-9.2721,-9.1033,-9.0005,-8.9125,-8.6701,-8.4903,-8.3581,-8.3104,-8.0865,-7.8075,-7.7855,-7.6093,-7.3634,-7.2018,-7.0293,-6.8164,-6.4567,-6.3209,0.0,0.0,0.0,0.0,0.0,0.0,0.0,0.0,0.0,-6.1447,-6.2732,-6.5999,-6.9889,-7.4111,-7.7671,-8.1599,-8.6444,-8.872,-9.0335,-9.162,-9.2537,-9.3345,-9.3969,-9.5474,-9.6465,-9.6465,-9.6612,-9.6649,-9.6502,-9.5878,-9.507,-9.4116,-9.3455,-9.2721,-9.184,-9.1803,-9.1803,-9.1803,-9.1803,-9.1326,-9.0372,-8.9711,-8.8904,-8.7912,-8.5783,-8.4756,-8.4462,-8.1893,-8.0755,-8.0645,-7.9029,-7.8259,-7.7965,-7.6644,-7.4962,-7.3197,-7.2384,-7.0033,-6.6951,0.0,-4.7736,-4.8306,-4.8306,-4.9627,-5.0692,-5.0802,-5.2087,-5.3408,-5.4289,-5.462,-5.5133,-5.6014,-5.6381,-5.6748,-5.7299,-6.0456,-6.3759,-6.6916,-7.0403,-7.5139,-8.1379,-8.4315,-8.6885,-8.9234,-9.0849,-9.2134,-9.3088,-9.4556,-9.5327,-9.5547,-9.6245,-9.6575,-9.6502,-9.507,-9.4373,-9.4189,-9.2611,-9.195,-9.1803,-9.0188,-8.9455,-8.9125,-8.6701,-8.5233,-8.4168,-8.2039,-7.9176,-7.668,-7.8809,-7.7414,-7.4992,-7.6099,-7.4918,-7.2092,-6.7467,0.0,-6.2108,-5.8877,-5.8143,-5.8547,-5.9722,-6.0015,-6.1117,0.0,0.0,-6.8641,-7.1615,-7.4294,-7.6717,-7.8736,-8.2333,-8.5673,-8.7729,-9.0005,-9.1583,-9.1767,-9.2537,-9.3125,-9.3235,-9.4666,-9.5658,-9.5658,-9.6282,-9.6392,-9.5694,-9.5547,-9.485,-9.3308,-9.3161,-9.2721,-9.184,-9.1803,-9.1803,-9.1803,-9.1803,-9.1033,-8.9564,-8.9419,-8.861,-8.7105,-8.6114,-8.527,-8.4425,-8.1269,-7.991,-7.98,-7.8148,-7.7047,-7.635,-7.6166,-7.4675,-7.2512,-7.1562,-6.9567,-6.6951,0.0,-4.7736,-4.8306,-4.8306,-4.9701,-5.0802,-5.0802,-5.216,-5.3314,-5.3665,-5.4106,-5.4363,-5.4216,-5.4216,-5.4326,-5.4693,-5.7556,-6.13,-6.5999,-7.0183,-7.5395,-8.1929,-8.5416,-8.7876,-8.9345,-9.0996,-9.2244,-9.3088,-9.4226,-9.5034,-9.5547,-9.6318,-9.6685,-9.6649,-9.5511,-9.4997,-9.4887,-9.3235,-9.2244,-9.173,-9.1069,-8.9968,-8.85,-8.6518,-8.3838,-8.0975,-7.9984,-7.7781,0.0,0.0,-7.5652,-7.4955,-7.5139,-7.3891,-7.1468,-6.71,-6.4383,0.0,-6.0015,-6.0089,-6.108,0.0,-6.431,-6.6696,-6.9229,-7.1872,-7.4331,-7.6166,-7.958,-8.2737,-8.4389,-8.6811,-8.8977,0.0,-9.1143,-9.1803,-9.1803,-9.173,-9.1289,-9.0372,-9.1253,-9.2721,-9.463,-9.5107,-9.5144,-9.4813,-9.4813,-9.4299,-9.3161,-9.3088,-9.2721,-9.184,-9.1803,-9.1803,-9.1803,-9.1803,-9.0996,-8.9382,-8.9382,-8.8573,-8.6958,-8.5673,-8.3911,-8.1709,-8.0351,-7.925,-7.8295,-7.7567,-7.6827,-7.6056,-7.5579,-7.4221,-7.243,-7.153,-6.9327,-6.6428,0.0,-4.7609,-4.8306,-4.8306,-4.9701,-5.0802,-5.0802,-5.216,-5.3277,-5.3518,-5.3849,-5.3849,-5.324,-5.3203,-5.3203,-5.3203,-5.5427,-5.8951,-6.3943,-6.9009,-7.4515,-8.0571,-8.5159,-8.8023,-8.905,-9.1106,-9.2464,-9.3088,-9.3896,-9.4703,-9.5511,-9.6098,-9.6392,-9.6318,-9.5547,-9.507,-9.474,-9.3125,-9.217,-9.173,-9.0812,-8.9417,-8.7545,-8.4572,-8.0865,-7.7231,-7.7011,-7.4625,0.0,0.0,-7.1651,-7.1688,-7.2202,-7.1578,-6.9889,-6.6072,-6.3319,-6.141,-6.1153,-6.2108,-6.3649,-6.5595,-6.8935,-7.2129,-7.3634,-7.6723,-7.9764,-8.1269,-8.4352,-8.7215,-8.861,-9.0005,-9.1069,-9.14,-9.1657,-9.173,-9.151,-9.0592,-8.9344,-8.7729,-8.7472,-8.8536,-9.1363,-9.2831,-9.3712,-9.3932,-9.3969,-9.3602,-9.2794,-9.2758,-9.2464,-9.1803,-9.1803,-9.1803,-9.1803,-9.1583,-9.0776,-8.9382,-8.8977,-8.8023,-8.6628,-8.4756,-8.2406,-7.9764,-7.9543,-7.8772,-7.7671,-7.7384,-7.6717,-7.5689,-7.4882,-7.345,-7.1725,-7.0954,-6.8995,-6.6417,0.0,0.0,-4.8306,-4.8306,-4.9701,-5.0802,-5.0802,-5.216,-5.3482,-5.4252,-5.3702,-5.3203,-5.3203,-5.3203,-5.3203,-5.3203,-5.5427,-5.8217,-6.1484,-6.7026,-7.2349,-7.7237,-8.2847,-8.6591,-8.8206,-9.14,-9.3088,-9.3088,-9.3896,-9.4703,-9.5511,-9.5547,-9.5547,-9.5511,-9.4703,-9.3896,-9.3051,-9.14,-9.1106,-9.151,-8.839,-8.7105,-8.6334,-7.9952,-7.6019,-7.3744,-7.2973,0.0,0.0,-6.5925,-6.5154,-6.387,-6.7797,-6.9009,0.0,-6.5081,-6.13,-5.8804,-6.1887,-6.3392,-6.5191,-6.9926,-7.3523,-7.6754,-7.9984,-8.2627,-8.527,-8.8391,-8.9162,-8.9564,-9.0372,-9.1216,-9.151,-9.0776,-9.1289,-9.1546,-9.0739,-8.9271,-8.7692,-8.604,-8.3838,-8.3067,0.0,-8.9197,-9.2281,-9.3088,-9.3125,-9.2758,-9.1877,-9.184,-9.184,-9.1803,-9.1803,-9.1803,-9.1803,-9.1033,-9.0225,-8.9345,-8.7839,-8.6628,-8.5747,-8.3361,-8.1379,-7.9764,-7.8993,-7.8589,-7.8516,-7.7671,-7.6356,-7.4882,-7.4037,-7.2275,-7.0073,-6.9265,-6.8421,-6.7322,0.0,0.0,0.0,-4.8233,-4.9701,-5.0802,-5.0802,-5.216,-5.3482,-5.4289,-5.4179,0.0,0.0,0.0,0.0,0.0,-5.4436,-5.6565,-5.9795,-6.4861,-6.9633,-7.3927,-7.958,-8.3875,-8.6554,-8.872,-9.0629,-9.2244,-9.3088,-9.3639,-9.3932,-9.3932,-9.3932,-9.3859,-9.2464,-9.1693,-9.1326,-8.9711,-8.8536,-8.7619,-8.549,-8.3654,-8.1672,-7.679,-7.2422,-6.8531,0.0,0.0,-6.108,-6.0309,-6.0566,-6.1447,-6.2842,0.0,0.0,-6.0823,-6.0603,-6.1557,-6.3209,-6.699,-7.1358,-7.5175,-7.8552,-8.1782,-8.5049,-8.6407,-8.7142,-8.7692,-8.6554,-8.5196,-8.4389,-8.4462,-8.5086,-8.6407,-8.8206,-8.9674,-9.0482,-9.0152,-8.8206,-8.3911,-8.3618,0.0,0.0,0.0,0.0,-9.0445,-9.0665,-9.0996,-9.1767,-9.1289,-9.0996,-9.0996,-9.0482,-9.0225,-9.0225,-8.9417,-8.861,-8.7802,-8.5637,-8.4205,-8.3361,-8.2003,-8.0534,-7.8993,-7.8699,-7.8259,-7.7671,-7.6864,-7.5873,-7.4771,-7.345,-7.1762,-6.9926,-6.8605,-6.7247,-6.5893,0.0,0.0,0.0,0.0,0.0,0.0,0.0,0.0,0.0,0.0,0.0,0.0,0.0,0.0,0.0,0.0,0.0,-5.5097,-5.774,-6.1667,-6.5448,-6.8898,-7.3964,-7.7928,-8.0571,-8.2186,-8.3911,-8.5747,-8.6921,-8.7619,-8.7949,-8.85,-8.8793,-8.8757,-8.8243,-8.7876,-8.7509,-8.5894,-8.4609,-8.3398,-8.0314,-7.7965,-7.5799,-7.1138,-6.71,0.0,0.0,0.0,-5.7629,-5.6381,-5.6969,-5.8364,-5.8951,-5.9685,-6.0236,-5.9832,-6.1594,-6.4383,-6.754,-7.2055,-7.679,-8.0645,-8.3581,-8.6114,-8.8169,-8.8169,-8.7288,-8.5637,-8.3141,-8.0645,-7.8736,-7.8148,-7.8956,-8.1966,-8.3765,-8.582,-8.8904,-8.8096,-8.604,-8.2994,-8.226,-8.1415,0.0,0.0,0.0,-8.8206,-8.883,-8.9674,-9.1289,-9.0886,-9.0592,-9.0592,-8.9821,-8.9271,-8.8977,-8.8169,-8.6921,-8.527,-8.3434,-8.1966,-8.0901,-8.0388,-7.9396,-7.8148,-7.8148,-7.7671,-7.6827,-7.6313,-7.5469,-7.4331,-7.2716,-7.1248,-6.9889,-6.8274,-6.6659,-6.5186,0.0,0.0,0.0,0.0,0.0,0.0,0.0,0.0,0.0,0.0,0.0,0.0,0.0,0.0,0.0,0.0,0.0,0.0,-5.5354,-5.7776,-6.0138,-6.245,-6.6476,-6.9449,-7.1101,-7.2642,-7.3891,-7.4808,-7.6283,-7.7524,-7.8369,-7.9874,-8.0571,-8.0645,-8.215,-8.2333,-8.1489,-7.991,-7.9213,-7.8699,-7.3156,-7.044,-6.9119,-6.3539,0.0,0.0,0.0,0.0,0.0,-5.4106,0.0,0.0,0.0,0.0,-5.8877,-6.2144,-6.4383,-6.732,-7.4368,-7.8185,-8.1269,-8.593,-8.8206,-8.9307,-8.9307,-8.7876,-8.5673,-8.248,-7.9103,-7.5983,0.0,0.0,-7.356,-7.7745,-7.8662,-8.0791,-8.6407,-8.3911,-8.2003,0.0,0.0,0.0,0.0,0.0,0.0,-8.6481,0.0,-8.8793,-9.0445,-9.0555,-9.0519,-9.0482,-8.9711,-8.8904,-8.8096,-8.7215,-8.5196,-8.2113,-8.1269,-8.0094,-7.8589,-7.8552,-7.8075,-7.7273,-7.7273,-7.6864,-7.6093,-7.6056,-7.5102,-7.3487,-7.1872,-7.077,-6.9816,-6.8164,-6.6623,-6.5191,0.0,0.0,0.0,0.0,0.0,0.0,0.0,0.0,0.0,0.0,0.0,0.0,0.0,0.0,0.0,0.0,0.0,0.0,-5.3812,-5.6638,-5.8584,-5.9208,-6.3135,-6.6366,-6.8568,-6.9596,-7.1101,-7.312,-7.3523,-7.4147,-7.4955,-7.4771,-7.4661,-7.4661,-7.4478,-7.3964,-7.312,-7.2092,-7.1321,-7.0477,0.0,-6.5411,-6.4237,0.0,0.0,0.0,0.0,0.0,0.0,0.0,0.0,0.0,0.0,-6.0933,-6.2365,0.0,0.0,-7.3413,-7.7671,-8.1929,-8.56,-8.7435,-8.7766,-8.7619,-8.7619,-8.4058,-7.9984,-7.7304,-7.2275,-6.7614,0.0,0.0,0.0,-7.4992,-7.9433,0.0,-8.8977,-8.8793,0.0,-8.5416,0.0,-8.3765,-8.1782,-8.1929,0.0,0.0,-8.5967,-8.7362,-8.9601,-8.9711,-8.9454,-8.883,-8.8023,-8.7252,-8.6407,-8.4425,-8.27,-8.1305,-7.9874,-7.8993,-7.8589,-7.7928,-7.7494,-7.7273,-7.7273,-7.6864,-7.6056,-7.5469,-7.4258,-7.2642,-7.1027,-6.9926,-6.8935,-6.6733,-6.5668,-6.5081,0.0,0.0,0.0,0.0,0.0,0.0,0.0,0.0,0.0,0.0,0.0,0.0,0.0,0.0,0.0,0.0,0.0,0.0,0.0,-5.4913,-5.5904,-5.5904,-5.8107,-6.0126,-6.1814,-6.2328,-6.3539,-6.5632,-6.5962,-6.6549,-6.732,-6.7247,-6.721,-6.721,-6.7467,-6.732,-6.6843,-6.6035,0.0,0.0,0.0,0.0,0.0,0.0,0.0,0.0,0.0,0.0,0.0,0.0,0.0,-5.9942,-6.2842,-6.5044,-6.743,-7.1872,0.0,-7.8442,-8.2406,-8.5967,-8.8683,-8.916,-8.839,-8.6885,-8.4389,-8.0277,-7.5469,-7.0146,-6.5338,0.0,-5.8877,-6.0529,-6.4347,0.0,0.0,0.0,-8.7619,-8.8206,-8.7839,0.0,-8.7178,0.0,-8.3985,-8.4205,-8.4646,0.0,-8.5857,-8.7068,-8.8793,-8.9234,-8.905,-8.8243,-8.7435,-8.6297,-8.4756,-8.2333,-8.0718,-7.9947,-7.8662,-7.8038,-7.8002,-7.7494,-7.7273,-7.7273,-7.7273,-7.6644,-7.5506,-7.4698,-7.345,-7.1835,-7.022,-6.9302,-6.8678,-6.699,-6.5925,-6.5191,0.0,0.0,0.0,0.0,0.0,0.0,0.0,0.0,0.0,0.0,-5.5244,0.0,0.0,0.0,0.0,0.0,0.0,0.0,0.0,0.0,-5.3203,-5.3203,-5.3203,-5.3555,-5.4216,-5.4363,-5.5097,-5.6492,-5.7189,-5.7923,-5.8744,-5.9428,-5.9722,-5.9685,0.0,0.0,0.0,0.0,0.0,0.0,0.0,0.0,0.0,0.0,0.0,0.0,0.0,0.0,0.0,0.0,-6.2511,-6.3943,-6.6733,-6.9816,-7.3413,-7.8295,-8.0718,-8.2847,-8.7582,-8.9784,-9.0702,-9.0482,-8.8904,-8.5967,-8.0388,-7.613,-7.0991,-6.2805,0.0,-5.6528,-5.4326,-5.55,-5.9245,-6.6623,0.0,-7.6644,-8.5086,-8.549,-8.6114,-8.9344,-8.839,-8.7215,-8.6481,-8.6444,-8.6371,-8.6297,-8.6921,-8.7582,-8.8169,-8.8867,-8.883,-8.7912,-8.7105,-8.5563,-8.3287,-8.0938,-7.9396,-7.8589,-7.7745,-7.7273,-7.7273,-7.7273,-7.7273,-7.7273,-7.7163,-7.6283,-7.4845,-7.3927,-7.2606,-7.0991,-6.9486,-6.8825,-6.8641,-6.7724,-6.6512,-6.5264,0.0,0.0,0.0,0.0,0.0,0.0,0.0,0.0,0.0,0.0,-5.6088,-5.6051,0.0,0.0,0.0,0.0,0.0,0.0,0.0,0.0,0.0,-5.3203,-5.3203,-5.3298,-5.3408,-5.4069,-5.4546,-5.484,-5.495,-5.5427,-5.6235,-5.6345,-5.6088,0.0,0.0,0.0,0.0,0.0,0.0,0.0,0.0,0.0,0.0,0.0,0.0,0.0,0.0,0.0,0.0,0.0,-6.4494,-6.7614,-7.2055,-7.5689,-7.9286,-8.4132,-8.5747,-8.6885,-9.1106,-9.1913,-9.1253,-8.9968,-8.6407,-8.1929,-7.69,-7.0146,0.0,0.0,-5.5647,-5.2711,-5.161,-5.4363,-5.9428,-6.7393,-7.1505,-7.7231,-8.7362,-8.7509,-8.7802,0.0,-9.0555,-8.9931,-8.9784,-8.9784,0.0,0.0,-8.8904,-8.8757,-8.8243,-8.8316,-8.7729,-8.6261,-8.5453,-8.4168,-8.2443,-8.0645,-7.9396,-7.8589,-7.7745,-7.7273,-7.7273,-7.7273,-7.7273,-7.7237,-7.6607,-7.5763,-7.4808,-7.3303,-7.1762,-7.022,-6.9265,-6.8495,-6.7724,-6.6256,-6.5558,-6.5118,0.0,0.0,0.0,0.0,0.0,0.0,0.0,-5.4509,-5.5133,-5.5559,-5.7042,-5.7446,-5.5831,-5.528,-5.4693,0.0,0.0,0.0,0.0,0.0,0.0,0.0,-5.3812,-5.3812,-5.3812,-5.462,0.0,0.0,0.0,0.0,0.0,0.0,0.0,0.0,0.0,0.0,0.0,0.0,0.0,0.0,0.0,0.0,0.0,0.0,0.0,0.0,0.0,0.0,0.0,0.0,-6.4567,-6.9302,-7.5028,-7.9617,-8.3544,-8.6701,-8.8243,-8.9381,-9.1767,-9.2464,-9.1767,-8.8904,-8.4535,-7.9213,-7.2642,0.0,0.0,0.0,-5.238,-5.0639,-5.0251,-5.3115,0.0,-6.2952,-6.7283,-7.3193,-8.248,-8.4205,0.0,-9.0629,-9.1216,-9.1069,0.0,-9.0225,-8.9638,-8.883,-8.839,-8.8169,-8.8206,-8.7399,-8.6591,-8.582,-8.4205,-8.2774,-8.1599,-7.9984,-7.8736,-7.7928,-7.7494,-7.7273,-7.7273,-7.7273,-7.7053,-7.6644,-7.6276,-7.5395,-7.4184,-7.301,-7.1541,-7.0,-6.9229,-6.8164,-6.699,-6.6219,-6.5411,-6.4567,0.0,0.0,0.0,0.0,0.0,0.0,0.0,-5.506,-5.5721,-5.6051,-5.807,-5.8891,-5.7483,-5.6602,-5.5721,0.0,0.0,0.0,0.0,0.0,0.0,0.0,0.0,-5.4656,-5.4656,0.0,0.0,0.0,0.0,0.0,0.0,0.0,0.0,0.0,0.0,0.0,0.0,0.0,0.0,0.0,0.0,0.0,0.0,0.0,0.0,0.0,0.0,0.0,0.0,0.0,-6.3466,-6.8568,-7.4221,-8.0277,-8.5563,-8.6995,-8.894,-9.0849,-9.2024,-9.2721,-9.2134,-8.8023,-8.2847,-7.6754,-6.9155,-6.2622,0.0,0.0,-5.0141,-4.9537,-4.9353,-5.1536,-5.4546,0.0,-6.2218,-6.7944,-7.6607,-8.0057,-8.3765,0.0,-9.1106,0.0,-9.0922,-9.0298,0.0,-8.9014,-8.8096,-8.7655,-8.7949,-8.6738,-8.5894,-8.5527,-8.3544,-8.1893,-8.0755,-7.947,-7.8332,-7.7273,-7.7273,-7.7273,-7.7273,-7.7273,-7.6864,-7.6093,-7.5909,-7.5028,-7.3597,-7.2459,-7.1248,-7.0,-6.9009,-6.776,-6.6476,-6.6329,-6.5338,-6.4053,0.0,0.0,0.0,0.0,0.0,0.0,0.0,-5.506,-5.6124,-5.7593,-5.9245,-5.9979,-5.9074,-5.8253,-5.7152,0.0,0.0,0.0,0.0,0.0,0.0,0.0,0.0,0.0,0.0,0.0,0.0,0.0,0.0,0.0,0.0,0.0,0.0,0.0,0.0,0.0,0.0,0.0,0.0,0.0,0.0,0.0,0.0,0.0,0.0,0.0,0.0,0.0,0.0,0.0,0.0,-6.387,-6.6696,-7.4992,-8.3801,-8.4682,0.0,0.0,-9.3418,-9.3602,-9.2134,-8.8023,-8.1122,-7.3817,-6.7944,0.0,0.0,-5.1353,-5.0141,-4.9353,-4.8563,-4.9297,-5.1573,-5.6271,0.0,-6.3477,-7.3817,-7.8002,-8.2113,-8.7766,0.0,0.0,-9.1693,-9.162,-9.1546,-9.1473,-9.0078,-8.8573,-8.7178,-8.6995,-8.6224,-8.4756,-8.3801,-8.2186,-7.991,-7.9764,-7.8883,-7.7273,-7.7273,-7.7273,-7.7273,-7.7273,-7.6864,-7.6056,-7.5322,-7.4515,-7.3523,-7.1248,-7.022,-6.9926,-6.8385,-6.7247,-6.6402,-6.5705,-6.4861,-6.398,0.0,0.0,0.0,0.0,0.0,0.0,-5.4216,-5.506,-5.6161,-5.7776,-5.9391,-6.0272,-5.9979,-5.9648,-5.8584,-5.6492,0.0,0.0,0.0,0.0,0.0,0.0,0.0,0.0,0.0,0.0,0.0,0.0,0.0,0.0,0.0,0.0,0.0,0.0,0.0,0.0,0.0,0.0,0.0,0.0,0.0,0.0,0.0,0.0,0.0,0.0,0.0,0.0,0.0,0.0,0.0,0.0,-5.9208,-6.5007,0.0,0.0,-8.2737,-8.6407,-9.0298,-9.2207,-9.1877,-8.6811,-7.9837,-7.2716,-6.7063,0.0,-5.2527,-5.1096,-4.9738,-4.871,-4.8379,-4.86,-4.9627,-5.205,-5.3004,-5.6418,-6.4971,-6.8128,-7.312,-8.2737,-8.5563,0.0,0.0,0.0,-9.0665,-8.9711,-8.905,-8.7986,-8.6371,-8.582,-8.527,-8.4609,-8.2406,-8.0755,-7.98,-7.8809,-7.7965,-7.7273,-7.7273,-7.7273,-7.7273,-7.6827,-7.6166,-7.5322,-7.4515,-7.345,-7.2202,-7.1211,-7.0257,-6.9302,-6.8678,-6.7357,-6.5742,-6.5411,-6.4457,-6.3356,0.0,0.0,0.0,0.0,0.0,-5.2527,-5.4142,-5.528,-5.6455,-5.7813,-5.9612,-6.0566,-6.0126,-6.0052,-5.9281,-5.7336,-5.7152,0.0,0.0,0.0,0.0,0.0,0.0,0.0,0.0,0.0,0.0,-5.7997,0.0,0.0,0.0,0.0,0.0,0.0,0.0,0.0,0.0,0.0,0.0,0.0,0.0,0.0,0.0,0.0,0.0,0.0,0.0,0.0,0.0,0.0,0.0,0.0,0.0,0.0,0.0,0.0,-7.7268,-8.2076,-8.6444,-8.9784,-9.0812,-8.5857,-7.8736,-7.1651,0.0,-5.84,-5.1756,-5.0986,-4.9664,-4.86,-4.8343,-4.8306,-4.8489,-4.9114,-4.9647,-5.2234,-5.8767,-6.1704,-6.6916,0.0,0.0,-8.3104,-8.8757,-9.0298,-9.0298,-8.8683,-8.8573,-8.7766,-8.5894,-8.4792,-8.4132,-8.3911,-8.1452,-7.991,-7.9433,-7.8259,-7.753,-7.7273,-7.7273,-7.7273,-7.7273,-7.646,-7.5652,-7.4845,-7.3817,-7.2569,-7.1256,-7.0779,-6.9926,-6.8898,-6.8641,-6.721,-6.5301,-6.5301,-6.4237,-6.289,0.0,0.0,0.0,0.0,0.0,0.0,-5.4142,-5.5757,-5.7079,-5.7886,-6.0089,-6.097,-5.9368,-5.9184,-5.8854,-5.807,-5.7997,0.0,0.0,0.0,0.0,0.0,0.0,0.0,0.0,0.0,-5.7997,-5.7997,-5.7997,-5.7997,0.0,0.0,0.0,0.0,0.0,0.0,0.0,0.0,0.0,0.0,0.0,0.0,0.0,0.0,0.0,0.0,0.0,0.0,0.0,0.0,0.0,0.0,0.0,0.0,0.0,0.0,-7.1688,-7.9323,-8.259,-8.6373,-8.8683,-8.5416,-7.7928,-7.0265,0.0,-5.84,-5.1756,-5.0986,-5.0141,-4.9317,-4.8453,-4.8306,-4.8306,-4.8306,-4.9701,-5.2491,-5.7336,-6.152,-6.5925,0.0,0.0,-7.7231,-8.2957,-8.8536,-9.1106,-8.9492,-8.9417,0.0,-8.593,-8.4278,-8.3067,-8.226,-8.1415,-8.0241,-7.8626,-7.8589,-7.8148,-7.7273,-7.7273,-7.7273,-7.7273,-7.646,-7.5652,-7.4808,-7.323,-7.2055,-7.1211,-6.9596,-6.8935,-6.8825,-6.8017,-6.6733,-6.5301,-6.5301,-6.4237,-6.278,0.0,0.0,0.0,0.0,0.0,0.0,0.0,-5.4142,-5.5464,-5.6235,-5.7483,-5.8327,-5.84,-5.7886,-5.7703,-5.796,-5.7483,0.0,0.0,0.0,0.0,0.0,0.0,0.0,0.0,0.0,-5.7997,-5.7997,-5.7997,-5.7997,-5.7997,-5.7997,-5.7997,0.0,0.0,0.0,0.0,0.0,0.0,0.0,0.0,0.0,0.0,0.0,0.0,0.0,0.0,0.0,0.0,0.0,0.0,0.0,0.0,0.0,0.0,-5.6932,0.0,0.0,-7.3303,-7.646,-7.7892,-7.4661,-6.9669,-6.4725,-6.1789,-5.5978,-5.1096,-5.0839,-4.9701,-4.8636,-4.8343,-4.8306,-4.8857,-5.0545,-5.0802,-5.2087,-5.5831,0.0,0.0,-7.2092,-8.0938,-8.7178,0.0,0.0,-9.0555,-8.9455,-8.839,-8.6958,-8.5086,-8.3434,-8.2443,-8.2186,-8.0351,-7.9103,-7.8589,-7.8002,-7.7598,-7.7273,-7.7273,-7.698,-7.646,-7.5652,-7.4845,-7.4001,-7.2386,-7.1211,-7.0403,-6.9339,-6.8568,-6.8054,-6.7797,-6.6733,-6.5375,-6.5925,-6.5081,-6.3759,0.0,0.0,0.0,0.0,0.0,0.0,0.0,-5.3555,-5.4583,-5.506,-5.5831,-5.6528,-5.7042,-5.6381,-5.6235,-5.7005,-5.6638,0.0,0.0,0.0,0.0,0.0,0.0,0.0,0.0,-5.8186,-5.8334,-5.8437,-5.8767,-5.8767,-5.8474,-5.8767,-5.8584,-5.7997,-5.7997,0.0,0.0,0.0,0.0,0.0,0.0,0.0,0.0,0.0,0.0,0.0,0.0,0.0,0.0,0.0,0.0,0.0,0.0,0.0,0.0,0.0,-5.7162,-6.1711,0.0,-6.9816,-7.1394,-6.9412,-6.5595,-6.1741,-5.9318,-5.462,-5.0729,-5.0398,-4.926,-4.8306,-4.8306,-4.8306,-4.882,-5.0362,-5.0178,-5.1096,0.0,0.0,0.0,-7.2239,0.0,0.0,0.0,-8.9638,-9.0152,-8.905,-8.7766,-8.6187,-8.4242,-8.2627,-8.1452,-8.0865,-7.936,-7.8442,-7.8112,-7.7598,-7.7273,-7.7273,-7.698,-7.6607,-7.6056,-7.4955,-7.4184,-7.3597,-7.2018,-7.0844,0.0,-6.9229,-6.8421,-6.765,-6.7357,-6.6623,-6.5778,-6.5962,-6.5228,-6.42,0.0,0.0,0.0,0.0,0.0,0.0,0.0,-5.3812,-5.4326,-5.4326,-5.495,-5.5449,-5.5449,-5.4766,-5.462,-5.5427,0.0,0.0,0.0,0.0,0.0,0.0,0.0,0.0,-5.802,-5.8439,-5.881,-5.9111,-5.9953,-5.9989,-5.9221,-5.9989,-5.9549,-5.807,-5.8033,0.0,0.0,0.0,0.0,0.0,0.0,0.0,0.0,0.0,0.0,0.0,0.0,0.0,0.0,0.0,0.0,0.0,0.0,0.0,0.0,0.0,0.0,0.0,0.0,-6.5558,-6.7871,-6.7797,-6.4383,-6.0419,-5.818,-5.4106,0.0,-4.9831,-4.893,-4.8343,-4.8379,-4.8343,-4.8379,-4.86,-4.86,-4.9958,0.0,-5.7886,0.0,0.0,-7.9617,0.0,-8.2627,-8.7325,-8.9784,-8.8133,-8.7178,-8.5673,-8.3361,-8.1709,-8.0131,-7.8662,-7.8552,-7.8112,-7.731,-7.7273,-7.7273,-7.72,-7.646,-7.6056,-7.5873,-7.4368,-7.367,-7.3523,-7.1908,-7.0844,-7.011,-6.9192,-6.8421,-6.7687,-6.688,-6.6549,-6.6402,-6.5742,-6.4934,-6.431,0.0,0.0,0.0,0.0,0.0,0.0,0.0,0.0,0.0,0.0,-5.3665,-5.3775,-5.3775,-5.3592,-5.3812,0.0,0.0,0.0,0.0,0.0,0.0,0.0,0.0,0.0,-5.7997,-5.8097,-5.8207,-5.829,-5.9486,-5.9797,-5.9208,-5.9819,-5.9686,-5.8914,-5.8253,-5.7997,0.0,0.0,0.0,0.0,0.0,0.0,0.0,0.0,0.0,0.0,-5.495,-5.4179,0.0,0.0,0.0,0.0,0.0,0.0,0.0,0.0,-5.3595,-5.4333,-5.5469,0.0,-5.7666,-5.7042,-5.6014,-5.5023,0.0,-5.2491,-5.0765,-5.0545,-4.9334,-4.8489,-4.915,-4.8746,-4.9114,-5.1626,-5.1536,-5.2344,-5.5757,-6.4897,0.0,-8.0094,-8.6151,-8.8793,-8.6151,-8.7619,-8.8096,-8.6481,-8.4462,-8.281,-8.1636,-8.0057,-7.8993,-7.8589,-7.7965,-7.7494,-7.7273,-7.7273,-7.698,-7.6387,-7.6203,-7.5469,-7.4258,-7.3854,-7.334,-7.2679,-7.1064,-7.0624,-7.0881,-6.8825,-6.8238,-6.8531,-6.7724,-6.7026,-6.6549,-6.699,-6.6219,-6.5118,0.0,0.0,0.0,0.0,0.0,0.0,0.0,0.0,0.0,0.0,0.0,-5.3203,-5.3203,-5.3203,0.0,0.0,0.0,0.0,0.0,0.0,0.0,0.0,0.0,-5.8216,-5.7997,-5.8194,-5.8511,-5.888,-5.9945,-6.0354,-6.01,-6.0354,-6.0055,-5.9148,-5.8364,-5.7997,0.0,0.0,0.0,0.0,0.0,0.0,0.0,0.0,0.0,0.0,-5.4693,-5.4018,0.0,-5.3997,-5.3833,-5.3585,0.0,0.0,0.0,0.0,-5.3498,-5.3456,-5.3249,-5.3518,-5.3739,-5.3314,-5.3203,-5.3093,-5.2747,-5.1977,-5.1132,-5.0398,-4.9517,-4.893,-4.8967,-4.893,-4.9481,-5.1242,-5.1793,-5.4032,0.0,0.0,-7.6607,-8.27,-8.7068,-8.8904,0.0,-8.7068,-8.6444,-8.4829,-8.281,-8.1305,-8.0498,-7.925,-7.8405,-7.8038,-7.7194,-7.6754,-7.6754,-7.6754,-7.635,-7.5542,-7.5175,-7.4551,-7.367,-7.3303,-7.2716,-7.1908,-7.1027,-7.0477,-7.011,-6.8788,-6.8274,-6.8274,-6.7467,-6.71,-6.7063,-6.71,-6.6366,-6.5485,0.0,0.0,0.0,0.0,0.0,0.0,0.0,0.0,0.0,0.0,0.0,0.0,0.0,0.0,0.0,0.0,0.0,0.0,0.0,0.0,0.0,0.0,0.0,-5.8439,-5.8119,-5.8503,-5.9089,-5.9821,-6.1097,-6.1579,-6.1279,-6.1496,-6.0741,-5.9067,-5.8428,-5.8097,0.0,0.0,0.0,0.0,0.0,0.0,0.0,0.0,0.0,0.0,0.0,0.0,0.0,-5.4338,-5.4187,-5.3922,-5.4681,0.0,0.0,0.0,0.0,0.0,-5.3346,-5.3482,-5.3518,-5.324,-5.3203,-5.3041,-5.2344,0.0,0.0,0.0,0.0,0.0,0.0,-4.9444,0.0,-5.0308,0.0,0.0,-6.5338,-7.1101,-7.668,-8.27,-8.5747,0.0,-8.6518,-8.593,-8.4903,-8.3177,-8.1562,-8.0277,-7.947,-7.8772,-7.8075,-7.731,-7.6533,-7.6056,-7.5909,-7.5909,-7.5506,-7.4735,-7.4037,-7.3634,-7.3487,-7.2679,-7.1945,-7.1321,-7.1064,-7.0257,-6.9082,-6.8825,-6.8385,-6.7797,-6.699,-6.71,-6.7614,-6.6916,-6.6109,-6.5485,0.0,0.0,0.0,0.0,0.0,0.0,0.0,0.0,0.0,0.0,0.0,0.0,0.0,0.0,0.0,0.0,0.0,0.0,0.0,0.0,0.0,-5.9284,-5.8508,-5.826,-5.8591,-5.8673,-5.8968,-5.9472,-6.2893,-6.3725,-6.2156,-6.3385,-6.2106,-5.8777,-5.8665,-5.8591,-5.8591,0.0,0.0,0.0,0.0,0.0,0.0,0.0,0.0,0.0,0.0,0.0,0.0,-5.4338,-5.4187,-5.381,-5.3946,0.0,0.0,0.0,0.0,0.0,-5.401,-5.4693,-5.4913,-5.3555,-5.3203,-5.3167,-5.3041,-5.2491,0.0,0.0,0.0,0.0,0.0,-5.1536,-5.2087,-5.3445,-5.7299,-6.2989,0.0,0.0,-7.9213,-8.2957,0.0,-8.7692,-8.4278,-8.4462,-8.3838,-8.1562,-7.9874,-7.8589,-7.7714,-7.7598,-7.742,-7.7273,-7.6533,-7.5763,-7.5102,-7.5102,-7.4698,-7.3891,-7.3744,-7.334,-7.2679,-7.1872,-7.1403,-7.1219,-6.9853,-6.9522,-6.9816,-6.8458,-6.8201,-6.8641,-6.7834,-6.7577,-6.7687,-6.754,-6.6586,-6.5264,0.0,0.0,0.0,0.0,0.0,0.0,0.0,0.0,0.0,0.0,0.0,0.0,0.0,0.0,0.0,0.0,0.0,0.0,0.0,0.0,0.0,-6.0103,-5.9234,-5.8855,-5.9065,-5.9985,-6.1109,-6.252,-6.4882,-6.5615,-6.4752,-6.3323,-6.1373,-5.9084,-5.8815,-5.8713,-5.8693,-5.8439,0.0,0.0,0.0,0.0,0.0,0.0,0.0,0.0,0.0,0.0,0.0,0.0,-5.4054,-5.3499,-5.375,0.0,0.0,0.0,0.0,0.0,-5.2998,-5.3702,-5.4216,-5.3922,-5.4179,-5.4289,-5.3387,-5.2931,-5.2527,0.0,0.0,0.0,0.0,0.0,-5.5831,-5.9685,-6.3246,-6.7283,-7.2349,-7.5469,-7.8479,0.0,0.0,-8.4315,-8.2884,-8.2296,-8.1379,-7.9837,-7.8589,-7.7524,-7.6717,-7.6644,-7.646,-7.5989,-7.5212,-7.4625,-7.4258,-7.3413,-7.301,-7.3046,-7.3046,-7.2642,-7.1835,-7.1439,-7.0844,-6.9963,-6.9229,-6.8605,-6.8091,-6.7357,-6.7026,-6.6916,-6.6549,-6.6402,-6.6366,-6.5925,-6.5558,-6.5191,0.0,0.0,0.0,0.0,0.0,0.0,0.0,0.0,0.0,0.0,0.0,0.0,0.0,0.0,0.0,0.0,0.0,0.0,0.0,0.0,-6.0251,-6.0539,-6.0226,-6.0281,-6.0749,-6.2015,-6.3778,-6.603,-6.759,-6.7921,-6.7013,-6.3326,-6.0829,-5.9526,-5.9065,-5.8874,-5.8835,-5.8482,-5.8482,0.0,0.0,0.0,0.0,0.0,0.0,0.0,0.0,0.0,0.0,0.0,0.0,0.0,0.0,0.0,0.0,-5.1518,-5.1775,-5.1909,-5.1964,-5.2858,-5.3812,-5.4069,-5.4583,-5.495,-5.4693,-5.4473,-5.4326,-5.4252,0.0,0.0,0.0,-5.5611,-5.9832,-6.4787,-6.8238,-7.1174,-7.3597,-7.5836,-7.8259,-8.0975,-8.1269,-8.1452,-8.1893,-8.0608,-7.947,-7.8662,-7.7635,-7.6754,-7.613,-7.5909,-7.5542,-7.4918,-7.4111,-7.3597,-7.3413,-7.2018,-7.1615,-7.2239,-7.2018,-7.1615,-7.1027,-7.0844,-7.0073,-6.8898,-6.8495,-6.765,-6.6476,-6.6292,-6.5852,-6.5301,-6.5301,-6.5301,-6.5228,-6.4604,-6.464,-6.4934,0.0,0.0,0.0,0.0,0.0,0.0,0.0,0.0,0.0,0.0,0.0,0.0,0.0,0.0,0.0,0.0,0.0,0.0,0.0,0.0,-6.0103,-6.015,-6.1287,-6.2809,-6.4733,-6.4924,-6.6113,-6.8447,-7.1521,-7.1153,-6.7578,-6.4421,-6.1905,-6.0006,-5.9543,-5.9337,-5.9337,-5.9302,-5.9084,-5.8716,0.0,0.0,0.0,0.0,0.0,0.0,0.0,0.0,0.0,0.0,0.0,0.0,0.0,0.0,-5.1205,-5.086,-5.1322,-5.1909,-5.1964,-5.3665,-5.506,-5.3665,-5.3335,-5.4304,-5.7937,-5.818,-5.8253,-6.0456,0.0,0.0,0.0,-6.0162,-6.3282,-6.5962,-7.0954,-7.5322,-7.7818,-7.9617,-8.1012,-8.2003,-8.2113,-8.1819,-8.1158,-8.0314,-7.947,-7.8662,-7.7084,-7.6166,-7.6093,-7.5395,-7.4955,-7.4918,-7.4111,-7.334,-7.2606,-7.1725,-7.1329,-7.1366,-7.0624,-7.022,-7.0146,-6.9412,-6.9009,-6.8825,-6.732,-6.6623,-6.6439,-6.5705,-6.5375,-6.5301,-6.5301,-6.5301,-6.5301,-6.5228,-6.4787,-6.4163,0.0,0.0,0.0,0.0,0.0,0.0,0.0,0.0,0.0,0.0,0.0,0.0,0.0,0.0,0.0,0.0,0.0,0.0,0.0,-5.8987,-6.0214,-6.1301,-6.1298,-6.2656,-6.5572,-6.6671,-6.892,-7.2418,-7.2279,-7.0888,-6.8231,-6.4524,-6.184,-6.0103,-5.9916,-5.9658,-5.9389,-5.9389,-5.9458,-5.9576,-5.9776,0.0,0.0,0.0,0.0,0.0,0.0,0.0,0.0,0.0,-5.3467,-5.2895,-5.1847,-5.1073,-5.0532,-5.0367,-5.0719,-5.1124,-5.0877,-5.2441,-5.3959,-5.3371,-5.3959,-5.5464,-5.8487,-5.9355,-6.0052,-6.1961,-6.2695,-6.2768,-6.1924,0.0,-6.5485,-6.8935,-7.3347,-7.6937,-7.8405,-7.9543,-8.0351,-8.0645,-8.0277,-7.9837,-7.9543,-7.8736,-7.7928,-7.7121,-7.646,-7.5652,-7.4661,-7.4331,-7.3927,-7.3413,-7.2642,-7.2055,-7.1762,-7.0477,-6.9816,-6.9816,-7.0,-6.9853,-6.9339,-6.8531,-6.7871,-6.7357,-6.6256,-6.5485,-6.4971,-6.4677,-6.4237,-6.3759,-6.3759,-6.3759,-6.3759,-6.3759,-6.3576,-6.3282,0.0,0.0,0.0,0.0,0.0,0.0,0.0,0.0,0.0,0.0,0.0,0.0,0.0,0.0,0.0,0.0,0.0,0.0,-5.8231,-5.905,-6.0165,-6.1639,-6.1358,-6.2666,-6.582,-6.7282,-6.983,-7.3615,-7.2133,-7.0276,-6.8126,-6.4809,-6.2338,-6.0707,-6.0275,-6.0068,-5.9988,-5.9723,-5.9823,-6.0118,-6.0283,-5.9907,0.0,0.0,0.0,0.0,0.0,0.0,0.0,0.0,-5.3056,-5.2226,-5.14,-5.0711,-5.023,-4.9974,-5.0375,-5.0688,-4.9775,-5.1211,-5.2933,-5.2863,-5.4399,-5.6932,-6.0676,-6.1924,-6.3135,-6.6035,-6.6145,-6.5448,-6.464,0.0,0.0,-7.0403,-7.4735,-7.7818,-7.8148,-7.8883,-7.9323,-7.9029,-7.8516,-7.8075,-7.7855,-7.7268,-7.6607,-7.5799,-7.5249,-7.4478,-7.3377,-7.2826,-7.2312,-7.1762,-7.0954,-7.044,-7.0183,-6.8825,-6.8017,-6.776,-6.8311,-6.8421,-6.8128,-6.732,-6.6623,-6.6072,-6.5264,-6.4604,-6.4053,-6.3796,-6.3356,-6.2817,-6.3099,-6.3209,-6.3282,-6.3796,-6.3649,-6.3246,0.0,0.0,0.0,0.0,0.0,0.0,0.0,0.0,0.0,0.0,0.0,0.0,0.0,0.0,0.0,0.0,0.0,0.0,-5.8242,-5.905,-5.9858,-6.0742,-6.1601,-6.3255,-6.5782,-6.6628,-6.846,-7.1284,-7.1284,-6.984,-6.7051,-6.5397,-6.3705,-6.2,-6.0707,-6.0613,-6.1353,-6.0461,-6.0118,-6.0146,-6.0622,-6.0022,0.0,0.0,0.0,0.0,0.0,0.0,0.0,0.0,-5.2615,-5.1769,-5.0971,-5.0712,-5.0563,-4.9765,-5.0361,-5.0857,-4.8862,-5.0361,-5.2419,-5.212,-5.4473,-5.8547,-6.5044,-6.6512,-6.8128,-7.3744,-7.044,-6.6292,-6.5521,-6.6659,0.0,-6.9853,-7.4882,-7.8295,-7.742,-7.8038,-7.8259,-7.7384,-7.7273,-7.6974,-7.6166,-7.6093,-7.5726,-7.4955,-7.3413,-7.2496,-7.2459,-7.0954,-7.0073,-7.0073,-6.9302,-6.8495,-6.7687,-6.688,-6.6109,-6.5301,-6.5301,-6.5705,-6.6476,-6.5668,-6.5301,-6.5264,-6.442,-6.409,-6.4016,-6.3172,-6.278,-6.2879,-6.3759,-6.409,-6.4273,-6.5888,-6.5448,-6.42,0.0,0.0,0.0,0.0,0.0,0.0,0.0,0.0,0.0,0.0,0.0,0.0,0.0,0.0,0.0,0.0,0.0,0.0,-5.7319,-5.7588,-5.8127,-5.9011,-5.9819,-6.0627,-6.1396,-6.3397,-6.6294,-7.0162,-6.9548,-6.7931,-6.532,-6.482,-6.3194,-6.0745,-6.185,-6.1655,-6.0475,-6.0584,-6.0597,-6.061,-6.0746,-6.0195,0.0,0.0,0.0,0.0,0.0,0.0,0.0,0.0,0.0,0.0,-5.1164,-5.1087,-5.1403,-5.0583,-5.0791,-5.1103,-5.0213,-5.1218,-5.2809,-5.4197,-5.7373,0.0,0.0,-6.776,0.0,0.0,-7.2239,-6.9816,-6.9559,-6.9926,-7.0587,-7.1615,-7.4625,-7.6937,-7.7237,-7.7494,-7.7378,-7.657,-7.646,-7.6166,-7.5322,-7.4735,-7.4074,-7.3266,-7.2275,-7.1174,-7.0036,-6.9522,-6.9009,-6.8421,-6.7614,-6.71,-6.6843,-6.6072,-6.5558,-6.5301,-6.4714,-6.4861,-6.5632,-6.4824,-6.4457,-6.442,-6.3576,-6.3209,-6.3172,-6.2915,-6.2475,-6.2034,-6.2879,-6.3209,-6.3246,-6.3723,-6.3613,-6.3209,0.0,0.0,0.0,0.0,0.0,0.0,0.0,0.0,0.0,0.0,-5.5703,-5.5703,0.0,0.0,0.0,0.0,0.0,0.0,0.0,-5.7176,-5.7522,-5.8704,-5.9242,-5.9819,-6.0512,-6.2358,-6.4397,-6.6667,-6.7167,-6.6282,-6.4128,-6.5128,-6.4257,-6.1948,-6.3924,-6.3706,-6.1885,-6.1811,-6.1396,-6.0781,-6.0781,-6.0473,-5.9896,0.0,0.0,0.0,0.0,0.0,0.0,0.0,0.0,0.0,-5.102,-5.101,-5.1298,-5.0657,-5.0876,-5.1179,-5.0606,-5.1734,-5.3663,-5.6367,-5.9832,-6.3943,-6.9155,0.0,0.0,0.0,-7.4184,-7.2349,-7.2679,-7.2239,0.0,-7.3266,-7.5212,-7.6754,-7.7237,-7.7017,-7.6644,-7.6166,-7.5542,-7.4845,-7.4037,-7.323,-7.2275,-7.1138,-7.033,-6.9302,-6.8017,-6.765,-6.71,-6.6319,-6.5448,-6.5044,-6.5044,-6.3943,-6.3503,-6.3833,-6.3025,-6.2879,-6.3356,-6.3172,-6.3099,-6.3062,-6.2218,-6.1851,-6.1851,-6.1851,-6.1557,-6.119,-6.1998,-6.2511,-6.2842,-6.3209,-6.3319,-6.3319,0.0,0.0,0.0,0.0,0.0,0.0,0.0,0.0,0.0,0.0,-5.5703,-5.5703,0.0,0.0,0.0,0.0,0.0,0.0,0.0,0.0,-5.755,-5.9088,-5.9319,-6.0204,-6.1947,-6.2704,-6.2704,-6.1985,-6.4436,-6.4782,-6.3128,-6.582,-6.6167,-6.4551,-6.632,-6.6128,-6.4436,-6.3474,-6.2204,-6.0781,-6.0781,-6.0742,-6.0512,-5.8896,0.0,0.0,0.0,0.0,0.0,0.0,0.0,0.0,-5.0712,-5.075,-5.0739,-5.0279,-5.072,-5.1205,-5.0563,-5.2137,-5.4871,-5.8662,-6.2401,-6.6439,-7.1725,-7.5799,-7.8442,-7.8295,0.0,-7.4331,-7.4918,-7.3891,-7.3377,-7.4698,-7.6173,-7.7127,-7.698,-7.635,-7.5836,-7.5689,-7.4368,-7.312,-7.2275,-7.1431,-7.0367,-6.8788,-6.7944,-6.71,-6.6219,-6.5485,-6.4677,-6.3796,-6.2989,-6.256,-6.256,-6.1153,-6.0786,-6.1484,-6.075,-6.0419,-6.0419,-6.1153,-6.152,-6.1557,-6.075,-6.0419,-6.0419,-6.0419,-6.0382,-6.0382,-6.119,-6.1924,-6.2695,-6.3466,-6.3796,-6.387,0.0,0.0,0.0,0.0,0.0,0.0,0.0,0.0,0.0,0.0,0.0,0.0,0.0,0.0,0.0,0.0,0.0,0.0,0.0,0.0,-5.6126,-5.6511,-5.7819,-5.9358,-6.105,-6.1243,-6.1243,-6.1089,-6.2935,-6.2974,-6.1435,-6.5282,-6.582,-6.3666,-6.6051,-6.5782,-6.3474,-6.1973,-6.1127,-6.0781,-6.0781,-6.0396,-5.9665,-5.8665,-5.7896,0.0,0.0,0.0,0.0,0.0,0.0,0.0,-5.0894,-5.1125,-5.15,-5.0786,-5.1149,-5.189,-5.2311,-5.3787,0.0,-6.17,-6.7834,-7.323,-7.5696,-7.6943,-7.7231,-7.5983,-7.668,-7.7194,-7.6056,-7.6093,-7.5953,-7.5065,-7.5726,-7.5909,-7.4661,-7.4331,-7.3744,-7.2496,-7.2055,-7.1248,-6.9816,-6.8935,-6.8054,-6.71,-6.6256,-6.5191,-6.3686,-6.3429,-6.2695,-6.1227,-6.1006,-6.0933,-6.0933,-6.0566,-6.0493,-6.0676,-6.0493,-6.0419,-6.0419,-6.0566,-6.1006,-6.1557,-6.075,-6.0419,-6.0419,-6.0419,-6.0052,-5.9515,-6.0346,-6.075,-6.0933,-6.1117,-6.1594,-6.2144,0.0,0.0,0.0,0.0,0.0,0.0,0.0,0.0,0.0,0.0,0.0,0.0,0.0,0.0,0.0,0.0,0.0,0.0,0.0,-5.5934,-5.6049,-5.6896,-5.8165,-5.9473,-6.0781,-6.0781,-6.0781,-6.0781,-6.1666,-6.2089,-6.2089,-6.5936,-6.7013,-6.5808,-6.7975,-6.7282,-6.4397,-6.232,-6.0935,-6.0127,-5.9742,-5.9319,-5.8819,-5.8011,-5.7396,-5.683,-5.5588,0.0,0.0,0.0,0.0,0.0,0.0,0.0,-5.1241,-5.0827,-5.1139,-5.1759,-5.2363,-5.4446,0.0,-6.5211,0.0,-7.5689,-7.6533,-7.646,-7.5879,-7.5065,-7.624,-7.7121,-7.6276,-7.613,-7.5763,-7.4515,-7.4661,-7.4515,-7.3303,-7.2789,-7.2092,-7.0881,-7.0036,-6.9119,-6.7871,-6.7026,-6.6035,-6.4824,-6.4347,-6.3392,-6.1741,-6.1667,-6.1117,-5.9869,-5.9832,-5.9832,-5.9832,-5.9428,-5.9428,-5.9808,-5.9428,-5.9245,-5.9245,-5.9648,-5.9832,-5.9832,-5.9428,-5.9245,-5.9245,-5.9245,-5.8988,-5.8657,-5.9098,-5.9501,-5.9832,-5.9832,-6.0346,-6.1043,0.0,0.0,0.0,0.0,0.0,0.0,0.0,0.0,0.0,0.0,0.0,0.0,0.0,0.0,0.0,0.0,0.0,0.0,0.0,-5.6088,-5.6472,-5.8242,-5.8781,-5.9627,-6.0781,-6.0666,-6.0666,-6.0781,-6.0781,-6.1973,-6.4231,-6.6936,-6.8282,-6.8462,-6.9706,-6.8552,-6.5513,-6.2781,-6.0819,-5.9435,-5.8627,-5.8204,-5.8011,-5.7291,-5.683,-5.6406,-5.5011,-5.3933,-5.3087,-5.2192,0.0,0.0,0.0,0.0,-5.0894,-5.075,-5.096,-5.1319,-5.1854,-5.5037,-6.0076,-6.7784,-7.2496,0.0,-7.5616,-7.5065,-7.4515,-7.4515,-7.5139,-7.5652,-7.5506,-7.4918,-7.4184,-7.323,-7.3193,-7.2973,-7.2018,-7.1321,-7.055,-6.9596,-6.8274,-6.7063,-6.5962,-6.5264,-6.42,-6.2511,-6.2401,-6.1716,-6.0272,-6.0199,-5.9832,-5.9001,-5.8964,-5.8964,-5.8964,-5.8327,-5.8327,-5.8964,-5.8327,-5.7997,-5.8033,-5.8694,-5.8731,-5.8217,-5.807,-5.807,-5.8217,-5.807,-5.7997,-5.7997,-5.7997,-5.84,-5.8964,-5.8964,-5.9501,-6.0199,0.0,0.0,0.0,0.0,0.0,0.0,0.0,0.0,0.0,0.0,-5.5703,-5.5703,-5.5703,-5.5703,0.0,0.0,0.0,0.0,-5.5857,0.0,0.0,-5.8242,-5.7665,-5.8396,-6.0742,-6.005,-6.005,-6.0781,-6.0781,-6.3166,-6.7692,-6.7398,-6.7667,-6.8398,-6.7821,-6.6551,-6.4551,-6.1243,-5.9704,-5.9435,-5.8627,-5.7857,-5.7176,-5.706,-5.6099,-5.478,-5.4587,-5.3933,-5.3087,-5.2192,-5.2308,0.0,0.0,0.0,-5.1587,-5.0894,-5.0759,-5.1003,-5.2133,0.0,-6.2613,0.0,-7.0,-7.2312,0.0,0.0,-7.2826,0.0,-7.345,-7.3817,-7.312,-7.2899,-7.2349,-7.0807,-7.1174,-7.1101,-6.9596,-6.9302,-6.8678,-6.7173,-6.6769,-6.5778,-6.3503,-6.3209,-6.2475,-6.086,-6.0713,-6.0346,-5.9404,-5.9368,-5.8988,-5.818,-5.8143,-5.8143,-5.8143,-5.8033,-5.8033,-5.8143,-5.8033,-5.7997,-5.7997,-5.8107,-5.8474,-5.9001,-5.829,-5.84,-5.8964,-5.829,-5.7997,-5.7997,-5.7997,-5.807,-5.8143,-5.8143,-5.8657,-5.9368,0.0,0.0,0.0,0.0,0.0,0.0,0.0,0.0,0.0,0.0,0.0,-5.5703,-5.5703,-5.5703,0.0,0.0,0.0,0.0,-5.5703,-5.5703,0.0,0.0,-5.7934,-5.8704,-6.0742,-6.0435,-6.0165,-6.0089,-6.055,-6.3666,-6.9129,-6.9206,-7.0475,-7.2552,-6.9783,-6.7898,-6.6397,-6.1089,-5.8819,-5.8704,-5.7396,-5.6896,-5.6945,-5.6483,-5.6137,-5.5791,-5.4818,-5.4241,-5.3818,-5.2933,-5.2895,-5.301,-5.1779,0.0,0.0,0.0,-5.0712,-5.132,-5.4145,-5.749,-6.13,0.0,-6.8164,-6.9596,-7.0734,-7.1101,-7.0881,-7.0,-7.0073,-7.0624,-7.1651,-7.1101,-7.011,-6.8935,-6.8678,-6.8201,-6.7063,-6.688,-6.6439,-6.5301,-6.4714,-6.3833,-6.2291,-6.1741,-6.097,-5.9808,-5.9735,-5.9391,-5.8584,-5.8547,-5.8364,-5.7997,-5.7997,-5.7997,-5.7997,-5.7997,-5.7776,-5.7336,-5.6859,-5.6638,-5.6675,-5.7116,-5.7776,-5.851,-5.8143,-5.8217,-5.851,-5.8143,-5.7997,-5.7997,-5.7997,-5.7997,-5.7997,-5.7997,-5.8217,-5.8547,0.0,0.0,0.0,0.0,0.0,0.0,0.0,0.0,0.0,0.0,0.0,0.0,-5.5703,0.0,0.0,0.0,0.0,0.0,-5.5703,0.0,0.0,0.0,0.0,-5.8665,-6.0127,-6.0165,-5.9858,-5.9204,-6.005,-6.3743,-7.0014,-7.086,-7.363,-7.7746,-7.3283,-7.0206,-6.8013,-6.2089,-5.9704,-5.9665,-5.7088,-5.6291,-5.6637,-5.6434,-5.6357,-5.6252,-5.5164,-5.4664,-5.4357,-5.351,-5.3472,-5.3626,-5.2308,-5.2038,0.0,0.0,0.0,-5.1387,0.0,0.0,-5.842,-6.2778,-6.4806,-6.597,0.0,0.0,-6.8274,0.0,-6.6916,-6.732,-6.9155,-6.8678,-6.7724,-6.6916,-6.6256,-6.5595,-6.4787,-6.4677,-6.4383,-6.3539,-6.2879,-6.2108,-6.108,-6.0456,-5.9758,-5.8988,-5.8707,-5.8327,-5.774,-5.7483,-5.7373,-5.7373,-5.7373,-5.7373,-5.7373,-5.7373,-5.7079,-5.6492,-5.5868,-5.5596,-5.5611,-5.6235,-5.6822,-5.7409,-5.7813,-5.7997,-5.7997,-5.7997,-5.7997,-5.7997,-5.7997,-5.7997,-5.7997,-5.7997,-5.7997,-5.7997,0.0,0.0,0.0,0.0,0.0,0.0,0.0,0.0,0.0,0.0,0.0,0.0,-5.5703,-5.5703,-5.5703,-5.5703,0.0,0.0,0.0,0.0,0.0,0.0,0.0,0.0,-5.8396,-5.8434,-5.8396,-5.8357,-5.9165,-6.3435,-7.086,-7.1745,-7.6092,-8.2978,-7.7938,-7.2976,-6.8154,-6.4589,-6.3512,-6.3858,-5.8907,-5.6483,-5.5934,-5.755,-5.6703,-5.4703,-5.5395,-5.5164,-5.4357,-5.351,-5.4241,-5.5126,-5.2692,-5.2462,-5.2818,0.0,0.0,0.0,0.0,-5.274,0.0,-5.6257,-5.8491,0.0,0.0,0.0,-6.4604,-6.5301,-6.4824,-6.431,-6.4457,-6.5044,-6.5228,-6.442,-6.4237,-6.3906,-6.3062,-6.2927,-6.2622,-6.1814,-6.1667,-6.1043,-5.9478,-5.9294,-5.8951,-5.8107,-5.7373,-5.6932,-5.6859,-5.6124,-5.5721,-5.5721,-5.5721,-5.5721,-5.5721,-5.5721,-5.5684,-5.5647,-5.5611,-5.5596,-5.5596,-5.5647,-5.5706,-5.5794,-5.7336,-5.7997,-5.7997,-5.7997,-5.7997,-5.7997,-5.7997,-5.7997,-5.7997,-5.7997,-5.7997,-5.7997,0.0,0.0,0.0,0.0,0.0,0.0,0.0,0.0,0.0,0.0,0.0,0.0,0.0,-5.5703,-5.5703,-5.5703,-5.5703,0.0,0.0,0.0,0.0,0.0,0.0,0.0,-5.828,-5.8319,-5.805,-5.7473,-5.8319,-6.1512,-6.6898,-6.9436,-7.2322,-7.5399,-7.413,-7.2552,-7.0398,-6.3705,-6.0742,-6.0396,-5.8588,-5.7665,-5.7396,-5.7434,-5.7242,-5.6819,-5.6011,-5.5511,-5.5203,-5.4895,-5.5203,-5.5434,-5.401,-5.3395,-5.2856,-5.1202,-5.0712,-5.0911,0.0,0.0,0.0,-5.5157,-5.6611,-5.7786,-5.9063,-6.0987,-6.2291,-6.1557,-6.1998,-6.2328,-6.1814,-6.2365,-6.2842,-6.2548,-6.2071,-6.163,-6.13,-6.1263,-6.1153,-6.086,-6.0382,-5.9832,-5.9258,-5.8731,-5.8107,-5.7299,-5.6969,-5.6565,-5.6051,-5.5757,-5.5596,-5.5596,-5.5596,-5.5596,-5.5596,-5.5097,-5.484,-5.4803,-5.4326,-5.4069,-5.4069,-5.4583,-5.484,-5.4876,-5.5978,-5.6748,-5.7262,-5.7776,-5.7997,-5.7997,-5.7997,-5.7997,-5.7997,-5.7997,-5.7997,-5.7997,0.0,0.0,0.0,0.0,0.0,0.0,0.0,0.0,-5.5703,-5.5703,0.0,0.0,0.0,0.0,-5.5703,-5.5703,-5.5703,-5.5703,-5.5703,-5.5703,0.0,0.0,0.0,0.0,-5.7434,-5.7703,-5.7434,-5.656,-5.7434,-6.0012,-6.4205,-6.6782,-6.9013,-7.086,-7.0014,-7.0591,-7.1822,-6.5859,-6.2512,-6.1127,-5.9704,-5.8973,-5.8819,-5.9665,-5.9627,-5.9088,-5.8781,-5.7934,-5.6934,-5.6665,-5.6395,-5.5972,-5.5164,-5.3933,-5.251,-5.1087,-5.0712,-5.0855,-5.1664,0.0,0.0,0.0,0.0,-5.5025,-5.5992,-5.7972,-5.9428,-5.8914,-5.9648,-6.0309,-6.0052,-6.0199,-6.0493,-6.075,-6.0346,-5.9905,-5.9648,-5.9612,-5.9612,-5.9612,-5.9134,-5.8671,-5.8414,-5.7923,-5.7262,-5.6455,-5.6161,-5.5757,-5.5207,-5.495,-5.4803,-5.4803,-5.4803,-5.4803,-5.4803,-5.4252,-5.3995,-5.3995,-5.3482,-5.3203,-5.3203,-5.3739,-5.3995,-5.4032,-5.484,-5.5647,-5.6455,-5.7262,-5.7593,-5.7629,-5.7886,-5.7997,-5.7997,-5.7997,-5.7997,-5.7997,0.0,0.0,0.0,0.0,0.0,0.0,0.0,0.0,-5.5703,-5.5703,0.0,0.0,0.0,0.0,0.0,-5.578,-5.578,-5.5742,-5.5703,-5.5703,0.0,0.0,0.0,0.0,-5.5703,-5.656,-5.656,-5.5703,-5.656,-5.905,-6.3115,-6.4051,-6.6667,-7.0475,-6.6436,-6.7359,-7.186,-7.0937,-6.9206,-6.6667,-6.2474,-6.0358,-6.0165,-6.4205,-6.3743,-6.1281,-6.3705,-6.2435,-5.9511,-5.8704,-5.7819,-5.6945,-5.6011,-5.401,-5.1808,-5.0971,-5.075,-5.075,0.0,0.0,0.0,0.0,0.0,0.0,-5.342,0.0,-5.5963,-5.7519,-5.7886,-5.8143,-5.8927,-5.8474,-5.818,-5.8964,-5.9111,-5.8854,-5.807,-5.7923,-5.7923,-5.7923,-5.7923,-5.7629,-5.6859,-5.6785,-5.6418,-5.5633,-5.484,-5.4399,-5.4363,-5.3628,-5.3167,-5.3167,-5.3188,-5.3167,-5.3151,-5.313,-5.3167,-5.3167,-5.3167,-5.3167,-5.3203,-5.3203,-5.3203,-5.3261,-5.4032,-5.4803,-5.5574,-5.6418,-5.6785,-5.6895,-5.7666,-5.796,-5.7997,-5.7997,-5.7997,-5.7997,0.0,0.0,0.0,0.0,0.0,-5.5703,-5.5703,-5.5703,-5.5703,0.0,0.0,0.0,-5.6637,-5.7703,-5.8204,-5.7627,-5.7588,-5.7049,-5.578,-5.5703,-5.5703,-5.5703,-5.6522,-5.6599,-5.5703,-5.656,-5.656,-5.5703,-5.5934,-5.6973,-5.8781,-6.0242,-6.2204,-6.4551,-6.5243,-6.5628,-6.5628,-6.3551,-6.3666,-6.5013,-6.2012,-6.2474,-6.4782,-6.2897,-6.3166,-6.4436,-6.3858,-6.3474,-6.2974,-6.1512,-6.0473,-5.9281,-5.6549,-5.4818,-5.351,-5.201,-5.201,-5.2241,-5.102,0.0,0.0,0.0,0.0,0.0,0.0,0.0,-5.36,-5.4354,-5.4987,-5.5647,-5.6455,-5.6418,-5.6345,-5.6565,-5.7079,-5.7409,-5.7152,-5.6638,-5.6235,-5.6235,-5.6235,-5.6161,-5.5941,-5.5941,-5.5611,0.0,-5.4509,-5.4142,-5.3555,-5.3314,-5.2931,-5.2344,-5.2894,-5.2637,-5.1499,-5.205,-5.2344,-5.2344,-5.2344,-5.2637,-5.3203,-5.3203,-5.3203,-5.3203,-5.3445,-5.3665,-5.3959,-5.5354,-5.6271,-5.6822,-5.7042,-5.7483,-5.7997,-5.7997,-5.7997,-5.7997,0.0,0.0,0.0,-5.6099,-5.6252,-5.6357,-5.6742,-5.6472,-5.6252,0.0,0.0,0.0,-5.7511,-5.9973,-6.0742,-5.8511,-5.8319,-5.7857,-5.6857,-5.6434,-5.6395,-5.678,-5.728,-5.728,-5.678,-5.6945,-5.6753,-5.6252,-5.5857,-5.5972,-5.6483,-5.7473,-5.8473,-5.9484,-6.0973,-6.1281,-6.0589,-5.9088,-6.0204,-6.3051,-6.332,-6.4897,-6.709,-6.7128,-6.7936,-6.9013,-6.8706,-6.8244,-6.7398,-6.5013,-6.2666,-6.0204,-5.678,-5.5395,-5.4664,-5.2972,-5.2818,-5.301,-5.201,-5.2087,0.0,0.0,0.0,0.0,-5.0793,-5.1024,-5.1451,0.0,-5.2858,-5.3628,-5.4436,-5.4583,-5.4693,-5.5023,-5.5207,-5.5537,-5.6198,-5.5904,-5.5596,-5.5596,-5.5596,-5.5464,-5.5133,-5.5097,-5.462,-5.3482,-5.3702,-5.3555,-5.2747,-5.238,-5.1977,-5.1499,-5.194,-5.1756,-5.0802,-5.1279,-5.1683,-5.1977,-5.1977,-5.2417,-5.3203,-5.3203,-5.3203,-5.3203,-5.3203,-5.3203,-5.3298,-5.4216,-5.528,-5.6345,-5.6675,-5.7299,-5.7997,-5.7997,-5.7997,-5.7997,0.0,0.0,-5.5972,-5.6868,-5.6983,-5.733,-5.828,-5.7703,-5.7214,0.0,-5.7753,-5.8473,-5.9704,-6.2858,-6.332,-5.9473,-5.8819,-5.8511,-5.8319,-5.755,-5.7473,-5.828,-5.8396,-5.8357,-5.8165,-5.7473,-5.706,-5.6868,-5.6088,-5.5703,-5.5703,-5.5703,-5.5703,-5.5703,-5.5703,-5.6126,-5.6868,-5.6945,-5.8407,-6.1012,-6.5166,-6.7205,-6.8359,-7.3591,-7.4899,-7.4091,-7.5515,-7.4553,-7.2052,-6.8475,-6.4512,-6.0512,-5.728,-5.6049,-5.5511,-5.3933,-5.3472,0.0,-5.3241,-5.328,0.0,0.0,-5.2118,0.0,-5.0831,-5.0267,-4.9894,0.0,-5.1242,-5.1977,-5.2784,-5.291,-5.3188,-5.3885,-5.3482,-5.3628,-5.5244,-5.5317,-5.5207,-5.5207,-5.5097,-5.4766,-5.4069,-5.3995,-5.3408,-5.1977,-5.2527,-5.2637,-5.1903,-5.1206,-5.0765,-5.0655,-5.0765,-5.0729,-5.0508,-5.0618,-5.1059,-5.1867,-5.1867,-5.2344,-5.3203,-5.3203,-5.3203,-5.3203,-5.3203,-5.3203,-5.3203,-5.3203,-5.4142,-5.5647,-5.6381,-5.7226,-5.7997,-5.7997,-5.7997,-5.7997,0.0,-5.5164,-5.5972,-5.6868,-5.6983,-5.7522,-5.9011,-5.8588,-5.8511,-5.9858,-6.2435,-6.5513,-6.909,-6.7782,-6.6013,-6.4551,-6.1897,-5.9742,-5.8396,-5.8127,-5.8127,-5.828,-5.8934,-5.8627,-5.7291,-5.778,-5.7357,-5.5934,-5.578,-5.5703,-5.5703,-5.5703,-5.5703,-5.5703,-5.5703,-5.578,-5.6011,-5.6714,-5.805,-6.0089,-6.3666,-6.7975,-7.2322,-7.2783,-7.4437,-7.6515,-7.613,-7.5668,-7.4514,-6.9744,-6.5782,-6.2474,-6.0435,-5.8396,-5.656,-5.5511,-5.5203,-5.4934,-5.3587,-5.3703,-5.4087,-5.3395,-5.2965,0.0,-5.1112,-5.0696,-5.0439,0.0,-4.9978,-5.0308,-5.1132,-5.1279,-5.1316,-5.1499,-5.1903,-5.2784,-5.4399,-5.3518,-5.2674,-5.2674,-5.2123,-5.1683,-5.1536,-5.1499,-5.1353,-5.1059,-5.1169,-5.1206,-5.1059,-5.0875,-5.0508,-4.9867,-5.0472,-5.0141,-4.882,-4.9481,-5.0215,-5.1022,-5.1022,-5.1793,-5.3203,-5.3203,-5.3203,-5.3203,-5.3203,-5.3203,-5.3203,-5.3203,-5.4142,-5.5611,-5.5757,-5.6712,-5.7997,-5.7997,-5.7997,-5.7997,-5.4934,-5.5434,-5.6088,-5.7434,-5.7665,-5.8357,-6.0473,-6.0089,-6.0473,-6.3012,-6.7051,-6.9667,-6.9667,-6.9244,-6.7628,-6.4294,-6.205,-6.0435,-5.9588,-5.9127,-5.9088,-5.9511,-5.9935,-5.955,-5.828,-5.828,-5.7665,-5.6368,-5.5895,-5.5703,-5.5703,-5.5703,-5.5703,-5.5703,-5.5703,-5.5703,-5.5742,-5.6175,-5.7319,-5.9396,-6.4936,-6.9436,-7.3129,-7.5668,-7.7707,-7.9131,-7.8707,-7.7438,-7.5361,-7.1091,-6.7398,-6.4166,-6.1589,-5.9627,-5.8165,-5.7703,-5.7011,-5.6175,-5.5318,-5.5088,-5.4895,-5.4049,-5.3711,0.0,0.0,-5.0914,-5.0314,-4.9729,-4.9243,-4.9077,-4.9481,-4.9554,-4.9701,-5.0141,-5.0565,-5.1079,-5.1867,-5.1646,-5.1242,-5.0859,-5.0068,-4.9738,-5.0141,-5.0178,-5.0362,-5.0765,-5.0031,-4.9738,-5.0178,-4.9774,-4.937,-4.8967,-4.9334,-4.915,-4.8306,-4.871,-4.9554,-5.0802,-5.0802,-5.1646,-5.3203,-5.3203,-5.3203,-5.3203,-5.3203,-5.3203,-5.3203,-5.3203,-5.3922,-5.5023,-5.5427,-5.6345,-5.7446,-5.785,-5.7997,-5.7997,-5.5357,-5.5703,-5.6242,-5.8011,-5.8319,-5.9165,-6.1716,-6.1358,-6.2243,-6.632,-7.0744,-7.2552,-7.0052,-7.0591,-6.9629,-6.582,-6.2781,-6.1473,-6.2435,-6.0781,-6.005,-6.0781,-6.0781,-6.0319,-5.9281,-5.8627,-5.778,-5.6753,-5.6049,-5.5703,-5.5703,-5.5703,-5.5703,-5.5703,-5.5703,-5.578,-5.5934,-5.578,-5.7088,-5.9858,-6.6513,-6.9937,-7.1668,-7.7784,-8.0015,-7.99,-8.0246,-7.8592,-7.5668,-7.1937,-6.8744,-6.5743,-6.2166,-6.0435,-5.9704,-5.955,-5.8466,-5.7305,-5.7152,-5.6644,-5.5933,-5.4986,-5.46,-5.404,0.0,0.0,0.0,-4.9764,-4.904,0.0,0.0,0.0,0.0,0.0,0.0,0.0,0.0,-4.9627,0.0,-4.9187,-4.8343,-4.8122,-4.8839,-4.9023,-4.9444,-5.0251,-4.9077,-4.86,-4.9317,-4.8673,-4.8306,-4.8306,-4.8306,-4.8306,-4.8306,-4.8306,-4.915,-5.0802,-5.0802,-5.1646,-5.3203,-5.3203,-5.3203,-5.3203,-5.3203,-5.3203,-5.3203,-5.3203,-5.3592,-5.4252,-5.506,-5.5941,-5.6895,-5.7519,-5.7886,-5.7997,-5.5357,-5.5703,-5.6242,-5.8011,-5.8319,-5.9165,-6.1716,-6.1358,-6.3089,-6.9513,-7.2168,-7.5053,-7.9054,-7.5053,-7.3591,-7.7438,-6.809,-6.3858,-6.8398,-6.3628,-6.0704,-6.0781,-6.0781,-6.005,-5.8473,-5.8357,-5.7473,-5.5857,-5.5742,-5.5703,-5.5703,-5.5703,-5.5703,-5.5703,-5.5703,-5.6126,-5.6791,-5.6011,-5.8434,-6.3012,-6.6128,-6.709,-6.7321,-7.4053,-7.6092,-7.563,-7.7169,-7.7476,-7.6399,-7.1475,-6.909,-6.7398,-6.3243,-6.1358,-6.0512,-5.9742,-5.9077,-5.8443,-5.7742,-5.7696,-5.7472,-5.5955,-5.6058,-5.5835,-5.3135,0.0,-5.1824,-4.9985,0.0,0.0,0.0,0.0,0.0,0.0,0.0,0.0,-4.8453,-4.7315,-4.6691,-4.7296,-4.6691,-4.6214,-4.6287,-4.6985,-4.77,-4.8526,-4.8416,-4.8343,-4.8453,-4.8343,-4.8306,-4.8306,-4.8306,-4.8306,-4.8306,-4.8306,-4.915,-5.0802,-5.0802,-5.1646,-5.3203,-5.3203,-5.3203,-5.3203,-5.3203,-5.3203,-5.3203,-5.3203,-5.324,-5.3445,-5.4216,-5.5464,-5.6822,-5.6895,-5.7409,-5.7997,-5.5472,-5.5703,-5.6088,-5.7319,-5.7973,-5.8973,-6.1012,-6.5243,-6.9206,-7.2052,-7.563,-7.8515,-8.0169,-7.6784,-7.5053,-7.6707,-7.0937,-6.7282,-6.7475,-6.4666,-6.2358,-6.0858,-6.0781,-6.0242,-5.9011,-5.855,-5.7703,-5.6445,-5.5934,-5.5703,-5.5703,-5.5703,-5.5703,-5.5703,-5.5703,-5.6175,-5.6983,-5.6599,-5.8242,-6.132,-6.3858,-6.4705,-6.5359,-7.413,-7.7207,-7.7015,-7.7707,-7.7707,-7.6746,-7.3129,-7.036,-6.8013,-6.5705,-6.2887,-6.0571,-6.1452,-6.0316,-5.8797,-5.8706,-5.8807,-5.8554,-5.7156,-5.7385,-5.7305,-5.4613,-5.3609,-5.2847,-5.129,0.0,0.0,0.0,0.0,0.0,0.0,-4.8159,0.0,0.0,0.0,-4.5333,0.0,0.0,0.0,-4.5149,-4.592,-4.6544,-4.6874,-4.7333,-4.759,-4.759,-4.803,-4.8306,-4.8306,-4.8306,-4.8306,-4.8306,-4.8306,-4.915,-5.0802,-5.0802,-5.1646,-5.3203,-5.3203,-5.3203,-5.3203,-5.3203,-5.3203,-5.3203,-5.3203,-5.3203,-5.3203,-5.3592,-5.4399,-5.5537,-5.6455,-5.7005,-5.7373,-5.5857,-5.5857,-5.6049,-5.7165,-5.7896,-5.8934,-6.0858,-6.659,-7.1283,-7.2937,-7.6592,-7.9592,-8.1054,-7.9131,-7.8246,-7.9477,-7.5553,-7.2052,-6.986,-6.6936,-6.4051,-6.1281,-6.0935,-6.0396,-5.9511,-5.8704,-5.7857,-5.6983,-5.6126,-5.5703,-5.5703,-5.5703,-5.5703,-5.5703,-5.6203,-5.7011,-5.8061,-5.8292,-5.9896,-6.2435,-6.4051,-6.5269,-6.6859,-7.3783,-7.6976,-7.7823,-7.7823,-7.7438,-7.6553,-7.4014,-7.136,-6.8859,-6.7513,-6.4435,-6.1576,-6.29,-6.1657,0.0,-5.9534,-5.9699,-5.9569,-5.7813,-5.7964,-5.7962,-5.5675,-5.4719,-5.3916,-5.261,-5.1389,0.0,0.0,0.0,0.0,0.0,0.0,-4.6636,0.0,-4.5149,0.0,0.0,0.0,0.0,0.0,-4.5223,-4.5663,-4.5883,-4.6636,-4.7113,-4.7113,-4.7846,-4.8306,-4.8306,-4.8306,-4.8306,-4.8306,-4.8526,-4.937,-5.0802,-5.1022,-5.1867,-5.3203,-5.3203,-5.3203,-5.3203,-5.3203,-5.3203,-5.3203,-5.3203,-5.3203,-5.3203,-5.3203,-5.3555,-5.4289,-5.5868,-5.6602,-5.6932,-5.6637,-5.6291,-5.6242,-5.7973,-5.828,-5.9165,-6.1678,-6.2935,-6.5705,-7.1475,-7.3129,-7.6553,-8.3939,-8.317,-8.4747,-9.1364,-8.3555,-7.8554,-7.9323,-7.1591,-6.5551,-6.2216,-6.1243,-6.0396,-5.9511,-5.8704,-5.7857,-5.6983,-5.6126,-5.5703,-5.5703,-5.5703,-5.5703,-5.578,-5.7473,-5.9127,-6.0742,-6.1601,-6.482,-6.9321,-6.8552,-7.0244,-7.3014,-7.1668,-7.3206,-7.6092,-7.6092,-7.6053,-7.5668,-7.3091,-7.1591,-7.0398,-6.7898,-6.5897,-6.4308,-6.3538,-6.2922,-6.2026,-5.9975,-6.0266,-6.0422,-5.7545,-5.7426,-5.761,-5.5948,-5.5581,-5.5082,-5.3482,-5.3093,-5.2637,-5.1059,0.0,0.0,0.0,0.0,0.0,0.0,0.0,0.0,0.0,0.0,0.0,0.0,-4.4728,-4.5076,-4.5847,-4.6636,-4.7113,-4.7113,-4.7846,-4.8306,-4.8306,-4.8306,-4.8306,-4.8306,-4.9114,-4.9978,-5.0802,-5.1573,-5.2417,-5.3203,-5.3203,-5.3203,-5.3203,-5.3203,-5.3203,-5.3203,-5.3203,-5.3203,-5.3203,-5.3203,-5.3203,-5.3424,-5.506,-5.6124,-5.6932,-5.6791,-5.6753,-5.6934,-5.8088,-5.8742,-6.0165,-6.3281,-6.5436,-6.9436,-7.7092,-8.0285,-8.4555,-9.1672,-9.1402,-9.1633,-9.3941,-8.9171,-8.4747,-8.167,-7.613,-7.1745,-6.8911,-6.5282,-6.3435,-6.3743,-6.1243,-5.9281,-5.7857,-5.6973,-5.6291,-5.5703,-5.5703,-5.5703,-5.5742,-5.6934,-5.805,-5.9281,-6.1243,-6.3397,-6.5628,-6.7615,-7.0783,-7.4168,-7.3053,-7.336,-7.4361,-7.4361,-7.4361,-7.4207,-7.336,-7.1745,-7.0011,-6.9291,-6.6542,-6.3633,-6.3904,-6.2818,-6.1695,-6.2172,-6.278,-6.2763,-6.0695,-6.0559,-6.01,-5.7059,-5.6822,-5.6565,-5.4436,-5.3995,-5.3518,-5.1903,0.0,0.0,0.0,0.0,0.0,0.0,0.0,0.0,0.0,0.0,0.0,0.0,0.0,-4.4011,-4.4268,-4.5076,-4.5718,-4.6287,-4.7076,-4.7736,-4.8269,-4.8306,-4.86,-4.915,-4.9463,-5.0271,-5.161,-5.1867,-5.2417,-5.3203,-5.3203,-5.3203,-5.3203,-5.3203,-5.3203,-5.3203,-5.3203,-5.3203,-5.3203,-5.3203,-5.3555,-5.4106,-5.5207,-5.5757,-5.6198,-5.7357,-5.7703,-5.805,-5.8627,-5.9896,-6.1704,-6.4205,-6.8052,-7.3168,-8.0169,-8.4555,-8.9402,-9.5634,-9.6057,-9.6019,-9.6326,-9.3787,-8.9517,-8.317,-8.0208,-7.663,-7.1937,-6.8898,-6.7013,-6.632,-6.3589,-6.1012,-5.8742,-5.7896,-5.7011,-5.6175,-5.5857,-5.5703,-5.5742,-5.6934,-5.8088,-5.9396,-6.2243,-6.4282,-6.582,-6.8629,-7.1206,-7.3283,-7.2783,-7.3129,-7.3899,-7.3577,-7.3514,-7.3437,-7.3129,-7.1937,-7.0511,-7.0111,-6.7528,-6.4681,-6.4608,-6.3671,-6.2701,-6.282,-6.3446,-6.3643,-6.1816,-6.1544,-6.0966,-5.8272,-5.807,-5.7813,-5.5684,-5.5023,-5.4399,-5.3078,0.0,0.0,0.0,0.0,0.0,0.0,-4.4342,0.0,0.0,0.0,0.0,0.0,-4.3515,-4.3515,-4.3515,-4.4268,-4.5039,0.0,-4.6636,-4.748,-4.8269,-4.8306,-4.871,-4.961,-4.9904,-5.0692,-5.1977,-5.227,-5.2711,-5.3203,-5.3203,-5.3203,-5.3203,-5.3203,-5.3203,-5.3203,-5.3203,-5.3203,-5.3203,-5.3518,-5.3959,-5.4509,-5.528,-5.5941,-5.6602,-5.8357,-5.9011,-5.955,-5.955,-6.1589,-6.3512,-6.4436,-7.0283,-7.6207,-8.0746,-8.5824,-9.0941,-9.6057,-9.7326,-9.8096,-9.8788,-9.7365,-9.2941,-8.4709,-8.4016,-8.0285,-7.2129,-7.2245,-7.0975,-6.7705,-6.5743,-6.3089,-5.9742,-5.8781,-5.7857,-5.6983,-5.6088,-5.5703,-5.578,-5.7473,-5.9127,-6.0896,-6.4282,-6.7244,-6.9783,-7.1475,-7.1668,-7.1014,-7.0937,-7.2476,-7.4553,-7.3668,-7.3308,-7.3129,-7.2322,-7.2052,-7.1745,-7.0102,-6.8655,-6.7202,-6.5585,-6.5229,-6.4797,-6.2023,-6.2433,-6.3119,-6.1087,-6.0517,-6.0236,-5.9368,-5.9184,-5.8744,-5.7152,-5.6198,-5.539,-5.4546,-5.2417,0.0,0.0,0.0,0.0,0.0,0.0,0.0,0.0,0.0,0.0,0.0,-4.3515,-4.3515,-4.3515,-4.4195,0.0,0.0,-4.6599,-4.7406,-4.8233,-4.8343,-4.8783,-4.9647,-5.0472,-5.1242,-5.205,-5.2821,-5.3203,-5.3203,-5.3203,-5.3203,-5.3203,-5.3203,-5.3203,-5.3203,-5.3203,-5.3203,-5.3314,-5.4106,-5.4436,-5.462,-5.5354,-5.6638,-5.7997,-5.9088,-5.9896,-6.0473,-6.0473,-6.1012,-6.2166,-6.4282,-6.9283,-7.5707,-8.3785,-8.9825,-9.5326,-10.0404,-10.1712,-10.1597,-9.9904,-9.8788,-9.6442,-9.2326,-8.9671,-8.7055,-8.4247,-7.9477,-7.6476,-7.5592,-6.959,-6.5436,-6.3281,-5.9935,-5.7857,-5.6983,-5.6088,-5.5703,-5.5742,-5.6819,-5.7934,-5.9127,-6.1897,-6.5282,-6.8898,-7.0552,-7.1898,-7.2706,-7.1398,-7.2129,-7.363,-7.2129,-7.0783,-6.9783,-7.0206,-6.9898,-6.9229,-6.8403,-6.7468,-6.6455,-6.5233,-6.4512,-6.4065,-6.3957,-6.3947,-6.3811,-6.3051,-6.205,-6.0933,-5.9515,-5.9184,-5.8744,-5.7152,-5.6638,-5.6051,-5.4656,-5.2417,-5.0802,0.0,0.0,0.0,0.0,0.0,0.0,-4.5259,0.0,0.0,0.0,-4.3515,-4.3515,-4.3515,-4.3681,-4.4158,-4.4966,-4.5773,-4.6581,-4.7369,-4.86,-4.9664,-5.0472,-5.1279,-5.2087,-5.2894,-5.3093,-5.3203,-5.3203,-5.3203,-5.3203,-5.3203,-5.3203,-5.3203,-5.3203,-5.3203,-5.3555,-5.4106,-5.4326,-5.5133,-5.6235,-5.6418,-5.7116,-5.7997,-5.9473,-6.1089,-6.2243,-6.1512,-6.4128,-6.6705,-6.7744,-7.0975,-7.6092,-8.3978,-9.0517,-9.5249,-9.7365,-10.0712,-10.1904,-9.9712,-9.8711,-9.6826,-9.3557,-9.2595,-9.0748,-8.7709,-8.4247,-8.1362,-7.9131,-7.2668,-6.7782,-6.4589,-6.0704,-5.8204,-5.6983,-5.6088,-5.5703,0.0,-5.6214,-5.7126,-5.8511,-6.1781,-6.5436,-6.9052,-7.0014,-7.0975,0.0,-7.0744,-7.0744,-7.1129,-7.0167,-6.9436,-6.8936,-6.8667,-6.8328,-6.7889,-6.6841,-6.6531,-6.6255,-6.4748,-6.4428,-6.4569,-6.4095,-6.3763,-6.3419,-6.2905,-6.1919,-6.075,-5.9478,-5.9184,-5.8817,-5.7593,-5.6785,-5.6014,-5.5097,-5.2931,-5.1096,0.0,0.0,0.0,0.0,0.0,0.0,0.0,-4.5516,0.0,-4.4085,-4.3718,-4.3515,-4.3515,-4.3515,-4.4011,0.0,-4.5663,-4.6434,-4.759,-4.926,-5.0325,-5.0802,-5.194,-5.2747,-5.3203,-5.3203,-5.3203,-5.3203,-5.3203,-5.3203,-5.3203,-5.3203,-5.3203,-5.3203,-5.3203,-5.3665,-5.4473,-5.517,-5.6235,-5.7336,-5.7336,-5.7593,-5.7997,-5.9819,-6.2243,-6.3897,-6.2216,-6.8052,-7.3014,-7.3014,-7.5014,-7.8438,-8.3708,-9.021,-9.3749,-9.221,-9.7403,-10.0289,-9.8634,-9.7865,-9.5903,-9.2133,-9.3826,-9.2633,-8.7325,-8.7401,-8.5401,-8.0746,-7.5091,-6.9975,-6.5436,-6.1358,-5.8588,-5.7137,-5.6165,0.0,0.0,0.0,0.0,0.0,-6.2627,-6.6205,-6.9052,-6.9398,-6.959,-6.9706,-6.959,-6.9052,-6.8385,-6.8191,-6.8638,-6.9023,-6.7524,-6.7093,-6.694,-6.5476,-6.5624,-6.597,-6.414,-6.4428,-6.4985,-6.3125,-6.2585,-6.2328,-6.163,-6.086,-6.0052,-5.9368,-5.9111,-5.8841,-5.8143,-5.6712,-5.5596,-5.5596,-5.3628,-5.1483,0.0,0.0,0.0,-4.7259,0.0,0.0,0.0,0.0,0.0,0.0,0.0,0.0,-4.3515,-4.3515,-4.4158,0.0,-4.5847,-4.6581,-4.8122,-4.9884,-5.0839,-5.0949,-5.2454,-5.324,-5.3371,-5.324,-5.3203,-5.3203,-5.3203,-5.3203,-5.3203,-5.3203,-5.324,-5.3371,-5.3371,-5.3885,-5.4876,-5.6381,-5.7373,-5.7997,-5.7997,-5.7997,-5.7997,-6.0589,-6.2166,-6.3012,-6.132,-6.6205,-7.1937,-7.6669,-8.2439,-8.6863,-8.8594,-9.4095,-9.7519,-9.6519,-9.8096,-9.8557,-9.6865,-9.7211,-9.6903,-9.5518,-9.5134,-9.421,-9.2441,-8.9863,-8.7363,-8.5055,-7.6592,-7.1398,-6.9783,-6.2204,-5.8357,-5.805,-5.6434,-5.5703,0.0,0.0,0.0,-5.7522,-6.1743,-6.4282,-6.5667,-6.7782,-6.9052,-6.9629,-6.8898,-6.8552,-6.8281,-6.7163,-6.685,-6.6926,-6.6621,-6.5813,-6.4896,-6.4631,-6.4161,-6.3729,-6.3654,-6.2848,-6.2033,-6.1861,-6.1337,-6.0786,-6.0639,-6.0015,-5.9368,-5.9221,-5.8694,-5.818,-5.8033,-5.6712,-5.5596,-5.5596,-5.3628,-5.1483,-4.9867,-4.9353,-4.8893,-4.8196,0.0,0.0,0.0,0.0,-4.6819,0.0,0.0,0.0,0.0,0.0,-4.3901,-4.4856,-4.5553,-4.6324,-4.7259,-4.9591,-5.1132,-5.1756,-5.2747,-5.3555,-5.4179,-5.3518,-5.3203,-5.3203,-5.3203,-5.3203,-5.3203,-5.3203,-5.3592,-5.4179,-5.4179,-5.506,-5.6492,-5.7409,-5.7886,-5.7997,-5.7997,-5.7997,-5.7997,-6.3974,-6.4705,-6.5705,-6.7128,-7.2283,-7.7784,-8.2401,-8.8556,-9.1672,-8.8979,-9.1864,-9.371,-9.2402,-9.5788,-9.7634,-9.6403,-9.6634,-9.6519,-9.5672,-9.5211,-9.421,-9.2479,-9.0017,-8.7671,-8.5517,-7.7207,-7.2014,-7.0283,-6.2666,-5.8473,-5.7588,-5.628,-5.5703,-5.5703,0.0,-5.6857,0.0,-6.1243,-6.3435,-6.4782,-6.6898,-6.7975,-6.8321,-6.7898,-6.7744,-6.7551,-6.6208,-6.558,-6.5355,-6.5338,-6.4445,-6.3341,-6.3341,-6.2798,-6.2078,-6.1968,-6.1589,-6.1177,-6.1027,-6.0382,-5.9795,-5.9795,-5.9171,-5.8584,-5.8584,-5.829,-5.7886,-5.7446,-5.6418,-5.5317,-5.4509,-5.3041,-5.161,-5.0398,-4.9867,-4.9317,-4.8416,0.0,-4.8306,0.0,0.0,0.0,0.0,0.0,0.0,0.0,0.0,-4.4011,-4.5259,-4.57,-4.6654,-4.8343,-5.0362,-5.161,-5.1977,-5.3225,-5.3812,-5.3775,-5.3408,-5.3203,-5.3203,-5.3628,-5.3812,-5.3849,-5.4252,-5.4656,-5.506,-5.5464,-5.6124,-5.6895,-5.7703,-5.7997,-5.7997,-5.7997,-5.7997,-5.7997,-6.7705,-6.8321,-6.9937,-7.3899,-7.9438,-8.4286,-8.6978,-9.2479,-9.4595,-8.9902,-9.0441,-9.0748,-8.944,-9.3903,-9.6711,-9.6095,-9.5865,-9.5441,-9.4749,-9.4364,-9.3287,-9.1287,-8.9248,-8.7132,-8.4939,-7.7592,-7.2514,-6.9937,-6.3281,-5.9204,-5.7522,-5.6472,-5.5857,-5.5742,-5.6406,-5.7203,-5.8204,-6.0742,-6.2781,-6.4474,-6.6167,-6.6936,-6.709,-6.6898,-6.6782,-6.6521,-6.5359,-6.4547,-6.3935,-6.3836,-6.2986,-6.2004,-6.219,-6.1558,-6.0729,-6.0451,-6.0439,-6.0469,-6.0231,-5.9575,-5.8927,-5.8927,-5.8474,-5.796,-5.7776,-5.774,-5.7519,-5.6712,-5.5904,-5.4913,-5.3482,-5.2674,-5.1977,-5.1206,-5.0362,-4.9554,-4.871,0.0,-4.8306,0.0,0.0,0.0,-4.7406,0.0,0.0,0.0,0.0,-4.4635,-4.6067,-4.6177,-4.7205,-4.9537,-5.1006,-5.1903,-5.2234,-5.3518,-5.3922,-5.3445,-5.3277,-5.3277,-5.3482,-5.4106,-5.4473,-5.4693,-5.5317,-5.5684,-5.5904,-5.6712,-5.7079,-5.7116,-5.774,-5.7997,-5.7997,-5.7997,-5.7997,-5.7997,-7.0244,-7.2399,-7.4861,-7.7553,-8.2939,-8.7017,-8.7363,-9.2479,-9.6095,-9.5557,-9.5595,-9.5634,-9.548,-9.5326,-9.5211,-9.5134,-9.4403,-9.3903,-9.3826,-9.2402,-9.1441,-9.121,-8.8094,-8.5901,-8.4939,-7.813,-7.336,-7.0783,-6.4782,-6.0973,-5.9242,-5.7627,-5.6445,-5.5703,-5.578,-5.6329,-5.7291,-5.9819,-6.1897,-6.3589,-6.532,-6.6436,-6.7013,-6.6282,-6.5698,-6.5229,-6.4664,-6.365,-6.2497,-6.2013,-6.1298,-6.0735,-6.1434,-6.0625,-5.9535,-6.0199,-5.9402,-5.8433,-5.9134,-5.8731,-5.8107,-5.8107,-5.807,-5.7813,-5.7079,-5.6932,-5.6675,-5.5868,-5.506,-5.4252,-5.3371,-5.3151,-5.2821,-5.2013,-5.1206,-5.0398,-4.961,0.0,-4.8306,-4.8306,0.0,0.0,-4.8196,-4.6874,0.0,0.0,-4.614,-4.6067,-4.6929,-4.7003,-4.7792,-4.9537,-5.0435,-5.161,-5.3057,-5.3261,-5.3665,-5.4289,-5.3555,-5.3592,-5.4289,-5.4363,-5.4803,-5.5486,-5.5596,-5.6014,-5.6748,-5.7556,-5.7886,-5.7886,-5.796,-5.7997,-5.7997,-5.7997,-5.7997,-5.7997,-7.6015,-7.7053,-7.9208,-8.3824,-8.617,-8.8594,-9.2172,-9.4788,-9.6288,-9.6288,-9.6288,-9.6095,-9.5557,-9.5211,-9.4788,-9.4249,-9.3903,-9.348,-9.3018,-9.2364,-9.1287,-8.9748,-8.7401,-8.5478,-8.4132,-7.8977,-7.4514,-7.0898,-6.6513,-6.2704,-5.9473,-5.8319,-5.7588,-5.728,-5.778,-5.8165,-5.8665,-6.1204,-6.2704,-6.3474,-6.5205,-6.609,-6.632,-6.6013,-6.5569,-6.5051,-6.4554,-6.3233,-6.1667,-6.1627,-6.075,-5.9758,-6.0052,-5.9391,-5.8547,-5.8877,-5.851,-5.807,-5.84,-5.8253,-5.7997,-5.7997,-5.7997,-5.7776,-5.6969,-5.6822,-5.6455,-5.5133,-5.4252,-5.3592,-5.324,-5.3203,-5.2784,-5.1499,-5.1022,-5.0325,-4.9003,0.0,0.0,-4.8306,0.0,-4.8306,0.0,-4.7719,-4.7462,0.0,-4.6177,-4.5718,-4.7039,-4.7113,-4.8067,-5.0251,-5.0618,-5.1573,-5.3167,-5.3203,-5.3371,-5.3702,-5.3849,-5.4106,-5.4436,-5.539,-5.6271,-5.7042,-5.7042,-5.7226,-5.7556,-5.7886,-5.7997,-5.7997,-5.7997,-5.7997,-5.7997,-5.7997,-5.7997,-5.7997,-8.167,-8.2016,-8.3939,-8.9902,-9.021,-9.1133,-9.5634,-9.6288,-9.6288,-9.6288,-9.6095,-9.5788,-9.5403,-9.4903,-9.4364,-9.3749,-9.3249,-9.2633,-9.1787,-9.1518,-9.0364,-8.8017,-8.6286,-8.467,-8.3247,-7.9554,-7.5784,-7.2014,-6.8667,-6.4936,-6.0973,-5.9665,-5.8896,-5.8704,-5.9511,-6.0012,-6.0396,-6.2435,-6.3474,-6.382,-6.5282,-6.5897,-6.5885,-6.5717,-6.5168,-6.4491,-6.4257,-6.2616,-6.0685,-6.1077,-6.0199,-5.8914,-5.9111,-5.8657,-5.7997,-5.7997,-5.7997,-5.7997,-5.7997,-5.7997,-5.7997,-5.7997,-5.7997,-5.774,-5.6675,-5.6455,-5.5978,-5.4399,-5.3592,-5.3203,-5.3203,-5.3203,-5.2747,-5.1389,-5.0949,-5.0288,-4.8893,-4.8453,0.0,-4.8306,-4.8306,-4.8306,-4.8306,-4.8086,0.0,-4.8269,-4.6489,-4.6012,-4.7369,-4.7443,-4.847,-5.0729,-5.0802,-5.1573,-5.3167,-5.3203,-5.3314,-5.3555,-5.4142,-5.4656,-5.517,-5.6528,-5.7446,-5.7997,-5.7997,-5.7997,-5.7997,-5.7997,-5.7997,-5.7997,-5.7997,-5.7997,-5.7997,-5.7997,-5.7997,-5.7997,-8.6478,-8.7325,-8.9171,-9.5172,-9.548,-9.5211,-9.6172,-9.6288,-9.6288,-9.6288,-9.5557,-9.5326,-9.6172,-9.4749,-9.371,-9.371,-9.2172,-9.0864,-8.9979,-8.9171,-8.794,-8.6209,-8.4516,-8.3208,-8.2324,-7.9785,-7.7246,-7.4668,-7.1321,-6.7898,-6.4474,-6.1935,-6.0319,-5.9511,-6.0396,-6.1243,-6.2139,-6.2935,-6.382,-6.4666,-6.5551,-6.5897,-6.5821,-6.5306,-6.4284,-6.3163,-6.3509,-6.1729,-5.9355,-6.0162,-5.9355,-5.8143,-5.8927,-5.8657,-5.7997,-5.7997,-5.7997,-5.7997,-5.7997,-5.7997,-5.7997,-5.7997,-5.7997,-5.7556,-5.6,-5.5611,-5.5133,-5.3555,-5.3203,-5.3203,-5.3203,-5.3203,-5.2931,-5.2123,-5.1316,-5.0508,-4.9721,-4.882,0.0,-4.8306,-4.8306,-4.8306,-4.8306,-4.759,0.0,-4.8233,-4.7516,-4.7443,-4.8233,-4.8306,-4.9077,-5.0765,-5.0802,-5.1573,-5.3167,-5.3203,-5.3592,-5.4399,-5.4399,-5.5244,-5.6822,-5.7593,-5.7997,-5.7997,-5.7997,-5.7997,-5.7997,-5.7997,-5.7997,-5.7997,-5.7997,-5.7997,-5.7997,-5.7997,-5.7997,-5.7997,-8.7902,-8.9671,-9.1633,-9.4095,-9.4287,-9.4403,-9.5288,-9.4903,-9.4518,-9.4518,-9.4287,-9.421,-9.448,-9.3557,-9.2633,-9.2056,-9.0979,-9.021,-8.994,-8.8594,-8.7286,-8.617,-8.4478,-8.317,-8.2324,-8.0977,-7.8438,-7.4707,-7.3091,-6.9975,-6.5474,-6.4051,-6.3243,-6.2974,-6.3281,-6.3858,-6.4705,-6.4974,-6.5551,-6.6269,-6.5604,-6.5335,-6.5291,-6.4799,-6.4105,-6.3455,-6.3562,-6.2433,-6.0786,-6.0493,-5.9722,-5.8767,-5.8474,-5.8217,-5.7997,-5.7997,-5.7997,-5.7997,-5.7997,-5.7997,-5.7997,-5.7997,-5.7997,-5.7556,-5.5978,-5.473,-5.3812,-5.3314,-5.3203,-5.3203,-5.3203,-5.2747,-5.2123,-5.1316,-5.0508,-4.9664,-4.882,-4.8489,-4.8306,-4.8306,-4.8306,-4.8306,-4.8306,-4.8086,-4.7993,-4.8269,-4.8086,-4.8049,-4.8306,-4.8857,-4.9664,-5.0765,-5.1316,-5.2123,-5.3167,-5.3203,-5.3592,-5.4399,-5.495,-5.6051,-5.7629,-5.7886,-5.7997,-5.7997,-5.7997,-5.7997,-5.7997,-5.7997,-5.7997,-5.7997,-5.7997,-5.7997,-5.7997,-5.7997,-5.7997,-5.7997,-8.9902,-9.1133,-9.2364,-9.348,-9.3441,-9.3518,-9.4364,-9.3787,-9.3364,-9.3672,-9.2864,-9.2402,-9.271,-9.1748,-9.1095,-9.121,-9.0133,-8.9171,-8.8517,-8.7478,-8.6247,-8.4747,-8.367,-8.2708,-8.1862,-8.1054,-7.9131,-7.613,-7.4014,-7.0898,-6.6821,-6.6282,-6.5859,-6.5551,-6.5897,-6.632,-6.6821,-6.6474,-6.6628,-6.6987,-6.565,-6.5099,-6.5035,-6.4351,-6.3688,-6.3162,-6.3251,-6.2187,-6.0676,-6.0456,-5.9685,-5.8657,-5.8143,-5.7997,-5.7997,-5.7997,-5.7997,-5.7997,-5.7997,-5.7997,-5.7997,-5.7997,-5.7997,-5.7556,-5.5978,-5.4583,-5.3555,-5.324,-5.3203,-5.3203,-5.3203,-5.2784,-5.2087,-5.0986,-5.0362,-4.9627,-4.8489,-4.8306,-4.8306,-4.8306,-4.8306,-4.8306,-4.8306,-4.8306,-4.8306,-4.8306,-4.86,-4.8783,-4.8783,-4.9317,-5.0124,-5.1206,-5.172,-5.238,-5.3167,-5.3518,-5.4069,-5.484,-5.5978,-5.7042,-5.7997,-5.7997,-5.7997,-5.7997,-5.7997,-5.7997,-5.7997,-5.7997,-5.7997,-5.7997,-5.7997,-5.7997,-5.7997,-5.7997,-5.7997,-5.7997,-9.1825,-9.1595,-9.1633,-9.3249,-9.2864,-9.2595,-9.3403,-9.2787,-9.2479,-9.3249,-9.1287,-9.0094,-9.0864,-8.9479,-8.9133,-9.0633,-8.9402,-8.7825,-8.6132,-8.5901,-8.4786,-8.2401,-8.2247,-8.1862,-8.1131,-8.0323,-7.94,-7.84,-7.4361,-7.1091,-6.8667,-6.859,-6.8129,-6.7321,-6.809,-6.8423,-6.8436,-6.7513,-6.7128,-6.7064,-6.562,-6.5067,-6.4932,-6.3917,-6.3081,-6.2479,-6.2732,-6.1349,-5.9551,-6.0199,-5.9391,-5.8143,-5.8033,-5.7997,-5.7997,-5.7997,-5.7997,-5.7997,-5.7997,-5.7997,-5.7997,-5.7997,-5.796,-5.7519,-5.6014,-5.5023,-5.4179,-5.3445,-5.3261,-5.3203,-5.3203,-5.313,-5.2637,-5.1059,-5.0765,-5.0141,-4.8526,-4.8306,-4.8306,-4.8306,-4.8306,-4.8343,-4.8379,-4.8379,-4.8416,-4.8489,-4.9224,-4.9721,-4.9757,-4.9757,-5.0455,-5.194,-5.205,-5.2454,-5.3298,-5.4032,-5.484,-5.5684,-5.7262,-5.7997,-5.7997,-5.7997,-5.7997,-5.7997,-5.7997,-5.7997,-5.7997,-5.7997,-5.7997,-5.7997,-5.7997,-5.7997,-5.7997,-5.7997,-5.7997,-5.7997,-8.8517,-8.9479,-9.0556,-9.1595,-9.1095,-9.0787,-9.1672,-9.0556,-8.9671,-8.9863,-8.9363,-8.8825,-8.8363,-8.7363,-8.6632,-8.6401,-8.6594,-8.6286,-8.5247,-8.3939,-8.2939,-8.2324,-8.1708,-8.1285,-8.1093,-8.09,-7.9746,-7.7592,-7.5245,-7.3129,-7.1283,-7.0629,-6.986,-6.9052,-6.859,-6.8783,-6.9283,-6.7744,-6.7475,-6.7883,-6.553,-6.4554,-6.4444,-6.3408,-6.2879,-6.2708,-6.2781,-6.2413,-6.1789,-6.075,-6.0162,-5.9612,-5.84,-5.7997,-5.7997,-5.7997,-5.7997,-5.7997,-5.7997,-5.7997,-5.7997,-5.7997,-5.7556,-5.6969,-5.6602,-5.5427,-5.4363,-5.4179,-5.3628,-5.3203,-5.3203,-5.2711,-5.194,-5.0949,-5.0288,-4.9517,-4.8453,-4.8306,-4.8306,-4.8306,-4.8306,-4.8563,-4.9224,-4.9297,-4.9554,-5.0178,-5.0398,-5.0765,-5.1389,-5.1426,-5.163,-5.1977,-5.2601,-5.3298,-5.4106,-5.4289,-5.5097,-5.6528,-5.7519,-5.7997,-5.7997,-5.7997,-5.7997,-5.7997,-5.7997,-5.7997,-5.7997,-5.7997,-5.7997,-5.7997,-5.7997,-5.7997,-5.7997,-5.7997,-5.7997,-5.8107,-8.7825,-8.8402,-8.9017,-8.9902,-8.9671,-8.9517,-8.9979,-8.894,-8.8094,-8.8094,-8.744,-8.6786,-8.6324,-8.5478,-8.4632,-8.3785,-8.4478,-8.4593,-8.3785,-8.2824,-8.2131,-8.1785,-8.1323,-8.1093,-8.1093,-8.0708,-7.9438,-7.7284,-7.5938,-7.463,-7.3322,-7.2476,-7.1629,-7.0783,-6.9937,-6.9821,-7.0167,-6.8859,-6.8321,-6.8229,-6.614,-6.4969,-6.4294,-6.3498,-6.3014,-6.278,-6.278,-6.2585,-6.2108,-6.1227,-6.0456,-5.9758,-5.9281,-5.8584,-5.807,-5.8437,-5.829,-5.7997,-5.7997,-5.7997,-5.7997,-5.7997,-5.7666,-5.7262,-5.6895,-5.5831,-5.484,-5.4473,-5.3775,-5.3203,-5.3203,-5.2858,-5.216,-5.0986,-5.0435,-4.9701,-4.8489,-4.8306,-4.8453,-4.8857,-4.8893,-4.9224,-5.0068,-5.0141,-5.0325,-5.0765,-5.1132,-5.1536,-5.1977,-5.2344,-5.2564,-5.2564,-5.3335,-5.3959,-5.4399,-5.5133,-5.6124,-5.7336,-5.7776,-5.7997,-5.7997,-5.7997,-5.7997,-5.7997,-5.7997,-5.7997,-5.7997,-5.7997,-5.8217,-5.851,-5.8143,-5.8437,-5.9061,-5.8694,-5.8767,-5.9171,-8.7632,-8.744,-8.7286,-8.8171,-8.8209,-8.8171,-8.8286,-8.744,-8.6824,-8.6824,-8.5593,-8.467,-8.4516,-8.3862,-8.3054,-8.217,-8.2785,-8.2901,-8.217,-8.2131,-8.1823,-8.1131,-8.1093,-8.1054,-8.09,-7.9939,-7.8746,-7.7284,-7.6438,-7.5553,-7.4668,-7.3899,-7.3014,-7.2168,-7.1283,-7.0898,-7.086,-7.0052,-6.9206,-6.8281,-6.695,-6.5614,-6.4332,-6.3808,-6.3285,-6.278,-6.278,-6.2365,-6.1741,-6.163,-6.0676,-5.9685,-6.0236,-5.9391,-5.8327,-5.9001,-5.8621,-5.7997,-5.7997,-5.7997,-5.7997,-5.7997,-5.7997,-5.7813,-5.7152,-5.6345,-5.5574,-5.4913,-5.4032,-5.3408,-5.3408,-5.3277,-5.2674,-5.1059,-5.0802,-5.0215,-4.8526,-4.8416,-4.8746,-4.95,-4.9721,-5.0124,-5.0912,-5.1096,-5.1206,-5.1316,-5.1977,-5.2344,-5.2344,-5.2894,-5.324,-5.3408,-5.4032,-5.4509,-5.4766,-5.6235,-5.7336,-5.7997,-5.7997,-5.7997,-5.7997,-5.7997,-5.7997,-5.7997,-5.7997,-5.7997,-5.7997,-5.7997,-5.84,-5.8964,-5.84,-5.9024,-6.0162,-5.9588,-5.9832,-6.0419,-8.4324,-8.4863,-8.5555,-8.6363,-8.594,-8.5709,-8.6401,-8.517,-8.417,-8.417,-8.3939,-8.3516,-8.2785,-8.2593,-8.217,-8.1362,-8.14,-8.1439,-8.1285,-8.1285,-8.1246,-8.1093,-8.1093,-8.0746,-8.0015,-7.8477,-7.7553,-7.7284,-7.6438,-7.5553,-7.4668,-7.3899,-7.3014,-7.2168,-7.1283,-7.0898,-7.086,-7.0052,-6.9206,-6.8281,-6.695,-6.5614,-6.4332,-6.3808,-6.3285,-6.278,-6.278,-6.2707,-6.2511,-6.1814,-6.141,-6.1117,-6.0566,-5.9758,-5.9038,-5.9148,-5.8621,-5.7997,-5.7997,-5.7997,-5.7997,-5.7997,-5.7997,-5.796,-5.785,-5.7189,-5.6602,-5.6455,-5.5244,-5.4216,-5.4216,-5.3665,-5.2674,-5.1059,-5.0802,-5.0215,-4.8526,-4.8893,-4.937,-4.9574,-5.0178,-5.0912,-5.172,-5.2417,-5.3115,-5.3775,-5.3959,-5.4032,-5.4032,-5.3518,-5.3518,-5.4179,-5.4326,-5.506,-5.6418,-5.7336,-5.7886,-5.7997,-5.7997,-5.7997,-5.7997,-5.7997,-5.7997,-5.7997,-5.7997,-5.7997,-5.7997,-5.7997,-5.807,-5.8253,-5.8804,-5.9148,-5.9441,-6.0015,-6.0309,-6.0493,-8.3516,-8.3555,-8.3747,-8.4593,-8.4439,-8.4324,-8.4709,-8.4093,-8.3439,-8.2939,-8.2901,-8.2593,-8.1747,-8.1631,-8.1516,-8.1131,-8.1093,-8.1093,-8.1093,-8.1093,-8.1093,-8.1093,-8.1093,-8.09,-8.0516,-7.8823,-7.7938,-7.7938,-7.663,-7.5784,-7.5361,-7.4091,-7.3283,-7.2822,-7.1514,-7.0898,-7.0898,-7.0514,-6.9442,-6.7936,-6.7293,-6.5798,-6.3954,-6.368,-6.3285,-6.278,-6.278,-6.278,-6.2743,-6.2365,-6.1961,-6.1594,-6.1667,-6.086,-5.9869,-5.9869,-5.8988,-5.7997,-5.7997,-5.7997,-5.7997,-5.7997,-5.7997,-5.7997,-5.7997,-5.7373,-5.6822,-5.6822,-5.5868,-5.4913,-5.4473,-5.4106,-5.3335,-5.172,-5.1463,-5.1022,-4.9811,-4.9958,-5.0362,-5.0859,-5.1206,-5.1756,-5.2564,-5.3371,-5.3995,-5.4363,-5.4803,-5.506,-5.506,-5.4693,-5.4876,-5.5684,-5.5684,-5.6271,-5.7446,-5.7813,-5.7997,-5.7997,-5.7997,-5.7997,-5.7997,-5.7997,-5.7997,-5.7997,-5.7997,-5.7997,-5.7997,-5.7997,-5.851,-5.9281,-5.9221,-5.9992,-6.1129,-6.108,-6.1337,-6.1741,-8.2901,-8.2477,-8.2285,-8.3131,-8.3131,-8.3093,-8.3247,-8.3131,-8.2785,-8.2093,-8.2016,-8.1785,-8.117,-8.1093,-8.1093,-8.1093,-8.1093,-8.1093,-8.1093,-8.1093,-8.1093,-8.1093,-8.09,-8.0785,-8.0785,-7.9092,-7.8207,-7.8207,-7.6746,-7.6015,-7.5976,-7.4476,-7.3668,-7.3423,-7.1898,-7.1091,-7.0898,-7.0898,-6.961,-6.7594,-6.7594,-6.5973,-6.3609,-6.3609,-6.3285,-6.278,-6.278,-6.278,-6.278,-6.278,-6.2401,-6.1998,-6.2622,-6.1814,-6.0639,-6.0456,-5.9245,-5.7997,-5.7997,-5.7997,-5.7997,-5.7997,-5.7997,-5.7997,-5.7997,-5.7519,-5.7079,-5.7079,-5.6455,-5.5684,-5.506,-5.4656,-5.3922,-5.2491,-5.2123,-5.172,-5.0912,-5.0949,-5.1316,-5.194,-5.2307,-5.2784,-5.3445,-5.4399,-5.495,-5.495,-5.5537,-5.5868,-5.5868,-5.5684,-5.5978,-5.6785,-5.6969,-5.7373,-5.7997,-5.7997,-5.7997,-5.7997,-5.7997,-5.7997,-5.7997,-5.7997,-5.7997,-5.7997,-5.7997,-5.7997,-5.7997,-5.8217,-5.9024,-6.0126,-5.9869,-6.0896,-6.2475,-6.2034,-6.2291,-6.278,-8.1285,-8.1246,-8.1439,-8.2247,-8.1785,-8.1554,-8.2285,-8.1747,-8.1246,-8.1208,-8.1208,-8.117,-8.1093,-8.1093,-8.1093,-8.1093,-8.1093,-8.1093,-8.1093,-8.1093,-8.1093,-8.1093,-8.0323,-7.99,-7.99,-7.8246,-7.74,-7.74,-7.6476,-7.6015,-7.5976,-7.5053,-7.4207,-7.3476,-7.2514,-7.1668,-7.0898,-7.0898,-6.961,-6.7594,-6.7594,-6.5973,-6.3609,-6.3609,-6.3285,-6.278,-6.278,-6.278,-6.278,-6.278,-6.2768,-6.2707,-6.278,-6.2218,-6.1374,-6.0639,-5.9245,-5.7997,-5.7997,-5.7997,-5.7997,-5.7997,-5.7997,-5.7997,-5.7997,-5.796,-5.7923,-5.7923,-5.7262,-5.6712,-5.6638,-5.539,-5.4106,-5.3261,-5.2491,-5.172,-5.0912,-5.1426,-5.194,-5.1977,-5.3298,-5.4252,-5.4326,-5.5721,-5.6638,-5.6638,-5.6675,-5.6712,-5.6712,-5.5978,-5.5978,-5.6785,-5.7519,-5.7923,-5.7997,-5.7997,-5.7997,-5.7997,-5.7997,-5.7997,-5.7997,-5.7997,-5.7997,-5.7997,-5.7997,-5.7997,-5.807,-5.8781,-5.9184,-5.9404,-6.086,-6.152,-6.1777,-6.2475,-6.2743,-6.278,-8.1093,-8.1093,-8.1208,-8.1516,-8.1285,-8.1208,-8.1516,-8.1285,-8.1093,-8.1093,-8.1093,-8.1093,-8.1093,-8.1093,-8.1093,-8.1093,-8.1093,-8.1093,-8.1093,-8.1093,-8.1093,-8.1093,-8.0785,-8.0362,-7.9823,-7.8631,-7.7784,-7.7284,-7.6438,-7.6015,-7.5976,-7.513,-7.4553,-7.4168,-7.2822,-7.2014,-7.1654,-7.0769,-6.9463,-6.7826,-6.6991,-6.5842,-6.4512,-6.3503,-6.3628,-6.431,-6.3796,-6.3943,-6.4347,-6.4347,-6.4016,-6.3613,-6.3613,-6.3025,-6.2181,-6.1374,-6.0015,-5.8767,-5.8767,-5.84,-5.7997,-5.7997,-5.7997,-5.7997,-5.7997,-5.7997,-5.7997,-5.7997,-5.7776,-5.7409,-5.6895,-5.6308,-5.5611,-5.4803,-5.4436,-5.4106,-5.3812,-5.4032,-5.4216,-5.4216,-5.4766,-5.5133,-5.5133,-5.6161,-5.6822,-5.6822,-5.7262,-5.7556,-5.7556,-5.7262,-5.7226,-5.7519,-5.785,-5.7997,-5.7997,-5.7997,-5.7997,-5.7997,-5.7997,-5.7997,-5.8033,-5.851,-5.8767,-5.8767,-5.9281,-5.9501,-5.9501,-5.9832,-6.0236,-6.075,-6.1374,-6.1887,-6.2401,-6.2695,-6.278,-6.278,-8.1093,-8.1093,-8.1093,-8.1093,-8.1093,-8.1093,-8.1093,-8.1093,-8.1093,-8.1093,-8.1093,-8.1093,-8.1093,-8.1093,-8.1093,-8.1093,-8.1093,-8.1093,-8.1093,-8.1093,-8.1093,-8.1093,-8.1093,-8.0823,-8.0208,-7.9092,-7.8222,-7.7669,-7.6553,-7.6015,-7.5976,-7.5399,-7.4976,-7.463,-7.3245,-7.2476,-7.2115,-7.0892,-6.9479,-6.803,-6.7096,-6.6128,-6.5191,-6.4016,-6.431,-6.5228,-6.4677,-6.4824,-6.5301,-6.5301,-6.4934,-6.442,-6.4163,-6.3319,-6.2328,-6.1741,-6.0639,-5.9515,-5.9258,-5.8804,-5.8327,-5.807,-5.7997,-5.7997,-5.7997,-5.7997,-5.7997,-5.7997,-5.7997,-5.7813,-5.7299,-5.6969,-5.6638,-5.6051,-5.5757,-5.5596,-5.5596,-5.5596,-5.5596,-5.5596,-5.5794,-5.5978,-5.5978,-5.6712,-5.7189,-5.7189,-5.7703,-5.7997,-5.7997,-5.7997,-5.7997,-5.7997,-5.7997,-5.7997,-5.7997,-5.7997,-5.7997,-5.7997,-5.8253,-5.84,-5.84,-5.9208,-5.9588,-5.9588,-6.0162,-6.0419,-6.0419,-6.0676,-6.108,-6.163,-6.1887,-6.2328,-6.278,-6.278,-6.278,-6.278,-8.1093,-8.1093,-8.1093,-8.1093,-8.1093,-8.1093,-8.1093,-8.1093,-8.1093,-8.1093,-8.1093,-8.1093,-8.1093,-8.1093,-8.1093,-8.1093,-8.1093,-8.1093,-8.1093,-8.1093,-8.1093,-8.1093,-8.1093,-8.1093,-8.1093,-7.94,-7.8477,-7.8477,-7.6823,-7.6015,-7.6015,-7.6015,-7.5553,-7.4668,-7.386,-7.3014,-7.2129,-7.1283,-6.9801,-6.8107,-6.8107,-6.7001,-6.5338,-6.5301,-6.5301,-6.5338,-6.5301,-6.5301,-6.5338,-6.5338,-6.5301,-6.5191,-6.4347,-6.2952,-6.163,-6.1594,-6.1043,-6.0236,-5.9441,-5.9184,-5.9001,-5.8217,-5.7997,-5.7997,-5.7997,-5.7997,-5.7997,-5.7997,-5.7997,-5.7997,-5.7997,-5.7336,-5.6822,-5.6822,-5.6124,-5.5611,-5.5611,-5.5611,-5.5611,-5.5611,-5.6308,-5.6822,-5.6822,-5.7519,-5.7997,-5.7997,-5.7997,-5.7997,-5.7997,-5.7997,-5.7997,-5.7997,-5.7997,-5.7997,-5.7997,-5.7997,-5.7997,-5.7997,-5.8841,-5.9184,-5.9221,-6.0052,-6.0419,-6.0419,-6.0419,-6.0419,-6.0493,-6.1263,-6.1594,-6.1704,-6.2511,-6.278,-6.278,-6.278,-6.278,-6.278,-8.1093,-8.1093,-8.1093,-8.1093,-8.1093,-8.1093,-8.1093,-8.1093,-8.1093,-8.1093,-8.1093,-8.1093,-8.1093,-8.1093,-8.1093,-8.1093,-8.1093,-8.1093,-8.1093,-8.1093,-8.1093,-8.1093,-8.1093,-8.0823,-8.0208,-7.9092,-7.8477,-7.8477,-7.6823,-7.6322,-7.6899,-7.6284,-7.5861,-7.5553,-7.4707,-7.3899,-7.3038,-7.1796,-7.0337,-6.8877,-6.7916,-6.7293,-6.6843,-6.5742,-6.5999,-6.6916,-6.6329,-6.6512,-6.699,-6.699,-6.6623,-6.5888,-6.453,-6.3759,-6.3209,-6.2622,-6.1887,-6.119,-6.0933,-6.0456,-5.9722,-5.8327,-5.7997,-5.7997,-5.7997,-5.7997,-5.7997,-5.7997,-5.7997,-5.7997,-5.7997,-5.7813,-5.7629,-5.7629,-5.7446,-5.7262,-5.7262,-5.7262,-5.7262,-5.7262,-5.7483,-5.7629,-5.7629,-5.785,-5.7997,-5.7997,-5.7997,-5.7997,-5.7997,-5.7997,-5.7997,-5.7997,-5.7997,-5.8253,-5.8841,-5.829,-5.7997,-5.7997,-5.8841,-5.9184,-5.9258,-6.0639,-6.1227,-6.1263,-6.1851,-6.2108,-6.2108,-6.2365,-6.2438,-6.2475,-6.2732,-6.278,-6.278,-6.278,-6.278,-6.278,-8.1093,-8.1093,-8.1093,-8.1093,-8.1093,-8.1093,-8.1093,-8.1093,-8.1093,-8.1093,-8.1093,-8.1093,-8.1093,-8.1093,-8.1093,-8.1093,-8.1093,-8.1093,-8.1093,-8.1093,-8.1093,-8.1093,-8.0785,-8.0323,-7.9823,-7.9285,-7.8669,-7.8015,-7.7015,-7.6592,-7.6784,-7.6245,-7.6015,-7.5976,-7.5091,-7.4245,-7.3409,-7.2226,-7.0913,-6.9531,-6.8516,-6.8064,-6.7897,-6.6691,-6.6843,-6.7614,-6.7136,-6.7283,-6.7687,-6.7687,-6.7173,-6.6329,-6.5338,-6.4604,-6.398,-6.3466,-6.2732,-6.1998,-6.1704,-6.1227,-6.0566,-5.9281,-5.8731,-5.8474,-5.8474,-5.8217,-5.7997,-5.7997,-5.7997,-5.7997,-5.7997,-5.7997,-5.7997,-5.7997,-5.7997,-5.7997,-5.7997,-5.7997,-5.7997,-5.7997,-5.7997,-5.7997,-5.7997,-5.7997,-5.7997,-5.7997,-5.7997,-5.7997,-5.7997,-5.7997,-5.7997,-5.7997,-5.7997,-5.84,-5.9184,-5.8731,-5.8621,-5.8951,-5.9758,-6.0162,-6.0199,-6.1484,-6.2071,-6.2108,-6.2585,-6.278,-6.278,-6.278,-6.278,-6.278,-6.278,-6.278,-6.278,-6.278,-6.278,-6.278,-8.1093,-8.1093,-8.1093,-8.1093,-8.1093,-8.1093,-8.1093,-8.1093,-8.1093,-8.1093,-8.1093,-8.1093,-8.1093,-8.1093,-8.1093,-8.1093,-8.1093,-8.1093,-8.1093,-8.1093,-8.1054,-8.0977,-8.0208,-7.9746,-7.9708,-7.9631,-7.89,-7.7515,-7.7284,-7.6823,-7.6092,-7.6053,-7.5976,-7.5861,-7.5053,-7.4207,-7.3322,-7.2552,-7.1375,-7.0061,-6.953,-6.8978,-6.844,-6.7904,-6.7687,-6.7687,-6.7687,-6.7687,-6.7687,-6.7687,-6.721,-6.6586,-6.6512,-6.5448,-6.42,-6.4127,-6.3466,-6.2658,-6.1924,-6.1704,-6.152,-6.0786,-6.0015,-5.9404,-5.9294,-5.8731,-5.8217,-5.8217,-5.8217,-5.818,-5.8107,-5.8107,-5.807,-5.7997,-5.7997,-5.7997,-5.7997,-5.7997,-5.7997,-5.7997,-5.7997,-5.7997,-5.7997,-5.7997,-5.7997,-5.7997,-5.7997,-5.8033,-5.8107,-5.8107,-5.8143,-5.8217,-5.8217,-5.8621,-5.9404,-5.9404,-5.9758,-6.0419,-6.1227,-6.1594,-6.163,-6.2438,-6.278,-6.278,-6.278,-6.278,-6.278,-6.278,-6.278,-6.278,-6.278,-6.278,-6.278,-6.278,-6.278,-6.278,-8.1093,-8.1093,-8.1093,-8.1093,-8.1093,-8.1093,-8.1093,-8.1093,-8.1093,-8.1093,-8.1093,-8.1093,-8.1093,-8.1093,-8.1093,-8.1093,-8.1093,-8.1093,-8.1093,-8.1093,-8.0785,-8.0131,-7.99,-7.9477,-7.8784,-7.8169,-7.8323,-7.9246,-7.7246,-7.6515,-7.6976,-7.6322,-7.563,-7.4976,-7.4784,-7.386,-7.2476,-7.2283,-7.1375,-7.0061,-6.953,-6.8978,-6.844,-6.7904,-6.7687,-6.7687,-6.7687,-6.7687,-6.7687,-6.7687,-6.7577,-6.732,-6.6696,-6.5815,-6.4934,-6.4273,-6.3466,-6.2768,-6.2585,-6.2548,-6.2511,-6.2328,-6.1667,-6.0896,-6.0272,-6.0015,-5.9869,-5.9869,-5.9869,-5.9685,-5.9061,-5.8927,-5.8731,-5.8107,-5.7997,-5.7997,-5.7997,-5.7997,-5.7997,-5.7997,-5.7997,-5.7997,-5.7997,-5.7997,-5.7997,-5.7997,-5.7997,-5.829,-5.8891,-5.8927,-5.9245,-5.9869,-5.9869,-6.0272,-6.108,-6.108,-6.086,-6.0419,-6.1227,-6.1594,-6.163,-6.2438,-6.278,-6.278,-6.278,-6.278,-6.278,-6.278,-6.278,-6.278,-6.278,-6.278,-6.278,-6.278,-6.278,-6.278,-8.0554,-8.0477,-8.0362,-7.9939,-8.0208,-8.0477,-8.0477,-8.0823,-8.1093,-8.1093,-8.1093,-8.1093,-8.1093,-8.1093,-8.0975,-8.0643,-8.0943,-8.0838,-8.024,-8.075,-8.0575,-7.9399,-7.9636,-7.9268,-7.8152,-7.7308,-7.7445,-7.8592,-7.7284,-7.663,-7.6669,-7.6207,-7.5515,-7.4707,-7.4707,-7.3783,-7.2206,-7.2206,-7.1516,-7.0448,-6.9883,-6.9373,-6.8803,-6.8284,-6.793,-6.7687,-6.7687,-6.7687,-6.7687,-6.7687,-6.7687,-6.7614,-6.721,-6.6256,-6.5228,-6.4787,-6.3796,-6.278,-6.278,-6.278,-6.278,-6.278,-6.2475,-6.1961,-6.1153,-6.0676,-6.0419,-6.0419,-6.0419,-6.0272,-5.9869,-5.9795,-5.9648,-5.9208,-5.9134,-5.9134,-5.9134,-5.9134,-5.9134,-5.9134,-5.8804,-5.8437,-5.8033,-5.8364,-5.8584,-5.8584,-5.8584,-5.8914,-5.9722,-5.9795,-5.9979,-6.0382,-6.0419,-6.0786,-6.1594,-6.1594,-6.1594,-6.1557,-6.1961,-6.2181,-6.2181,-6.2622,-6.278,-6.278,-6.278,-6.278,-6.278,-6.278,-6.278,-6.278,-6.278,-6.278,-6.278,-6.278,-6.278,-6.278,-7.9746,-7.9592,-7.9361,-7.8631,-7.9092,-7.9592,-7.9592,-8.0323,-8.09,-8.09,-8.1016,-8.1061,-8.0959,-8.0943,-8.0605,-7.9798,-8.0458,-8.0427,-7.9267,-8.0277,-8.0204,-7.8598,-7.925,-7.8901,-7.736,-7.6618,-7.6553,-7.7155,-7.7001,-7.6609,-7.6015,-7.5902,-7.5456,-7.4692,-7.4442,-7.3519,-7.2168,-7.1958,-7.1497,-7.0857,-7.0112,-6.9626,-6.9231,-6.859,-6.8097,-6.7687,-6.7687,-6.7687,-6.7687,-6.7687,-6.7687,-6.7677,-6.754,-6.6586,-6.5448,-6.5191,-6.4127,-6.2989,-6.2842,-6.278,-6.278,-6.278,-6.278,-6.2658,-6.1961,-6.13,-6.0823,-6.0823,-6.0823,-6.0786,-6.0639,-6.0603,-6.0566,-6.0419,-6.0419,-6.0419,-6.0419,-6.0419,-6.0419,-6.0419,-5.9832,-5.9134,-5.8474,-5.9024,-5.9404,-5.9404,-5.9404,-5.9735,-6.0566,-6.0603,-6.0676,-6.0823,-6.0823,-6.1117,-6.1777,-6.1814,-6.2144,-6.278,-6.278,-6.278,-6.278,-6.2952,-6.2952,-6.2817,-6.3074,-6.3037,-6.278,-6.2989,-6.2952,-6.278,-6.278,-6.278,-6.278,-6.278,-6.278,-6.278,-7.8861,-7.8669,-7.8631,-7.853,-7.8592,-7.8669,-7.8669,-7.94,-7.9977,-7.9977,-8.0631,-8.0871,-8.0315,-8.0259,-7.9722,-7.8419,-7.947,-7.9929,-7.9244,-7.9847,-7.9263,-7.7068,-7.831,-7.8027,-7.5842,-7.5707,-7.5921,-7.6535,-7.5771,-7.5595,-7.6015,-7.5463,-7.5058,-7.4654,-7.344,-7.2646,-7.2115,-7.0891,-7.0593,-7.0777,-6.9313,-6.8935,-6.919,-6.8185,-6.7757,-6.7687,-6.7687,-6.7687,-6.7687,-6.7687,-6.7687,-6.7577,-6.688,-6.6512,-6.6072,-6.4677,-6.409,-6.3759,-6.3025,-6.278,-6.278,-6.278,-6.278,-6.2743,-6.2658,-6.2548,-6.245,-6.245,-6.245,-6.2254,-6.1557,-6.1447,-6.119,-6.0529,-6.0419,-6.0419,-6.0419,-6.0419,-6.0419,-6.0419,-6.0309,-6.0199,-6.0089,-6.0162,-6.0236,-6.0236,-6.0236,-6.0603,-6.1374,-6.1447,-6.1777,-6.245,-6.245,-6.2523,-6.2658,-6.2658,-6.267,-6.278,-6.278,-6.278,-6.2817,-6.3576,-6.3503,-6.2853,-6.4347,-6.4163,-6.2853,-6.3613,-6.3466,-6.278,-6.278,-6.278,-6.278,-6.278,-6.278,-6.278,-7.7977,-7.7823,-7.7669,-7.7169,-7.7515,-7.7823,-7.7823,-7.8554,-7.9246,-7.9746,-8.0131,-8.0245,-7.997,-7.9225,-7.8625,-7.8203,-7.8625,-7.8708,-7.818,-7.9058,-7.8579,-7.6305,-7.7628,-7.7105,-7.438,-7.4768,-7.5072,-7.5238,-7.4859,-7.4943,-7.548,-7.5236,-7.4724,-7.4,-7.34,-7.2494,-7.1409,-7.0483,-7.025,-7.0362,-6.9373,-6.8891,-6.8818,-6.8333,-6.7956,-6.7687,-6.7687,-6.7687,-6.7687,-6.7687,-6.7687,-6.7614,-6.7283,-6.6843,-6.6256,-6.5118,-6.4787,-6.4494,-6.3172,-6.3172,-6.3429,-6.289,-6.278,-6.278,-6.278,-6.278,-6.278,-6.278,-6.278,-6.2695,-6.2365,-6.2291,-6.2144,-6.1814,-6.1741,-6.1741,-6.1741,-6.1741,-6.1594,-6.1117,-6.1484,-6.141,-6.0493,-6.0823,-6.108,-6.108,-6.108,-6.141,-6.2218,-6.2291,-6.2438,-6.278,-6.278,-6.278,-6.278,-6.278,-6.278,-6.278,-6.278,-6.278,-6.278,-6.3209,-6.3429,-6.3539,-6.3796,-6.3759,-6.3503,-6.3429,-6.3172,-6.278,-6.278,-6.278,-6.278,-6.278,-6.278,-6.278]},{"header":{"parameterUnit":"m.s-1","parameterCategory":1,"la1":30.6,"la2":28.766,"lo1":-90.7593,"lo2":-88.6598,"dy":0.0162,"dx":0.0183,"nx":116,"ny":114,"refTime":"2024-05-15T06:00:00:Z","depth":0,"parameterNumber":3,"parameterNumberName":"V-component_of_WINDS"},"data":[0.0,0.0,0.0,0.0,0.0,0.0,0.0,0.0,0.0,0.0,0.0,0.0,0.0,0.0,0.0,0.0,0.0,0.0,0.0,0.0,0.0,0.0,0.0,0.0,0.0,0.0,0.0,0.0,0.0,0.0,0.0,0.0,0.0,0.0,0.0,0.0,0.0,0.0,0.0,0.0,0.0,0.0,0.0,0.0,0.0,0.0,0.0,0.0,0.0,0.0,0.0,0.0,0.0,0.0,0.0,0.0,0.0,0.0,0.0,0.0,0.0,0.0,0.0,0.0,0.0,0.0,0.0,0.0,0.0,0.0,0.0,0.0,0.0,0.0,0.0,0.0,0.0,0.0,0.0,0.0,0.0,0.0,0.0,0.0,0.0,0.0,0.0,0.0,0.0,0.0,0.0,0.0,0.0,0.0,0.0,0.0,0.0,0.0,0.0,0.0,0.0,0.0,0.0,0.0,0.0,0.0,0.0,0.0,0.0,0.0,0.0,0.0,0.0,0.0,0.0,0.0,0.0,0.0,0.0,0.0,0.0,0.0,0.0,0.0,0.0,0.0,0.0,0.0,0.0,0.0,0.0,0.0,0.0,0.0,0.0,0.0,0.0,0.0,0.0,0.0,0.0,0.0,0.0,0.0,0.0,0.0,0.0,0.0,0.0,0.0,0.0,0.0,0.0,0.0,0.0,0.0,0.0,0.0,0.0,0.0,0.0,0.0,0.0,0.0,0.0,0.0,0.0,0.0,0.0,0.0,0.0,0.0,0.0,0.0,0.0,0.0,0.0,0.0,0.0,0.0,0.0,0.0,0.0,0.0,0.0,0.0,0.0,0.0,0.0,0.0,0.0,0.0,0.0,0.0,0.0,0.0,0.0,0.0,0.0,0.0,0.0,0.0,0.0,0.0,0.0,0.0,0.0,0.0,0.0,0.0,0.0,0.0,0.0,0.0,0.0,0.0,0.0,0.0,0.0,0.0,0.0,0.0,0.0,0.0,0.0,0.0,0.0,0.0,0.0,0.0,0.0,0.0,0.0,0.0,0.0,0.0,0.0,0.0,0.0,0.0,0.0,0.0,0.0,0.0,0.0,0.0,0.0,0.0,0.0,0.0,0.0,0.0,0.0,0.0,0.0,0.0,0.0,0.0,0.0,0.0,0.0,0.0,0.0,0.0,0.0,0.0,0.0,0.0,0.0,0.0,0.0,0.0,0.0,0.0,0.0,0.0,0.0,0.0,0.0,0.0,0.0,0.0,0.0,0.0,0.0,0.0,0.0,0.0,0.0,0.0,0.0,0.0,0.0,0.0,0.0,0.0,0.0,0.0,0.0,0.0,0.0,0.0,0.0,0.0,0.0,0.0,0.0,0.0,0.0,0.0,0.0,0.0,0.0,0.0,0.0,0.0,0.0,0.0,0.0,0.0,0.0,0.0,0.0,0.0,0.0,0.0,0.0,0.0,0.0,0.0,0.0,0.0,0.0,0.0,0.0,0.0,0.0,0.0,0.0,0.0,0.0,0.0,0.0,0.0,0.0,0.0,0.0,0.0,0.0,0.0,0.0,0.0,0.0,0.0,0.0,0.0,0.0,0.0,0.0,0.0,0.0,0.0,0.0,0.0,0.0,0.0,0.0,0.0,0.0,0.0,0.0,0.0,0.0,0.0,0.0,0.0,0.0,0.0,0.0,0.0,0.0,0.0,0.0,0.0,0.0,0.0,0.0,0.0,0.0,0.0,0.0,0.0,0.0,0.0,0.0,0.0,0.0,0.0,0.0,0.0,0.0,0.0,0.0,0.0,0.0,0.0,0.0,0.0,0.0,0.0,0.0,0.0,0.0,0.0,0.0,0.0,0.0,0.0,0.0,0.0,0.0,0.0,0.0,0.0,0.0,0.0,0.0,0.0,0.0,0.0,0.0,0.0,0.0,0.0,0.0,0.0,0.0,0.0,0.0,0.0,0.0,0.0,0.0,0.0,0.0,0.0,0.0,0.0,0.0,0.0,0.0,0.0,0.0,0.0,0.0,0.0,0.0,0.0,0.0,0.0,0.0,0.0,0.0,0.0,0.0,0.0,0.0,0.0,0.0,0.0,0.0,0.0,0.0,0.0,0.0,0.0,0.0,0.0,0.0,0.0,0.0,0.0,0.0,0.0,0.0,0.0,0.0,0.0,0.0,0.0,0.0,0.0,0.0,0.0,0.0,0.0,0.0,0.0,0.0,0.0,0.0,0.0,0.0,0.0,0.0,0.0,0.0,0.0,0.0,0.0,0.0,0.0,0.0,0.0,0.0,0.0,0.0,0.0,0.0,0.0,0.0,0.0,0.0,0.0,0.0,0.0,0.0,0.0,0.0,0.0,0.0,0.0,0.0,0.0,0.0,0.0,0.0,0.0,0.0,0.0,0.0,0.0,0.0,0.0,0.0,0.0,0.0,0.0,0.0,0.0,0.0,0.0,0.0,0.0,0.0,0.0,0.0,0.0,0.0,0.0,0.0,0.0,0.0,0.0,0.0,0.0,0.0,0.0,0.0,0.0,0.0,0.0,0.0,0.0,0.0,0.0,0.0,0.0,0.0,0.0,0.0,0.0,0.0,0.0,0.0,0.0,0.0,0.0,0.0,0.0,0.0,0.0,0.0,0.0,0.0,0.0,0.0,0.0,0.0,0.0,0.0,0.0,0.0,0.0,0.0,0.0,0.0,0.0,0.0,0.0,0.0,0.0,0.0,0.0,0.0,0.0,0.0,0.0,0.0,0.0,0.0,0.0,0.0,0.0,0.0,0.0,0.0,0.0,0.0,0.0,0.0,0.0,0.0,0.0,0.0,0.0,0.0,0.0,0.0,0.0,0.0,0.0,0.0,0.0,0.0,0.0,0.0,0.0,0.0,0.0,0.0,0.0,0.0,0.0,0.0,0.0,0.0,0.0,0.0,0.0,0.0,0.0,0.0,0.0,0.0,0.0,0.0,0.0,0.0,0.0,0.0,0.0,0.0,0.0,0.0,0.0,0.0,0.0,0.0,0.0,0.0,0.0,0.0,0.0,0.0,0.0,0.0,0.0,0.0,0.0,0.0,0.0,0.0,0.0,0.0,0.0,0.0,0.0,0.0,0.0,0.0,0.0,0.0,0.0,0.0,0.0,0.0,0.0,0.0,0.0,0.0,0.0,0.0,0.0,0.0,0.0,0.0,0.0,0.0,0.0,0.0,0.0,0.0,0.0,0.0,0.0,0.0,0.0,0.0,0.0,0.0,0.0,0.0,0.0,0.0,0.0,0.0,0.0,0.0,0.0,0.0,0.0,0.0,0.0,0.0,0.0,0.0,0.0,0.0,0.0,0.0,0.0,0.0,0.0,0.0,0.0,0.0,0.0,0.0,0.0,0.0,0.0,0.0,0.0,0.0,0.0,0.0,0.0,0.0,0.0,0.0,0.0,0.0,0.0,0.0,0.0,0.0,0.0,0.0,0.0,0.0,0.0,0.0,0.0,0.0,0.0,0.0,0.0,0.0,0.0,0.0,0.0,0.0,0.0,0.0,0.0,0.0,0.0,0.0,0.0,0.0,0.0,0.0,0.0,0.0,0.0,0.0,0.0,0.0,0.0,0.0,0.0,0.0,0.0,0.0,0.0,0.0,0.0,0.0,0.0,0.0,0.0,0.0,0.0,0.0,0.0,0.0,0.0,0.0,0.0,0.0,0.0,0.0,0.0,0.0,0.0,0.0,0.0,0.0,0.0,0.0,0.0,0.0,0.0,0.0,0.0,0.0,0.0,0.0,0.0,0.0,0.0,0.0,0.0,0.0,0.0,0.0,0.0,0.0,0.0,0.0,0.0,0.0,0.0,0.0,0.0,0.0,0.0,0.0,0.0,0.0,0.0,0.0,0.0,0.0,0.0,0.0,0.0,0.0,0.0,0.0,0.0,0.0,0.0,0.0,0.0,0.0,0.0,0.0,0.0,0.0,0.0,0.0,0.0,0.0,0.0,0.0,0.0,0.0,0.0,0.0,0.0,0.0,0.0,0.0,0.0,0.0,0.0,0.0,0.0,0.0,0.0,0.0,0.0,0.0,0.0,0.0,0.0,0.0,0.0,0.0,0.0,0.0,0.0,0.0,0.0,0.0,0.0,0.0,0.0,0.0,0.0,0.0,0.0,0.0,0.0,0.0,0.0,0.0,0.0,0.0,0.0,0.0,0.0,0.0,0.0,0.0,0.0,0.0,0.0,0.0,0.0,0.0,0.0,0.0,0.0,0.0,0.0,0.0,0.0,0.0,0.0,0.0,0.0,0.0,0.0,0.0,0.0,0.0,0.0,0.0,0.0,0.0,0.0,0.0,0.0,0.0,0.0,0.0,0.0,0.0,0.0,0.0,0.0,0.0,0.0,0.0,0.0,0.0,0.0,0.0,0.0,0.0,0.0,0.0,0.0,0.0,0.0,0.0,0.0,0.0,0.0,0.0,0.0,0.0,0.0,0.0,0.0,0.0,0.0,0.0,0.0,0.0,0.0,0.0,0.0,0.0,0.0,0.0,0.0,0.0,0.0,0.0,0.0,0.0,0.0,0.0,0.0,0.0,0.0,0.0,0.0,0.0,0.0,0.0,0.0,0.0,0.0,0.0,0.0,0.0,0.0,0.0,0.0,0.0,0.0,0.0,0.0,0.0,0.0,0.0,0.0,0.0,0.0,0.0,0.0,0.0,0.0,0.0,0.0,0.0,0.0,0.0,0.0,0.0,0.0,0.0,0.0,0.0,0.0,0.0,0.0,0.0,0.0,0.0,0.0,0.0,0.0,0.0,0.0,0.0,0.0,0.0,0.0,0.0,0.0,0.0,0.0,0.0,0.0,0.0,0.0,0.0,0.0,0.0,0.0,0.0,0.0,0.0,0.0,0.0,0.0,0.0,0.0,0.0,0.0,0.0,0.0,0.0,0.0,0.0,0.0,0.0,0.0,0.0,0.0,0.0,0.0,0.0,0.0,0.0,0.0,0.0,0.0,0.0,0.0,0.0,0.0,0.0,0.0,0.0,0.0,0.0,0.0,0.0,0.0,0.0,0.0,0.0,0.0,0.0,0.0,0.0,0.0,0.0,0.0,0.0,0.0,0.0,0.0,0.0,0.0,0.0,0.0,0.0,0.0,0.0,0.0,0.0,0.0,0.0,0.0,0.0,0.0,0.0,0.0,0.0,0.0,0.0,0.0,0.0,0.0,0.0,0.0,0.0,0.0,0.0,0.0,0.0,0.0,0.0,0.0,0.0,0.0,0.0,0.0,0.0,0.0,0.0,0.0,0.0,0.0,0.0,0.0,0.0,0.0,0.0,0.0,0.0,0.0,0.0,0.0,0.0,0.0,0.0,0.0,0.0,0.0,0.0,0.0,0.0,0.0,0.0,0.0,0.0,0.0,0.0,0.0,0.0,0.0,0.0,0.0,0.0,0.0,0.0,0.0,0.0,0.0,0.0,0.0,0.0,0.0,0.0,0.0,0.0,0.0,0.0,0.0,0.0,0.0,0.0,0.0,0.0,0.0,0.0,0.0,0.0,0.0,0.0,0.0,0.0,0.0,0.0,0.0,0.0,0.0,0.0,0.0,0.0,0.0,0.0,0.0,0.0,0.0,0.0,0.0,0.0,0.0,0.0,0.0,0.0,0.0,0.0,0.0,0.0,0.0,0.0,0.0,0.0,0.0,0.0,0.0,0.0,0.0,0.0,0.0,0.0,0.0,0.0,0.0,0.0,0.0,0.0,0.0,0.0,0.0,0.0,0.0,0.0,0.0,0.0,0.0,0.0,0.0,0.0,0.0,0.0,0.0,0.0,0.0,0.0,0.0,0.0,0.0,0.0,0.0,0.0,0.0,0.0,0.0,0.0,0.0,0.0,0.0,0.0,0.0,0.0,0.0,0.0,0.0,0.0,0.0,0.0,0.0,0.0,0.0,0.0,0.0,0.0,0.0,0.0,0.0,0.0,0.0,0.0,0.0,0.0,0.0,0.0,0.0,0.0,0.0,0.0,0.0,0.0,0.0,0.0,0.0,0.0,0.0,0.0,0.0,0.0,0.0,0.0,0.0,0.0,0.0,0.0,0.0,0.0,0.0,0.0,0.0,0.0,0.0,0.0,0.0,0.0,0.0,1.8637,1.8303,0.0,0.0,0.0,0.0,0.0,0.0,0.0,0.0,0.0,0.0,0.0,0.0,0.0,0.0,0.0,0.0,0.0,0.0,0.0,0.0,0.0,0.0,0.0,1.943,1.9426,1.9559,1.9573,1.9573,1.9573,0.0,0.0,0.0,0.0,0.0,2.0214,2.0374,2.0588,2.0882,2.1029,2.1243,2.1523,2.1523,2.1456,2.1283,0.0,0.0,0.0,0.0,0.0,0.0,0.0,0.0,0.0,0.0,0.0,0.0,0.0,0.0,0.0,0.0,0.0,0.0,0.0,0.0,0.0,0.0,0.0,0.0,0.0,0.0,0.0,0.0,0.0,0.0,0.0,0.0,0.0,0.0,0.0,0.0,0.0,0.0,0.0,0.0,0.0,0.0,0.0,0.0,0.0,0.0,0.0,0.0,0.0,0.0,0.0,0.0,0.0,0.0,0.0,0.0,0.0,0.0,0.0,0.0,0.0,0.0,0.0,0.0,0.0,0.0,0.0,0.0,0.0,0.0,2.0361,1.9466,0.0,0.0,0.0,0.0,0.0,0.0,0.0,0.0,0.0,0.0,0.0,0.0,0.0,0.0,0.0,0.0,0.0,0.0,0.0,0.0,0.0,1.943,1.943,1.9412,1.9546,1.9773,1.984,1.988,1.988,2.0094,0.0,0.0,0.0,2.0428,2.0668,2.0722,2.0895,2.1189,2.1643,2.2058,2.2445,2.2498,2.2552,2.2565,2.1657,0.0,0.0,0.0,0.0,0.0,0.0,0.0,0.0,0.0,0.0,0.0,0.0,0.0,0.0,0.0,0.0,0.0,0.0,0.0,0.0,0.0,0.0,0.0,0.0,0.0,0.0,0.0,0.0,0.0,0.0,0.0,0.0,0.0,0.0,0.0,0.0,0.0,0.0,0.0,0.0,0.0,0.0,0.0,0.0,0.0,0.0,0.0,0.0,0.0,0.0,0.0,0.0,0.0,0.0,0.0,0.0,0.0,0.0,0.0,0.0,0.0,0.0,0.0,2.2619,2.334,2.4289,2.4048,2.4409,2.513,2.2926,2.1523,2.0735,2.0584,0.0,0.0,0.0,0.0,0.0,0.0,0.0,0.0,0.0,0.0,0.0,0.0,0.0,0.0,0.0,0.0,0.0,0.0,0.0,1.943,1.943,1.9586,1.976,1.98,2.0027,2.0174,2.0174,2.0153,0.0,0.0,2.0454,2.0641,2.0681,2.0922,2.1203,2.1561,2.2565,2.35,2.4289,2.4556,2.481,2.4957,2.2819,2.2298,2.2966,0.0,0.0,0.0,0.0,0.0,0.0,0.0,0.0,0.0,0.0,0.0,0.0,0.0,0.0,0.0,0.0,0.0,0.0,0.0,0.0,0.0,0.0,0.0,0.0,0.0,0.0,0.0,0.0,0.0,0.0,0.0,0.0,0.0,0.0,0.0,0.0,0.0,0.0,0.0,0.0,0.0,1.8557,1.8343,0.0,0.0,0.0,0.0,0.0,0.0,0.0,0.0,0.0,0.0,0.0,0.0,0.0,2.2619,2.318,2.4529,2.501,2.4623,2.5678,2.6266,2.6413,2.6373,2.6841,2.7738,2.739,0.0,2.2901,2.3164,0.0,0.0,0.0,0.0,0.0,0.0,0.0,0.0,0.0,0.0,0.0,0.0,0.0,0.0,0.0,0.0,0.0,0.0,0.0,0.0,0.0,1.9867,2.0107,2.0281,2.1002,2.1176,2.0521,2.1096,2.1162,2.0508,2.0762,2.0922,2.0922,2.1203,2.1911,2.3046,2.4222,2.517,2.5865,2.6172,2.6373,2.644,2.5237,2.4289,2.3527,2.2846,0.0,0.0,0.0,0.0,0.0,0.0,0.0,0.0,0.0,0.0,0.0,0.0,0.0,0.0,0.0,0.0,0.0,0.0,0.0,0.0,0.0,0.0,0.0,0.0,0.0,0.0,0.0,0.0,0.0,0.0,0.0,0.0,0.0,0.0,0.0,0.0,0.0,0.0,0.0,1.8918,1.9426,1.8811,1.9546,1.9679,0.0,0.0,0.0,0.0,0.0,0.0,0.0,0.0,0.0,2.326,2.3981,2.4716,2.5478,2.6293,2.6987,2.7562,2.807,2.8577,2.9045,2.8885,2.9112,2.9619,2.9459,2.831,2.6373,2.507,2.4042,2.3365,0.0,0.0,0.0,0.0,2.6236,2.6473,0.0,0.0,0.0,0.0,0.0,0.0,0.0,0.0,0.0,0.0,0.0,0.0,2.0676,2.0788,2.1123,2.206,2.2401,2.2164,2.1296,2.1764,2.1697,2.0828,2.0989,2.1109,2.1109,2.1697,2.2913,2.477,2.5945,2.6894,2.7615,2.7923,2.8056,2.8043,2.7749,2.656,2.473,2.3901,2.3126,2.2445,0.0,0.0,0.0,0.0,0.0,0.0,0.0,0.0,0.0,0.0,0.0,0.0,0.0,0.0,0.0,0.0,0.0,0.0,0.0,0.0,0.0,0.0,0.0,0.0,0.0,0.0,0.0,0.0,0.0,0.0,0.0,0.0,0.0,0.0,0.0,0.0,0.0,1.9867,2.0388,1.9279,2.0655,2.0962,0.0,0.0,0.0,0.0,0.0,0.0,2.2953,2.4062,2.497,2.5625,2.6373,2.7094,2.7829,2.8283,2.9018,3.0047,3.0114,3.0488,3.1116,3.0902,3.0915,3.1116,3.0822,3.0194,2.9179,2.7052,2.5864,2.5189,2.4705,2.5397,2.6901,2.8778,2.9819,3.0635,0.0,0.0,0.0,0.0,0.0,0.0,0.0,0.0,0.0,0.0,0.0,2.069,2.3067,2.27,2.3266,2.5733,2.4036,2.2887,2.2752,2.1764,2.1149,2.1096,2.1096,2.1109,2.1109,2.2512,2.4235,2.6279,2.7537,2.8631,2.9766,3.006,3.0207,3.0194,2.9887,2.8925,2.7348,2.5104,2.4449,2.4703,2.2512,0.0,0.0,0.0,0.0,0.0,0.0,0.0,0.0,0.0,0.0,0.0,0.0,0.0,0.0,0.0,0.0,0.0,0.0,0.0,0.0,0.0,0.0,0.0,0.0,0.0,0.0,0.0,0.0,0.0,0.0,0.0,0.0,0.0,0.0,0.0,0.0,0.0,0.0,1.996,2.2525,0.0,0.0,0.0,0.0,2.2753,2.3768,2.4823,2.5782,2.66,2.7495,2.8377,2.9526,3.0274,3.0595,3.1436,3.1757,3.157,3.1837,3.1998,3.2038,3.2024,3.2024,3.2024,3.173,3.1102,3.0308,2.9577,2.84,2.7042,2.7679,2.8743,3.0119,3.1048,3.2615,3.4505,0.0,0.0,0.0,0.0,0.0,1.8464,1.8865,1.9092,1.9319,1.9613,2.0889,2.2069,2.2742,2.3947,2.4856,2.514,2.4761,2.4249,2.35,2.2873,2.2271,2.1697,2.1309,2.1643,2.2792,2.4075,2.5838,2.8096,2.9459,3.0541,3.133,3.1623,3.1866,3.1757,3.145,3.0822,2.982,2.7455,2.5598,2.4155,2.3113,2.2231,0.0,0.0,0.0,0.0,0.0,0.0,0.0,0.0,0.0,0.0,0.0,0.0,0.0,0.0,0.0,0.0,0.0,0.0,0.0,0.0,0.0,0.0,0.0,0.0,0.0,0.0,0.0,0.0,0.0,0.0,0.0,0.0,0.0,0.0,0.0,0.0,0.0,2.3514,2.5491,0.0,2.3848,2.4369,2.485,2.485,2.6119,2.7201,2.7909,2.8951,2.986,3.0555,3.1169,3.1717,3.2198,3.2131,3.2238,3.2505,3.2238,3.2104,3.2091,3.1904,3.1824,3.1797,3.1316,3.0929,3.0646,3.0035,2.9564,2.9306,3.0435,3.1688,3.3232,3.5298,3.6534,3.7305,0.0,0.0,0.0,0.0,1.8605,1.8584,1.8878,1.9172,1.9699,2.05,2.1672,2.2991,2.4338,2.538,2.6125,2.6412,2.5886,2.5104,2.4128,2.3313,2.2525,2.1724,2.1697,2.2485,2.4168,2.5545,2.7362,2.9633,3.0902,3.1824,3.2398,3.2599,3.2692,3.2679,3.2385,3.1931,3.1263,2.9593,2.7415,2.501,2.4022,2.3273,2.2633,0.0,0.0,0.0,0.0,0.0,0.0,0.0,0.0,0.0,0.0,0.0,0.0,0.0,0.0,0.0,0.0,0.0,0.0,0.0,0.0,0.0,0.0,0.0,0.0,0.0,0.0,0.0,0.0,0.0,0.0,0.0,0.0,0.0,0.0,2.4048,2.5745,2.5932,2.7949,2.8524,2.6453,2.6974,2.7442,2.7442,2.8711,2.974,3.0341,3.1196,3.181,3.2104,3.2398,3.2679,3.2973,3.2692,3.2692,3.2973,3.2478,3.2198,3.2091,3.1797,3.161,3.149,3.1009,3.0742,3.0595,3.0007,2.9863,3.0193,3.0791,3.2498,3.4813,3.6615,3.8198,3.9492,0.0,0.0,0.0,1.9796,1.9177,1.8571,1.8865,1.9158,2.0078,2.1976,2.1906,2.342,2.8057,2.707,2.7158,2.9815,2.7268,2.5277,2.4703,2.2993,2.175,2.1189,2.2271,2.3678,2.513,2.6867,2.8764,3.0835,3.1704,3.2425,3.2986,3.2986,3.2986,3.2973,3.2692,3.2251,3.169,3.1396,2.9927,2.7602,2.5251,2.4609,2.4823,0.0,0.0,0.0,0.0,0.0,0.0,0.0,0.0,0.0,0.0,0.0,0.0,0.0,0.0,0.0,0.0,0.0,0.0,0.0,0.0,0.0,0.0,0.0,0.0,0.0,0.0,0.0,0.0,0.0,0.0,0.0,0.0,0.0,2.2552,2.5558,2.7562,2.7054,2.9793,3.0715,2.8123,2.9446,3.0461,3.0448,3.1517,3.2412,3.2973,3.328,3.3293,3.3,3.3267,3.328,3.3,3.3267,3.3253,3.2959,3.2666,3.2372,3.2078,3.1784,3.1503,3.1209,3.0902,3.0621,3.0314,2.974,2.9486,2.9406,2.8918,3.1135,3.4749,3.4732,3.748,4.1016,0.0,0.0,1.919,1.9643,1.8854,1.8209,1.8571,1.8851,1.9869,2.223,2.3086,2.4502,2.7201,2.7762,2.8097,2.8676,2.6946,2.5678,2.5291,2.3407,2.2325,2.2378,2.3113,2.4609,2.6921,2.8297,2.99,3.1744,3.2412,3.2933,3.3293,3.3293,3.3293,3.3293,3.3213,3.2973,3.2599,3.2305,3.1436,3.0034,2.7455,2.5879,2.4943,0.0,0.0,0.0,0.0,0.0,0.0,0.0,0.0,0.0,0.0,0.0,0.0,0.0,0.0,0.0,0.0,0.0,0.0,0.0,0.0,0.0,0.0,0.0,0.0,0.0,0.0,0.0,0.0,0.0,0.0,0.0,2.3875,2.5371,2.5585,2.7562,2.9486,3.0808,3.2131,3.2652,3.1931,3.2505,3.2826,3.2585,3.328,3.3694,3.3641,3.3708,3.3614,3.3307,3.3374,3.3374,3.3293,3.316,3.2959,3.2666,3.2358,3.2078,3.1784,3.1476,3.1303,3.1196,3.0702,3.0434,3.0327,2.9953,2.9539,2.9286,3.0482,3.2578,3.5145,3.6154,3.8176,4.0117,0.0,1.9626,1.8968,1.9524,1.8727,1.8089,1.845,1.8731,1.98,2.2349,2.3131,2.4381,2.6835,2.7568,2.7741,2.7591,2.648,2.5438,2.4649,2.334,2.2792,2.322,2.4516,2.6186,2.8217,2.9659,3.1076,3.2465,3.2933,3.332,3.3614,3.3614,3.3614,3.3614,3.3614,3.344,3.3146,3.2853,3.2425,3.1784,2.974,2.8123,2.6774,2.5398,2.469,2.4342,2.3567,2.346,2.35,2.2258,0.0,0.0,0.0,0.0,0.0,0.0,0.0,0.0,0.0,0.0,0.0,0.0,0.0,0.0,0.0,0.0,0.0,0.0,0.0,0.0,0.0,0.0,0.0,0.0,2.5905,2.7682,2.8711,2.9953,3.1343,3.2919,3.3734,3.4122,3.4002,3.4148,3.4175,3.3988,3.4189,3.4242,3.4082,3.3948,3.3748,3.3427,3.3414,3.3414,3.3414,3.324,3.308,3.2906,3.2492,3.2198,3.2024,3.1476,3.1156,3.1022,3.0555,3.0287,3.0154,2.986,2.9459,2.9105,0.0,0.0,0.0,0.0,3.8305,3.9512,0.0,1.8442,1.8199,1.9369,1.8727,1.8089,1.845,1.8731,1.98,2.2349,2.2426,2.342,2.6587,2.662,2.6547,2.6707,2.5865,2.4756,2.346,2.3086,2.3287,2.4128,2.6253,2.8003,2.9259,3.0915,3.2171,3.2973,3.3307,3.3614,3.3881,3.3921,3.3935,3.3935,3.3895,3.3734,3.344,3.3146,3.3013,3.2879,3.181,3.0648,2.9366,2.7388,2.6894,2.7081,2.5718,2.4957,2.4449,2.3487,0.0,0.0,0.0,0.0,0.0,0.0,0.0,0.0,0.0,0.0,0.0,0.0,0.0,0.0,0.0,0.0,0.0,0.0,0.0,0.0,0.0,0.0,0.0,0.0,2.7923,2.9619,3.1543,3.2358,3.304,3.3841,3.4656,3.5057,3.483,3.4817,3.4817,3.4817,3.4563,3.4389,3.4322,3.4068,0.0,0.0,0.0,3.3414,3.3414,3.3414,3.3374,3.3307,3.2786,3.2603,3.2425,3.1637,3.1102,3.0782,3.0528,3.0207,2.9847,2.9593,2.9285,2.8991,2.9198,3.0227,3.2063,3.586,3.7968,3.9004,0.0,1.9199,1.9265,1.9524,1.8727,1.8089,1.845,1.8731,1.98,2.2349,2.1928,2.247,2.5349,2.4873,2.4836,2.6026,2.489,2.3995,2.3701,2.3407,2.4235,2.6493,2.7722,2.9112,3.0768,3.1837,3.2572,3.2973,3.3521,3.3828,3.3895,3.4122,3.4242,3.4229,3.3988,3.3855,3.3774,3.3454,3.3187,3.2933,3.2478,3.145,3.0047,2.8698,2.7802,2.7161,2.6413,2.652,2.6814,2.5451,2.5398,2.5625,2.4088,0.0,0.0,0.0,0.0,0.0,0.0,0.0,0.0,0.0,0.0,0.0,0.0,0.0,0.0,0.0,0.0,0.0,0.0,0.0,0.0,2.7604,2.9646,3.1463,3.2572,3.344,3.4042,3.4215,3.4603,3.4923,3.5097,3.511,3.511,3.511,3.5057,3.4817,3.4349,3.4269,3.3988,3.3427,3.3414,3.3414,3.3414,3.3414,3.3173,3.2706,3.2696,0.0,3.1837,3.1664,3.1289,3.0795,3.0742,3.0274,2.9566,2.9499,2.9165,2.8829,3.031,3.1757,3.3302,3.5842,3.7352,3.8105,1.8048,1.8391,1.8603,1.8603,1.8249,1.8089,1.845,1.8731,1.9472,2.1022,2.1136,2.175,2.343,2.357,2.3714,2.4142,2.3247,2.2846,2.3287,2.4155,2.5558,2.7698,2.9125,3.0461,3.1637,3.2385,3.2986,3.3427,3.3734,3.4042,3.4322,3.4469,3.4536,3.4536,3.4389,3.4242,3.4082,3.3774,3.3561,3.3387,3.2946,3.2238,3.1343,3.0314,2.9459,2.8778,2.8484,2.8283,2.8016,2.7134,2.6827,2.6587,2.5277,2.4342,2.3581,0.0,0.0,0.0,0.0,0.0,0.0,0.0,0.0,0.0,0.0,0.0,0.0,0.0,0.0,2.3193,0.0,0.0,2.7856,2.9619,3.1142,3.2358,3.3093,3.3721,3.4162,3.4295,3.471,3.5044,3.5177,3.5191,3.5191,3.5191,3.5057,3.479,3.4349,3.4189,3.3895,3.3427,3.3414,3.3414,3.3414,3.3414,3.3187,3.2759,3.2612,3.2318,3.1877,3.1436,3.1076,3.0768,3.0327,2.9887,2.9459,2.9165,2.8871,2.8636,2.9314,3.0462,3.1984,3.2895,3.382,3.4686,1.7246,1.7434,1.7582,1.7582,1.7889,1.821,1.845,1.8784,1.9199,1.9733,2.0414,2.1056,2.159,2.2298,2.2552,2.2111,2.1911,2.2271,2.314,2.4983,2.6774,2.8502,3.0247,3.153,3.2171,3.2759,3.3334,3.3881,3.4002,3.4295,3.4763,3.4817,3.4843,3.4843,3.4736,3.4549,3.4295,3.3948,3.3801,3.3748,3.3133,3.2759,3.2549,3.1557,3.0902,3.0421,3.0247,2.9432,2.8417,2.8337,2.7696,2.68,2.6213,2.5585,2.481,2.35,2.3006,0.0,0.0,0.0,0.0,0.0,0.0,0.0,0.0,0.0,2.2365,2.2832,2.4022,2.5438,2.6974,2.827,2.97,3.1463,3.2291,3.2879,3.3347,3.3681,3.3975,3.4202,3.475,3.511,3.511,3.5164,3.5177,3.5124,3.4897,3.4603,3.4255,3.4015,3.3748,3.3427,3.3414,3.3414,3.3414,3.3414,3.324,3.2893,3.2652,3.2358,3.1998,3.1223,3.0849,3.0742,2.9806,2.9392,2.9352,2.8764,2.8484,2.8377,2.7896,2.8494,2.9573,2.9705,3.0451,3.1576,0.0,1.7434,1.7582,1.7582,1.8063,1.845,1.849,1.8958,1.9439,1.976,1.988,2.0067,2.0388,2.0521,2.0655,2.0855,2.2004,2.3207,2.4356,2.5625,2.7348,2.9619,3.0688,3.1623,3.2478,3.3066,3.3534,3.3881,3.4416,3.4696,3.4776,3.503,3.5151,3.5124,3.4603,3.4349,3.4282,3.3708,3.3467,3.3414,3.2826,3.267,3.2549,3.1557,3.1022,3.0635,2.986,2.8818,2.7909,2.8684,2.8177,2.7295,2.7792,2.7268,2.6239,2.4556,0.0,2.2605,2.143,2.1162,2.1309,2.1737,2.1844,2.2245,0.0,0.0,2.4983,2.6066,2.7041,2.7923,2.8657,2.9967,3.1183,3.1931,3.2759,3.3334,3.34,3.3681,3.3895,3.3935,3.4456,3.4817,3.4817,3.5044,3.5084,3.483,3.4776,3.4523,3.3961,3.3908,3.3748,3.3427,3.3414,3.3414,3.3414,3.3414,3.3133,3.2599,3.2656,3.2251,3.1704,3.1343,3.1036,3.0728,2.9579,2.9085,2.9045,2.8444,2.8043,2.7789,2.7722,2.7364,2.7021,2.8822,3.0249,3.1576,0.0,1.7434,1.7582,1.7582,1.809,1.849,1.849,1.8985,1.947,1.9533,1.9693,1.9786,1.9733,1.9733,1.9773,1.9907,2.0949,2.2311,2.4022,2.5545,2.7442,2.982,3.1089,3.1984,3.2629,3.312,3.3574,3.3881,3.4295,3.4589,3.4776,3.5057,3.5191,3.5177,3.4763,3.4576,3.4536,3.3935,3.3574,3.3387,3.3146,3.2746,3.2211,3.149,3.0515,2.9472,2.9112,2.831,0.0,0.0,2.7535,2.7281,2.7348,2.6894,2.6012,2.4422,2.3434,0.0,2.1844,2.1871,2.2231,0.0,2.3407,2.4275,2.5197,2.6159,2.7054,2.7722,2.8965,3.0114,3.0715,3.1597,3.2385,0.0,3.3173,3.3414,3.3414,3.3387,3.3227,3.2893,3.3213,3.3748,3.4442,3.4616,3.4629,3.4509,3.4509,3.4322,3.3908,3.3881,3.3748,3.3427,3.3414,3.3414,3.3414,3.3414,3.312,3.2643,3.2643,3.2238,3.165,3.1183,3.0541,2.974,2.9245,2.8845,2.8497,2.8328,2.7963,2.7682,2.7509,2.7014,2.6452,2.719,2.8098,2.9142,0.0,1.7328,1.7582,1.7582,1.809,1.849,1.849,1.8985,1.9457,1.9479,1.9599,1.9599,1.9444,1.943,1.943,1.943,2.0174,2.1456,2.3273,2.5117,2.7121,2.9325,3.0996,3.2038,3.2412,3.316,3.3654,3.3881,3.4175,3.4469,3.4763,3.4977,3.5084,3.5057,3.4776,3.4603,3.4482,3.3895,3.3547,3.3387,3.3053,3.2545,3.1864,3.0782,2.9432,2.811,2.803,2.7161,0.0,0.0,2.6079,2.6092,2.6279,2.6052,2.5438,2.4048,2.3046,2.2352,2.2258,2.2605,2.3166,2.3875,2.509,2.6253,2.68,2.802,2.9032,2.9579,3.0702,3.1744,3.2251,3.2759,3.3146,3.3267,3.336,3.3387,3.3307,3.2973,3.2519,3.1931,3.1837,3.2225,3.3253,3.3788,3.4108,3.4189,3.4202,3.4068,3.3774,3.3761,3.3654,3.3414,3.3414,3.3414,3.3414,3.3334,3.304,3.2643,3.2385,3.2038,3.153,3.0849,2.9993,2.9032,2.8951,2.8671,2.827,2.8261,2.7923,2.7549,2.7255,2.6734,2.6106,2.5825,2.6054,2.675,0.0,0.0,1.7582,1.7582,1.809,1.849,1.849,1.8985,1.9466,1.9746,1.9546,1.943,1.943,1.943,1.943,1.943,2.0174,2.1189,2.2378,2.4396,2.6333,2.8207,3.0154,3.1517,3.2104,3.3267,3.3881,3.3881,3.4175,3.4469,3.4763,3.4776,3.4776,3.4763,3.4469,3.4175,3.3868,3.3267,3.316,3.3307,3.2171,3.1704,3.1423,2.9199,2.7669,2.6841,2.656,0.0,0.0,2.3995,2.3714,2.3247,2.4676,2.5117,0.0,2.3688,2.2311,2.1403,2.2525,2.3073,2.3728,2.5451,2.676,2.7936,2.9112,3.0074,3.1036,3.2281,3.2562,3.2599,3.2893,3.32,3.3307,3.304,3.3227,3.332,3.3026,3.2492,3.1917,3.1316,3.0515,3.0234,0.0,3.2465,3.3587,3.3881,3.3895,3.3761,3.344,3.3427,3.3427,3.3414,3.3414,3.3414,3.3414,3.3133,3.2839,3.2629,3.1971,3.153,3.1209,3.0341,2.9619,2.9032,2.8751,2.8604,2.8577,2.827,2.7886,2.7255,2.6947,2.6306,2.5504,2.5211,2.4903,2.4837,0.0,0.0,0.0,1.7555,1.809,1.849,1.849,1.8985,1.9466,1.976,1.972,0.0,0.0,0.0,0.0,0.0,1.9813,2.0588,2.1764,2.3607,2.5344,2.6907,2.8965,3.0528,3.1503,3.2291,3.2986,3.3574,3.3881,3.4082,3.4189,3.4189,3.4189,3.4162,3.3654,3.3374,3.324,3.2652,3.2225,3.1891,3.1116,3.0448,2.9726,2.7949,2.636,2.4943,0.0,0.0,2.2231,2.1951,2.2044,2.2365,2.2873,0.0,0.0,2.2138,2.2058,2.2405,2.3006,2.4382,2.5972,2.7362,2.8591,2.9766,3.0955,3.145,3.1717,3.1917,3.1503,3.1009,3.0715,3.0742,3.0969,3.145,3.2104,3.2639,3.2933,3.2812,3.2104,3.0541,3.0434,0.0,0.0,0.0,0.0,3.2919,3.3,3.312,3.34,3.3227,3.312,3.312,3.2933,3.2839,3.2839,3.2545,3.2251,3.1957,3.1169,3.0648,3.0341,2.9847,2.9312,2.8751,2.8644,2.8484,2.827,2.7976,2.7615,2.7215,2.6734,2.6119,2.5451,2.497,2.4476,2.4309,0.0,0.0,0.0,0.0,0.0,0.0,0.0,0.0,0.0,0.0,0.0,0.0,0.0,0.0,0.0,0.0,0.0,2.0054,2.1015,2.2445,2.3821,2.5077,2.6921,2.8364,2.9325,2.9913,3.0541,3.1209,3.1637,3.1891,3.2011,3.2211,3.2318,3.2305,3.2118,3.1984,3.1851,3.1263,3.0795,3.0354,2.9232,2.8377,2.7589,2.5892,2.4422,0.0,0.0,0.0,2.0975,2.0521,2.0735,2.1243,2.1456,2.1724,2.1924,2.1777,2.2418,2.3434,2.4583,2.6226,2.7949,2.9352,3.0421,3.1343,3.2091,3.2091,3.177,3.1169,3.0261,2.9352,2.8657,2.8444,2.8738,2.9833,3.0488,3.1236,3.2358,3.2064,3.1316,3.0207,2.994,2.9633,0.0,0.0,0.0,3.2104,3.2332,3.2639,3.3227,3.308,3.2973,3.2973,3.2692,3.2492,3.2385,3.2091,3.1637,3.1036,3.0368,2.9833,2.9446,2.9259,2.8898,2.8444,2.8444,2.827,2.7963,2.7776,2.7468,2.7054,2.6466,2.5932,2.5438,2.485,2.4262,2.3968,0.0,0.0,0.0,0.0,0.0,0.0,0.0,0.0,0.0,0.0,0.0,0.0,0.0,0.0,0.0,0.0,0.0,0.0,2.0147,2.1029,2.1963,2.2807,2.4195,2.5277,2.5879,2.644,2.6894,2.7228,2.7859,2.8217,2.8524,2.9072,2.9325,2.9352,2.99,2.9967,2.9659,2.9085,2.8831,2.8644,2.6627,2.5638,2.5157,2.3126,0.0,0.0,0.0,0.0,0.0,1.9693,0.0,0.0,0.0,0.0,2.143,2.2619,2.3434,2.4502,2.7068,2.8457,2.9579,3.1276,3.2104,3.2505,3.2505,3.1984,3.1183,3.002,2.8791,2.7655,0.0,0.0,2.6774,2.8297,2.8631,2.9406,3.145,3.0541,2.9847,0.0,0.0,0.0,0.0,0.0,0.0,3.1476,0.0,3.2318,3.2919,3.2959,3.2946,3.2933,3.2652,3.2358,3.2064,3.1744,3.1009,2.9887,2.9579,2.9152,2.8604,2.8591,2.8417,2.8221,2.8221,2.7976,2.7696,2.7682,2.7335,2.6747,2.6159,2.5758,2.5411,2.481,2.4249,2.3728,0.0,0.0,0.0,0.0,0.0,0.0,0.0,0.0,0.0,0.0,0.0,0.0,0.0,0.0,0.0,0.0,0.0,0.0,1.9586,2.0615,2.1323,2.155,2.2979,2.4155,2.4957,2.5331,2.5879,2.6613,2.676,2.6987,2.7281,2.7215,2.7175,2.7175,2.7108,2.6921,2.6613,2.6239,2.5959,2.5651,0.0,2.3808,2.338,0.0,0.0,0.0,0.0,0.0,0.0,0.0,0.0,0.0,0.0,2.2178,2.2699,0.0,0.0,2.672,2.827,2.982,3.1156,3.1824,3.1944,3.1891,3.1891,3.0595,2.9112,2.8136,2.6306,2.4609,0.0,0.0,0.0,2.7295,2.8911,0.0,3.2385,3.2318,0.0,3.1089,0.0,3.0488,2.9766,2.982,0.0,0.0,3.1289,3.1797,3.2612,3.2652,3.2559,3.2332,3.2038,3.1757,3.145,3.0728,3.01,2.9593,2.9072,2.8751,2.8604,2.8364,2.8301,2.8221,2.8221,2.7976,2.7682,2.7468,2.7028,2.644,2.5852,2.5451,2.509,2.4289,2.3901,2.3688,0.0,0.0,0.0,0.0,0.0,0.0,0.0,0.0,0.0,0.0,0.0,0.0,0.0,0.0,0.0,0.0,0.0,0.0,0.0,1.9987,2.0347,2.0347,2.1149,2.1884,2.2498,2.2686,2.3126,2.3888,2.4008,2.4222,2.4502,2.4476,2.4462,2.4462,2.4556,2.4502,2.4329,2.4035,0.0,0.0,0.0,0.0,0.0,0.0,0.0,0.0,0.0,0.0,0.0,0.0,0.0,2.1817,2.2873,2.3674,2.4543,2.6159,0.0,2.8551,2.9993,3.1289,3.2278,3.2452,3.2171,3.1623,3.0715,2.9219,2.7468,2.5531,2.3781,0.0,2.143,2.2031,2.342,0.0,0.0,0.0,3.1891,3.2104,3.1971,0.0,3.173,0.0,3.0568,3.0648,3.0808,0.0,3.1249,3.169,3.2318,3.2478,3.2412,3.2118,3.1824,3.141,3.0849,2.9967,2.9379,2.9098,2.8631,2.8404,2.839,2.8301,2.8221,2.8221,2.8221,2.7896,2.7482,2.7188,2.6734,2.6146,2.5558,2.5224,2.4997,2.4382,2.3995,2.3728,0.0,0.0,0.0,0.0,0.0,0.0,0.0,0.0,0.0,0.0,2.0107,0.0,0.0,0.0,0.0,0.0,0.0,0.0,0.0,0.0,1.943,1.943,1.943,1.9492,1.9733,1.9786,2.0054,2.0561,2.0815,2.1082,2.1454,2.163,2.1737,2.1724,0.0,0.0,0.0,0.0,0.0,0.0,0.0,0.0,0.0,0.0,0.0,0.0,0.0,0.0,0.0,0.0,2.2752,2.3273,2.4289,2.5411,2.672,2.8497,2.9379,3.0154,3.1877,3.2679,3.3013,3.2933,3.2358,3.1289,2.9259,2.7709,2.5838,2.2859,0.0,2.0575,1.9773,2.0201,2.1563,2.4249,0.0,2.7896,3.0969,3.1116,3.1343,3.2519,3.2171,3.1744,3.1476,3.1463,3.1436,3.141,3.1637,3.1877,3.2091,3.2345,3.2332,3.1998,3.1704,3.1142,3.0314,2.9459,2.8898,2.8604,2.8297,2.8221,2.8221,2.8221,2.8221,2.8221,2.8181,2.7859,2.7241,2.6907,2.6426,2.5838,2.5291,2.505,2.4983,2.4649,2.4209,2.3754,0.0,0.0,0.0,0.0,0.0,0.0,0.0,0.0,0.0,0.0,2.0414,2.0401,0.0,0.0,0.0,0.0,0.0,0.0,0.0,0.0,0.0,1.943,1.943,1.9399,1.9439,1.9679,1.9853,1.996,2.0,2.0174,2.0468,2.0508,2.0414,0.0,0.0,0.0,0.0,0.0,0.0,0.0,0.0,0.0,0.0,0.0,0.0,0.0,0.0,0.0,0.0,0.0,2.3474,2.4609,2.6226,2.7549,2.8858,3.0621,3.1209,3.1623,3.316,3.3454,3.3213,3.2746,3.145,2.982,2.7989,2.5531,0.0,0.0,2.0254,1.9185,1.8784,1.9786,2.163,2.4529,2.6026,2.811,3.1797,3.1851,3.1957,0.0,3.2959,3.2732,3.2679,3.2679,0.0,0.0,3.2358,3.2305,3.2118,3.2144,3.1931,3.1396,3.1102,3.0635,3.0007,2.9352,2.8898,2.8604,2.8297,2.8221,2.8221,2.8221,2.8221,2.8207,2.7883,2.7575,2.7228,2.668,2.6119,2.5558,2.5211,2.493,2.4649,2.4115,2.3861,2.3701,0.0,0.0,0.0,0.0,0.0,0.0,0.0,1.984,2.0067,2.0153,2.0762,2.0909,2.0321,2.012,1.9907,0.0,0.0,0.0,0.0,0.0,0.0,0.0,1.9586,1.9586,1.9586,1.988,0.0,0.0,0.0,0.0,0.0,0.0,0.0,0.0,0.0,0.0,0.0,0.0,0.0,0.0,0.0,0.0,0.0,0.0,0.0,0.0,0.0,0.0,0.0,0.0,2.35,2.5224,2.7308,2.8978,3.0408,3.1557,3.2118,3.2532,3.34,3.3654,3.34,3.2358,3.0768,2.8831,2.644,0.0,0.0,0.0,1.9065,1.8368,1.829,1.9332,0.0,2.2913,2.4489,2.664,3.002,3.0648,0.0,3.2986,3.32,3.3146,0.0,3.2839,3.2625,3.2332,3.2171,3.2091,3.2104,3.181,3.1517,3.1236,3.0648,3.0127,2.97,2.9112,2.8657,2.8364,2.8301,2.8221,2.8221,2.8221,2.814,2.7896,2.7762,2.7442,2.7001,2.6573,2.6039,2.5478,2.5197,2.481,2.4382,2.4102,2.3808,2.35,0.0,0.0,0.0,0.0,0.0,0.0,0.0,2.004,2.0281,2.0401,2.1136,2.1507,2.0922,2.0601,2.0281,0.0,0.0,0.0,0.0,0.0,0.0,0.0,0.0,1.9893,1.9893,0.0,0.0,0.0,0.0,0.0,0.0,0.0,0.0,0.0,0.0,0.0,0.0,0.0,0.0,0.0,0.0,0.0,0.0,0.0,0.0,0.0,0.0,0.0,0.0,0.0,2.31,2.4957,2.7014,2.9219,3.1142,3.1664,3.2372,3.3066,3.3494,3.3748,3.3534,3.2038,3.0154,2.7936,2.517,2.2792,0.0,0.0,1.825,1.7969,1.7902,1.8758,1.9853,0.0,2.2645,2.473,2.7883,2.9138,3.0488,0.0,3.316,0.0,3.3093,3.2866,0.0,3.2398,3.2064,3.1904,3.2011,3.157,3.1263,3.1129,3.0408,2.9806,2.9392,2.8925,2.8511,2.8221,2.8221,2.8221,2.8221,2.8221,2.7976,2.7696,2.7629,2.7308,2.6787,2.6373,2.5932,2.5478,2.5117,2.4663,2.4195,2.4142,2.3781,2.3313,0.0,0.0,0.0,0.0,0.0,0.0,0.0,2.004,2.0428,2.0962,2.1563,2.183,2.1574,2.1203,2.0802,0.0,0.0,0.0,0.0,0.0,0.0,0.0,0.0,0.0,0.0,0.0,0.0,0.0,0.0,0.0,0.0,0.0,0.0,0.0,0.0,0.0,0.0,0.0,0.0,0.0,0.0,0.0,0.0,0.0,0.0,0.0,0.0,0.0,0.0,0.0,0.0,2.3247,2.4275,2.7295,3.0501,3.0822,0.0,0.0,3.4002,3.4068,3.3534,3.2038,2.9526,2.6867,2.473,0.0,0.0,1.8691,1.825,1.7902,1.7675,1.7943,1.8771,2.0481,0.0,2.3182,2.6867,2.839,2.9887,3.1944,0.0,0.0,3.3374,3.3347,3.332,3.3293,3.2786,3.2238,3.173,3.1664,3.1383,3.0849,3.0501,2.9913,2.9085,2.9032,2.8711,2.8221,2.8221,2.8221,2.8221,2.8221,2.7976,2.7682,2.7415,2.7121,2.676,2.5932,2.5558,2.5451,2.489,2.4476,2.4168,2.3915,2.3607,2.3287,0.0,0.0,0.0,0.0,0.0,0.0,1.9733,2.004,2.0441,2.1029,2.1617,2.1937,2.183,2.171,2.1323,2.0561,0.0,0.0,0.0,0.0,0.0,0.0,0.0,0.0,0.0,0.0,0.0,0.0,0.0,0.0,0.0,0.0,0.0,0.0,0.0,0.0,0.0,0.0,0.0,0.0,0.0,0.0,0.0,0.0,0.0,0.0,0.0,0.0,0.0,0.0,0.0,0.0,2.155,2.3661,0.0,0.0,3.0114,3.145,3.2866,3.3561,3.344,3.1597,2.9058,2.6466,2.4409,0.0,1.9118,1.8597,1.8103,1.7729,1.7609,1.7689,1.8063,1.8945,1.9292,2.0535,2.3647,2.4796,2.6613,3.0114,3.1142,0.0,0.0,0.0,3.3,3.2652,3.2412,3.2024,3.1436,3.1236,3.1036,3.0795,2.9993,2.9392,2.9045,2.8684,2.8377,2.8221,2.8221,2.8221,2.8221,2.7963,2.7722,2.7415,2.7121,2.6734,2.6279,2.5919,2.5571,2.5224,2.4997,2.4516,2.3928,2.3808,2.346,2.306,0.0,0.0,0.0,0.0,0.0,1.9118,1.9706,2.012,2.0548,2.1042,2.1697,2.2044,2.1884,2.1857,2.1577,2.0869,2.0802,0.0,0.0,0.0,0.0,0.0,0.0,0.0,0.0,0.0,0.0,2.1109,0.0,0.0,0.0,0.0,0.0,0.0,0.0,0.0,0.0,0.0,0.0,0.0,0.0,0.0,0.0,0.0,0.0,0.0,0.0,0.0,0.0,0.0,0.0,0.0,0.0,0.0,0.0,0.0,2.8123,2.9873,3.1463,3.2679,3.3053,3.1249,2.8657,2.6079,0.0,2.1256,1.8838,1.8557,1.8076,1.7689,1.7595,1.7582,1.7649,1.7876,1.8009,1.9011,2.139,2.2458,2.4356,0.0,0.0,3.0247,3.2305,3.2866,3.2866,3.2278,3.2238,3.1944,3.1263,3.0862,3.0621,3.0541,2.9646,2.9085,2.8911,2.8484,2.8315,2.8221,2.8221,2.8221,2.8221,2.7829,2.7535,2.7241,2.6867,2.6413,2.6023,2.5849,2.5451,2.5077,2.4983,2.4462,2.3768,2.3768,2.338,2.2968,0.0,0.0,0.0,0.0,0.0,0.0,1.9706,2.0294,2.0775,2.1069,2.1871,2.2191,2.1681,2.1614,2.1494,2.1136,2.1109,0.0,0.0,0.0,0.0,0.0,0.0,0.0,0.0,0.0,2.1109,2.1109,2.1109,2.1109,0.0,0.0,0.0,0.0,0.0,0.0,0.0,0.0,0.0,0.0,0.0,0.0,0.0,0.0,0.0,0.0,0.0,0.0,0.0,0.0,0.0,0.0,0.0,0.0,0.0,0.0,2.6092,2.8871,3.006,3.1544,3.2278,3.1089,2.8364,2.5661,0.0,2.1256,1.8838,1.8557,1.825,1.7889,1.7635,1.7582,1.7582,1.7582,1.809,1.9105,2.0869,2.2392,2.3995,0.0,0.0,2.811,3.0194,3.2225,3.316,3.2683,3.2545,0.0,3.1276,3.0675,3.0234,2.994,2.9633,2.9205,2.8617,2.8604,2.8444,2.8221,2.8221,2.8221,2.8221,2.7829,2.7535,2.7228,2.6653,2.6226,2.5919,2.5331,2.509,2.505,2.4756,2.4289,2.3768,2.3768,2.338,2.2928,0.0,0.0,0.0,0.0,0.0,0.0,0.0,1.9706,2.0187,2.0468,2.0922,2.1229,2.1256,2.1069,2.1002,2.1096,2.0922,0.0,0.0,0.0,0.0,0.0,0.0,0.0,0.0,0.0,2.1109,2.1109,2.1109,2.1109,2.1109,2.1109,2.1109,0.0,0.0,0.0,0.0,0.0,0.0,0.0,0.0,0.0,0.0,0.0,0.0,0.0,0.0,0.0,0.0,0.0,0.0,0.0,0.0,0.0,0.0,2.0722,0.0,0.0,2.668,2.7829,2.835,2.7175,2.5358,2.3638,2.2566,2.0374,1.8597,1.8504,1.809,1.7702,1.7595,1.7582,1.7782,1.8397,1.849,1.8958,2.0321,0.0,0.0,2.6239,2.9459,3.173,0.0,0.0,3.2959,3.267,3.2171,3.165,3.0969,3.0368,3.0007,2.9913,2.9245,2.8791,2.8604,2.839,2.8243,2.8221,2.8221,2.8114,2.7829,2.7535,2.7241,2.6934,2.6346,2.5919,2.5625,2.5237,2.4957,2.477,2.4676,2.4289,2.3794,2.3995,2.3688,2.3207,0.0,0.0,0.0,0.0,0.0,0.0,0.0,1.9492,1.9867,2.004,2.0321,2.0575,2.0762,2.0521,2.0468,2.0748,2.0615,0.0,0.0,0.0,0.0,0.0,0.0,0.0,0.0,2.0462,2.0514,2.1269,2.139,2.139,2.1283,2.139,2.1323,2.1109,2.1109,0.0,0.0,0.0,0.0,0.0,0.0,0.0,0.0,0.0,0.0,0.0,0.0,0.0,0.0,0.0,0.0,0.0,0.0,0.0,0.0,0.0,2.0312,2.1626,0.0,2.5411,2.5985,2.5264,2.3875,2.2472,2.159,1.988,1.8464,1.8343,1.7929,1.7582,1.7582,1.7582,1.7769,1.833,1.8263,1.8597,0.0,0.0,0.0,2.6293,0.0,0.0,0.0,3.2625,3.2812,3.2412,3.1944,3.137,3.0662,3.0074,2.9646,2.9432,2.8885,2.8551,2.843,2.8243,2.8221,2.8221,2.8114,2.7883,2.7682,2.7281,2.7001,2.6787,2.6213,2.5785,0.0,2.5197,2.4903,2.4623,2.4516,2.4249,2.3941,2.4008,2.3741,2.3367,0.0,0.0,0.0,0.0,0.0,0.0,0.0,1.9586,1.9773,1.9773,2.0,2.0113,2.0113,1.9933,1.988,2.0174,0.0,0.0,0.0,0.0,0.0,0.0,0.0,0.0,2.1046,1.9483,1.9606,2.1588,2.1673,2.1686,2.1628,2.1686,2.1527,2.1136,2.1122,0.0,0.0,0.0,0.0,0.0,0.0,0.0,0.0,0.0,0.0,0.0,0.0,0.0,0.0,0.0,0.0,0.0,0.0,0.0,0.0,0.0,0.0,0.0,0.0,2.3861,2.4703,2.4676,2.3434,2.1991,2.1176,1.9693,0.0,1.8075,1.7809,1.7595,1.7609,1.7595,1.7609,1.7689,1.7689,1.8183,0.0,2.1069,0.0,0.0,2.8978,0.0,3.0074,3.1784,3.2679,3.2078,3.173,3.1183,3.0341,2.974,2.9165,2.8631,2.8591,2.843,2.8234,2.8221,2.8221,2.8194,2.7829,2.7682,2.7615,2.7068,2.6814,2.676,2.6172,2.5785,2.5518,2.5184,2.4903,2.4636,2.4342,2.4222,2.4168,2.3928,2.3634,2.3407,0.0,0.0,0.0,0.0,0.0,0.0,0.0,0.0,0.0,0.0,1.9533,1.9573,1.9573,1.9506,1.9586,0.0,0.0,0.0,0.0,0.0,0.0,0.0,0.0,0.0,2.1109,2.0716,2.0755,2.1216,2.0048,2.0226,2.155,2.016,2.0188,2.1443,2.1203,2.1109,0.0,0.0,0.0,0.0,0.0,0.0,0.0,0.0,0.0,0.0,2.0,1.972,0.0,0.0,0.0,0.0,0.0,0.0,0.0,0.0,1.8323,1.7588,1.9711,0.0,2.0989,2.0762,2.0388,2.0027,0.0,1.9105,1.8477,1.8397,1.7956,1.7649,1.7889,1.7742,1.7876,1.8854,1.8758,1.9052,2.0294,2.3621,0.0,2.9152,3.1356,3.2318,3.1356,3.1891,3.2064,3.1476,3.0742,3.014,2.9713,2.9138,2.8751,2.8604,2.8377,2.8301,2.8221,2.8221,2.8114,2.7802,2.7736,2.7468,2.7028,2.6881,2.6694,2.6453,2.5865,2.5705,2.5798,2.505,2.4836,2.4943,2.4649,2.4396,2.4222,2.4382,2.4102,2.3701,0.0,0.0,0.0,0.0,0.0,0.0,0.0,0.0,0.0,0.0,0.0,1.943,1.943,1.943,0.0,0.0,0.0,0.0,0.0,0.0,0.0,0.0,0.0,2.0259,2.1109,2.0322,2.0004,2.0131,1.9405,1.9537,2.0548,1.9537,1.9948,2.1601,2.1243,2.1109,0.0,0.0,0.0,0.0,0.0,0.0,0.0,0.0,0.0,0.0,1.9907,1.9129,0.0,1.6444,1.6973,1.7864,0.0,0.0,0.0,0.0,1.7125,1.6343,1.8726,1.9479,1.9559,1.947,1.943,1.939,1.9199,1.8918,1.8611,1.8343,1.8023,1.7809,1.7822,1.7809,1.8009,1.8651,1.8851,1.9666,0.0,0.0,2.7883,3.01,3.169,3.2358,0.0,3.169,3.1463,3.0875,3.014,2.9593,2.9299,2.8845,2.8537,2.8404,2.8096,2.7936,2.7936,2.7936,2.7789,2.7495,2.7362,2.7134,2.6814,2.668,2.6466,2.6172,2.5852,2.5651,2.5518,2.5037,2.485,2.485,2.4556,2.4422,2.4409,2.4422,2.4155,2.3834,0.0,0.0,0.0,0.0,0.0,0.0,0.0,0.0,0.0,0.0,0.0,0.0,0.0,0.0,0.0,0.0,0.0,0.0,0.0,0.0,0.0,0.0,0.0,1.9483,2.0652,1.9291,1.8489,1.8503,1.8606,1.89,1.9468,1.9168,1.9736,2.1135,2.0834,2.0716,0.0,0.0,0.0,0.0,0.0,0.0,0.0,0.0,0.0,0.0,0.0,0.0,0.0,1.5133,1.5666,1.6421,1.3191,0.0,0.0,0.0,0.0,0.0,1.8564,1.9466,1.9479,1.9444,1.943,1.9305,1.9052,0.0,0.0,0.0,0.0,0.0,0.0,1.7996,0.0,1.8249,0.0,0.0,2.3781,2.5879,2.7909,3.01,3.1209,0.0,3.149,3.1276,3.0902,3.0274,2.9686,2.9219,2.8925,2.8671,2.8417,2.8234,2.7856,2.7682,2.7629,2.7629,2.7482,2.7201,2.6947,2.68,2.6747,2.6453,2.6186,2.5959,2.5865,2.5571,2.5144,2.505,2.489,2.4676,2.4382,2.4422,2.4609,2.4356,2.4062,2.3834,0.0,0.0,0.0,0.0,0.0,0.0,0.0,0.0,0.0,0.0,0.0,0.0,0.0,0.0,0.0,0.0,0.0,0.0,0.0,0.0,0.0,1.6302,1.9152,2.0132,1.8896,1.864,1.7818,1.6353,1.5462,1.6629,1.9672,1.8026,1.7809,1.8956,1.892,1.8896,1.8896,0.0,0.0,0.0,0.0,0.0,0.0,0.0,0.0,0.0,0.0,0.0,0.0,1.5133,1.5666,1.6387,1.3076,0.0,0.0,0.0,0.0,0.0,1.8795,1.9907,1.9987,1.9492,1.943,1.9417,1.9305,1.9105,0.0,0.0,0.0,0.0,0.0,1.8758,1.8958,1.9452,2.0855,2.2926,0.0,0.0,2.8831,3.0194,0.0,3.1917,3.0675,3.0742,3.0515,2.9686,2.9072,2.8604,2.8382,2.8243,2.8274,2.8221,2.7856,2.7575,2.7335,2.7335,2.7188,2.6894,2.6841,2.6694,2.6453,2.6159,2.6077,2.601,2.5424,2.5304,2.5411,2.4917,2.4823,2.4983,2.469,2.4596,2.4636,2.4583,2.4235,2.3754,0.0,0.0,0.0,0.0,0.0,0.0,0.0,0.0,0.0,0.0,0.0,0.0,0.0,0.0,0.0,0.0,0.0,0.0,0.0,0.0,0.0,1.5964,1.7476,1.7923,1.7076,1.7271,1.6589,1.501,1.5877,1.7122,1.8644,1.8382,1.7816,1.7152,1.8052,1.8512,1.8576,1.9483,0.0,0.0,0.0,0.0,0.0,0.0,0.0,0.0,0.0,0.0,0.0,0.0,1.499,1.5088,1.2718,0.0,0.0,0.0,0.0,0.0,1.8378,1.9546,1.9733,1.9626,1.972,1.976,1.9497,1.9265,1.9118,0.0,0.0,0.0,0.0,0.0,2.0321,2.1724,2.302,2.4489,2.6333,2.7468,2.8564,0.0,0.0,3.0688,3.0167,2.9953,2.9619,2.9058,2.8604,2.8217,2.7923,2.7896,2.7829,2.7752,2.7375,2.7161,2.7028,2.672,2.6573,2.6587,2.6587,2.644,2.6146,2.609,2.5785,2.5464,2.5197,2.497,2.4783,2.4516,2.4396,2.4356,2.4222,2.4168,2.4155,2.3995,2.3861,2.3728,0.0,0.0,0.0,0.0,0.0,0.0,0.0,0.0,0.0,0.0,0.0,0.0,0.0,0.0,0.0,0.0,0.0,0.0,0.0,0.0,1.391,1.5375,1.5016,1.496,1.5499,1.575,1.5459,1.4563,1.6149,1.6934,1.7019,1.8233,1.7586,1.5394,1.7076,1.7859,1.7988,1.9355,1.9355,0.0,0.0,0.0,0.0,0.0,0.0,0.0,0.0,0.0,0.0,0.0,0.0,0.0,0.0,0.0,0.0,1.3744,1.3994,1.4823,1.802,1.9239,1.9586,1.9679,1.9867,2.0,1.9907,1.9826,1.9773,1.9746,0.0,0.0,0.0,2.0241,2.1777,2.3581,2.4836,2.5905,2.6787,2.7602,2.8484,2.9472,2.9579,2.9646,2.9806,2.9339,2.8925,2.8631,2.8257,2.7936,2.7709,2.7629,2.7495,2.7268,2.6974,2.6787,2.672,2.6213,2.6066,2.6293,2.6213,2.6066,2.5852,2.5785,2.5504,2.5077,2.493,2.4623,2.4195,2.4128,2.3968,2.3768,2.3768,2.3768,2.3741,2.3514,2.3527,2.3634,0.0,0.0,0.0,0.0,0.0,0.0,0.0,0.0,0.0,0.0,0.0,0.0,0.0,0.0,0.0,0.0,0.0,0.0,0.0,0.0,1.3325,1.3473,1.2052,1.2209,1.4277,1.4319,1.4732,1.5567,1.4064,1.3911,1.4982,1.6436,1.5866,1.3578,1.5329,1.6108,1.6108,1.6237,1.7152,1.8372,0.0,0.0,0.0,0.0,0.0,0.0,0.0,0.0,0.0,0.0,0.0,0.0,0.0,0.0,1.1939,1.3331,1.3872,1.4823,1.802,1.9533,2.004,1.9533,1.9412,1.9832,2.1159,2.1176,2.1203,2.2004,0.0,0.0,0.0,2.1897,2.3033,2.4008,2.5825,2.7415,2.8323,2.8978,2.9486,2.9847,2.9887,2.978,2.9539,2.9232,2.8925,2.8631,2.8056,2.7722,2.7696,2.7442,2.7281,2.7268,2.6974,2.6694,2.6426,2.6106,2.605,2.6063,2.5705,2.5558,2.5531,2.5264,2.5117,2.505,2.4502,2.4249,2.4182,2.3915,2.3794,2.3768,2.3768,2.3768,2.3768,2.3741,2.3581,2.3354,0.0,0.0,0.0,0.0,0.0,0.0,0.0,0.0,0.0,0.0,0.0,0.0,0.0,0.0,0.0,0.0,0.0,0.0,0.0,1.18,1.1636,1.1777,1.1154,1.133,1.2523,1.2809,1.3319,1.4159,1.4459,1.4825,1.5283,1.5193,1.449,1.3325,1.397,1.4874,1.5913,1.5913,1.5654,1.52,1.4558,0.0,0.0,0.0,0.0,0.0,0.0,0.0,0.0,0.0,1.1853,1.1545,1.0843,1.0914,1.1376,1.1918,1.294,1.4298,1.647,1.8313,1.9639,1.9426,1.9639,2.0187,2.136,2.1603,2.1857,2.2552,2.2819,2.2846,2.2539,0.0,2.3834,2.509,2.6787,2.8003,2.8537,2.8951,2.9245,2.9352,2.9219,2.9058,2.8951,2.8657,2.8364,2.807,2.7829,2.7535,2.7175,2.7054,2.6907,2.672,2.644,2.6226,2.6119,2.5651,2.5411,2.5411,2.5478,2.5424,2.5237,2.4943,2.4703,2.4516,2.4115,2.3834,2.3647,2.3541,2.338,2.3207,2.3207,2.3207,2.3207,2.3207,2.314,2.3033,0.0,0.0,0.0,0.0,0.0,0.0,0.0,0.0,0.0,0.0,0.0,0.0,0.0,0.0,0.0,0.0,0.0,0.0,1.0333,1.0412,1.0609,1.0799,1.0819,1.105,1.1606,1.1864,1.2706,1.4143,1.5168,1.5259,1.4481,1.3554,1.2966,1.2558,1.3087,1.4006,1.5165,1.5098,1.4362,1.3259,1.2676,1.1984,0.0,0.0,0.0,0.0,0.0,0.0,0.0,0.0,1.0975,1.0744,1.0691,1.0548,1.0562,1.1538,1.2385,1.3523,1.5813,1.7446,1.868,1.911,1.98,2.0722,2.2084,2.2539,2.2979,2.4035,2.4075,2.3821,2.3527,0.0,0.0,2.5625,2.7201,2.8323,2.8444,2.8711,2.8871,2.8764,2.8577,2.8417,2.8337,2.8123,2.7883,2.7589,2.7388,2.7108,2.6707,2.6507,2.6319,2.6119,2.5825,2.5638,2.5545,2.505,2.4756,2.4663,2.4863,2.4903,2.4796,2.4502,2.4249,2.4048,2.3754,2.3514,2.3313,2.322,2.306,2.2941,2.2966,2.3006,2.3033,2.322,2.3166,2.302,0.0,0.0,0.0,0.0,0.0,0.0,0.0,0.0,0.0,0.0,0.0,0.0,0.0,0.0,0.0,0.0,0.0,0.0,1.027,1.0412,1.0555,1.0711,1.0793,1.1082,1.1599,1.1748,1.323,1.613,1.613,1.4686,1.1823,1.1531,1.1233,1.1002,1.2558,1.3368,1.3461,1.3335,1.3259,1.3128,1.1372,1.1599,0.0,0.0,0.0,0.0,0.0,0.0,0.0,0.0,0.9337,0.9187,0.8988,0.8885,0.9485,1.2408,1.244,1.2386,1.6468,1.7156,1.7032,1.8521,1.9826,2.1309,2.3674,2.4209,2.4796,2.6841,2.5638,2.4128,2.3848,2.4262,0.0,2.5424,2.7255,2.8497,2.8274,2.8404,2.8484,2.8261,2.8221,2.8016,2.7722,2.7696,2.7562,2.7281,2.672,2.6386,2.6373,2.5825,2.5504,2.5504,2.5224,2.493,2.4636,2.4342,2.4062,2.3768,2.3768,2.3915,2.4195,2.3901,2.3768,2.3754,2.3447,2.3327,2.33,2.2993,2.2928,2.2886,2.3207,2.3327,2.3394,2.3981,2.3821,2.3367,0.0,0.0,0.0,0.0,0.0,0.0,0.0,0.0,0.0,0.0,0.0,0.0,0.0,0.0,0.0,0.0,0.0,0.0,1.0107,1.0154,1.0249,1.0405,1.0548,1.069,1.0826,1.1179,1.2063,1.3479,1.3361,1.2667,1.1518,1.143,1.1855,1.2566,1.2022,1.2404,1.3269,1.1982,1.1505,1.1439,1.0916,1.0885,0.0,0.0,0.0,0.0,0.0,0.0,0.0,0.0,0.0,0.0,0.9022,0.9008,0.9237,1.0004,1.0738,1.1857,1.4221,1.5781,1.7223,1.9325,2.0882,0.0,0.0,2.4663,0.0,0.0,2.6293,2.5411,2.5317,2.5451,2.5692,2.6066,2.7161,2.8003,2.8207,2.8301,2.8163,2.7869,2.7829,2.7722,2.7415,2.7201,2.6961,2.6667,2.6306,2.5905,2.5491,2.5304,2.5117,2.4903,2.4609,2.4422,2.4329,2.4048,2.3861,2.3768,2.3554,2.3607,2.3888,2.3594,2.346,2.3447,2.314,2.3006,2.2993,2.2899,2.2739,2.2579,2.2886,2.3006,2.302,2.3193,2.3153,2.3006,0.0,0.0,0.0,0.0,0.0,0.0,0.0,0.0,0.0,0.0,0.9822,0.9822,0.0,0.0,0.0,0.0,0.0,0.0,0.0,1.0017,1.0078,1.0351,1.0446,1.0548,1.067,1.0995,1.1355,1.1755,1.1843,1.1687,1.1307,1.1484,1.1909,1.2533,1.1776,1.1879,1.245,1.1386,1.0826,1.0717,1.0717,1.0663,1.0561,0.0,0.0,0.0,0.0,0.0,0.0,0.0,0.0,0.0,0.8939,0.8994,0.9161,0.9618,1.0524,1.1875,1.3975,1.5693,1.7501,2.0099,2.1777,2.3273,2.517,0.0,0.0,0.0,2.7001,2.6333,2.6453,2.6293,0.0,2.6667,2.7375,2.7936,2.8207,2.8127,2.7896,2.7722,2.7495,2.7241,2.6947,2.6653,2.6306,2.5892,2.5598,2.5224,2.4756,2.4623,2.4422,2.4056,2.3821,2.3674,2.3674,2.3273,2.3113,2.3233,2.2939,2.2886,2.306,2.2993,2.2966,2.2953,2.2645,2.2512,2.2512,2.2512,2.2405,2.2271,2.2565,2.2752,2.2873,2.3006,2.3046,2.3046,0.0,0.0,0.0,0.0,0.0,0.0,0.0,0.0,0.0,0.0,0.9822,0.9822,0.0,0.0,0.0,0.0,0.0,0.0,0.0,0.0,1.0148,1.0419,1.046,1.0616,1.0853,1.1056,1.1056,1.086,1.1362,1.1423,1.1131,1.1606,1.1667,1.1382,1.1694,1.166,1.1362,1.1192,1.0968,1.0717,1.0717,1.0711,1.067,1.0385,0.0,0.0,0.0,0.0,0.0,0.0,0.0,0.0,0.8885,0.8892,0.9175,1.0515,1.107,1.1939,1.4977,1.6376,1.7829,2.099,2.2712,2.4182,2.6106,2.7589,2.8551,2.8497,0.0,2.7054,2.7268,2.6894,2.6707,2.7188,2.7819,2.8167,2.8114,2.7789,2.7602,2.7549,2.7068,2.6613,2.6306,2.5999,2.5611,2.5037,2.473,2.4422,2.4102,2.3834,2.3541,2.322,2.2926,2.2847,2.2847,2.2258,2.2124,2.2378,2.2111,2.1991,2.1991,2.2258,2.2392,2.2405,2.2111,2.1991,2.1991,2.1991,2.1977,2.1977,2.2271,2.2539,2.2819,2.31,2.322,2.3247,0.0,0.0,0.0,0.0,0.0,0.0,0.0,0.0,0.0,0.0,0.0,0.0,0.0,0.0,0.0,0.0,0.0,0.0,0.0,0.0,0.9897,0.9964,1.0195,1.0466,1.0765,1.0799,1.0799,1.0772,1.1097,1.1104,1.0833,1.1511,1.1606,1.1226,1.1647,1.1599,1.1192,1.0928,1.0778,1.0717,1.0717,1.0649,1.0521,1.0344,1.0209,0.0,0.0,0.0,0.0,0.0,0.0,0.0,0.8974,0.9015,0.9139,0.9355,0.9538,1.0439,1.3956,1.536,0.0,2.1774,2.469,2.6653,2.7645,2.81,2.811,2.7655,2.7909,2.8096,2.7682,2.7696,2.7738,2.7321,2.7562,2.7629,2.7175,2.7054,2.6841,2.6386,2.6226,2.5932,2.5411,2.509,2.477,2.4422,2.4115,2.3728,2.318,2.3086,2.2819,2.2285,2.2205,2.2178,2.2178,2.2044,2.2017,2.2084,2.2017,2.1991,2.1991,2.2044,2.2205,2.2405,2.2111,2.1991,2.1991,2.1991,2.1857,2.1735,2.1964,2.2111,2.2178,2.2245,2.2418,2.2619,0.0,0.0,0.0,0.0,0.0,0.0,0.0,0.0,0.0,0.0,0.0,0.0,0.0,0.0,0.0,0.0,0.0,0.0,0.0,0.9863,0.9883,1.0032,1.0256,1.0487,1.0717,1.0717,1.0717,1.0717,1.0873,1.0948,1.0948,1.1626,1.1816,1.1678,1.1986,1.1864,1.1355,1.0989,1.0744,1.0602,1.0534,1.046,1.0371,1.0229,1.012,0.9957,0.9802,0.0,0.0,0.0,0.0,0.0,0.0,0.0,0.9035,0.8905,0.9594,1.0884,1.3603,1.5612,0.0,2.3093,0.0,2.7549,2.7856,2.7829,2.7712,2.7321,2.7749,2.807,2.7762,2.7709,2.7575,2.7121,2.7175,2.7121,2.668,2.6493,2.6239,2.5798,2.5491,2.5157,2.4703,2.4396,2.4035,2.3594,2.342,2.3073,2.2472,2.2445,2.2245,2.179,2.1777,2.1777,2.1777,2.163,2.163,2.1842,2.163,2.1563,2.1563,2.171,2.1777,2.1777,2.163,2.1563,2.1563,2.1563,2.147,2.1349,2.151,2.1657,2.1777,2.1777,2.1964,2.2218,0.0,0.0,0.0,0.0,0.0,0.0,0.0,0.0,0.0,0.0,0.0,0.0,0.0,0.0,0.0,0.0,0.0,0.0,0.0,0.989,0.9958,1.027,1.0365,1.0514,1.0717,1.0697,1.0697,1.0717,1.0717,1.0928,1.1398,1.1803,1.204,1.2149,1.2291,1.2088,1.1552,1.107,1.0724,1.048,1.0337,1.0263,1.0229,1.0038,0.9957,0.9883,0.97,0.951,0.9361,0.9262,0.0,0.0,0.0,0.0,0.8974,0.8892,0.9906,1.1436,1.323,1.6238,1.9883,2.4253,2.6386,0.0,2.7522,2.7321,2.7121,2.7121,2.7348,2.7535,2.7482,2.7268,2.7001,2.6653,2.664,2.656,2.6213,2.5959,2.5678,2.5331,2.485,2.4409,2.4008,2.3754,2.3367,2.2752,2.2712,2.2539,2.1937,2.1911,2.1777,2.1547,2.1534,2.1534,2.1534,2.1229,2.1229,2.1534,2.1229,2.1109,2.1122,2.1363,2.1376,2.1189,2.1136,2.1136,2.1189,2.1136,2.1109,2.1109,2.1109,2.1256,2.1534,2.1534,2.1657,2.1911,0.0,0.0,0.0,0.0,0.0,0.0,0.0,0.0,0.0,0.0,0.9822,0.9822,0.9822,0.9822,0.0,0.0,0.0,0.0,0.9849,0.0,0.0,1.027,1.0168,1.0297,1.0711,1.0588,1.0588,1.0717,1.0717,1.1138,1.2012,1.1884,1.1932,1.206,1.1959,1.1735,1.1382,1.0799,1.0527,1.048,1.0337,1.0202,1.0017,0.9997,0.9829,0.9659,0.9625,0.951,0.9361,0.9262,0.9282,0.0,0.0,0.0,0.9096,0.8974,0.9064,0.9683,1.1737,0.0,2.0798,0.0,2.5478,2.6319,0.0,0.0,2.6507,0.0,2.6734,2.6867,2.6613,2.6533,2.6333,2.5772,2.5905,2.5879,2.5331,2.5224,2.4997,2.4449,2.4302,2.3941,2.3113,2.3006,2.2739,2.2151,2.2098,2.1964,2.1695,2.1681,2.147,2.1176,2.1162,2.1162,2.1162,2.1122,2.1122,2.1162,2.1122,2.1109,2.1109,2.1149,2.1283,2.1547,2.1216,2.1256,2.1534,2.1216,2.1109,2.1109,2.1109,2.1136,2.1162,2.1162,2.1349,2.1681,0.0,0.0,0.0,0.0,0.0,0.0,0.0,0.0,0.0,0.0,0.0,0.9822,0.9822,0.9822,0.0,0.0,0.0,0.0,0.9822,0.9822,0.0,0.0,1.0215,1.0351,1.0711,1.0656,1.0609,1.0595,1.0677,1.1226,1.2189,1.2203,1.2427,1.2793,1.2305,1.1972,1.1708,1.0772,1.0371,1.0351,1.012,1.0032,0.9977,0.9896,0.9835,0.9775,0.9666,0.9564,0.949,0.9334,0.9327,0.9347,0.913,0.0,0.0,0.0,0.8885,0.9686,1.3249,1.6757,2.0288,0.0,2.481,2.5331,2.5745,2.5879,2.5798,2.5478,2.5504,2.5705,2.6079,2.5879,2.5518,2.509,2.4997,2.4823,2.4409,2.4342,2.4182,2.3768,2.3554,2.3233,2.2672,2.2472,2.2191,2.1842,2.1815,2.1617,2.1323,2.1309,2.1243,2.1109,2.1109,2.1109,2.1109,2.1109,2.1029,2.0869,2.0695,2.0615,2.0628,2.0788,2.1029,2.1296,2.1162,2.1189,2.1296,2.1162,2.1109,2.1109,2.1109,2.1109,2.1109,2.1109,2.1189,2.1309,0.0,0.0,0.0,0.0,0.0,0.0,0.0,0.0,0.0,0.0,0.0,0.0,0.9822,0.0,0.0,0.0,0.0,0.0,0.9822,0.0,0.0,0.0,0.0,1.0344,1.0602,1.0609,1.0555,1.0439,1.0588,1.124,1.2345,1.2494,1.2983,1.3709,1.2922,1.2379,1.1993,1.0948,1.0527,1.0521,1.0066,0.9862,0.9923,0.9951,0.9937,0.9856,0.9727,0.9639,0.9585,0.9435,0.9429,0.9456,0.9282,0.9234,0.0,0.0,0.0,0.9756,0.0,0.0,1.814,2.1769,2.2949,2.3523,0.0,0.0,2.485,0.0,2.4356,2.4502,2.517,2.4997,2.4649,2.4356,2.4115,2.3875,2.3581,2.3541,2.3434,2.3126,2.2886,2.2605,2.2231,2.2004,2.175,2.147,2.144,2.1229,2.1015,2.0922,2.0882,2.0882,2.0882,2.0882,2.0882,2.0882,2.0775,2.0561,2.0334,2.0167,2.0241,2.0468,2.0681,2.0895,2.1042,2.1109,2.1109,2.1109,2.1109,2.1109,2.1109,2.1109,2.1109,2.1109,2.1109,2.1109,0.0,0.0,0.0,0.0,0.0,0.0,0.0,0.0,0.0,0.0,0.0,0.0,0.9822,0.9822,0.9822,0.9822,0.0,0.0,0.0,0.0,0.0,0.0,0.0,0.0,1.0297,1.0304,1.0297,1.029,1.0432,1.1185,1.2494,1.2651,1.3417,1.4631,1.3743,1.2868,1.2094,1.1389,1.1199,1.126,1.0321,0.9896,0.9863,1.0148,0.9998,0.9646,0.9768,0.9727,0.9585,0.9435,0.9564,0.972,0.935,0.9309,0.9313,0.0,0.0,0.0,0.0,1.2237,0.0,1.7468,1.9076,0.0,0.0,0.0,2.3514,2.3768,2.3594,2.3407,2.346,2.3674,2.3741,2.3447,2.338,2.326,2.2953,2.2981,2.2792,2.2498,2.2445,2.2218,2.1722,2.1655,2.1456,2.1149,2.0882,2.0722,2.0695,2.0428,2.0281,2.0281,2.0281,2.0281,2.0281,2.0281,2.0267,2.0254,2.0241,2.0167,2.0167,2.0254,2.0207,2.0307,2.0869,2.1109,2.1109,2.1109,2.1109,2.1109,2.1109,2.1109,2.1109,2.1109,2.1109,2.1109,0.0,0.0,0.0,0.0,0.0,0.0,0.0,0.0,0.0,0.0,0.0,0.0,0.0,0.9822,0.9822,0.9822,0.9822,0.0,0.0,0.0,0.0,0.0,0.0,0.0,1.0276,1.0283,1.0236,1.0134,1.0283,1.0846,1.1796,1.2244,1.2752,1.3295,1.3071,1.2793,1.2413,1.1233,1.0711,1.0649,1.0331,1.0168,1.012,1.0127,1.0093,1.0019,0.9876,0.9788,0.9734,0.968,0.9734,0.9774,0.9523,0.9415,0.932,0.9028,0.8885,0.9321,0.0,0.0,0.0,1.5686,1.7511,1.8845,1.9834,2.1447,2.2672,2.2405,2.2565,2.2686,2.2498,2.2699,2.2873,2.2766,2.2592,2.2432,2.2311,2.2298,2.2258,2.2151,2.1977,2.1777,2.1641,2.1376,2.1149,2.0855,2.0735,2.0588,2.0401,2.0294,2.0167,2.0167,2.0167,2.0167,2.0167,2.0054,1.996,1.9947,1.9773,1.9679,1.9679,1.9867,1.996,1.9973,2.0374,2.0655,2.0842,2.1029,2.1109,2.1109,2.1109,2.1109,2.1109,2.1109,2.1109,2.1109,0.0,0.0,0.0,0.0,0.0,0.0,0.0,0.0,0.9822,0.9822,0.0,0.0,0.0,0.0,0.9822,0.9822,0.9822,0.9822,0.9822,0.9822,0.0,0.0,0.0,0.0,1.0127,1.0175,1.0127,0.9909,1.0127,1.0582,1.1321,1.1775,1.2169,1.2494,1.2345,1.2447,1.2664,1.1613,1.1023,1.0778,1.0527,1.0399,1.0371,1.0521,1.0514,1.0419,1.0365,1.0215,1.0039,0.9992,0.9944,0.9869,0.9727,0.951,0.9259,0.9008,0.8885,0.9196,1.057,0.0,0.0,0.0,0.0,1.6954,1.7789,1.989,2.163,2.1443,2.171,2.1951,2.1857,2.1911,2.2017,2.2111,2.1964,2.1804,2.171,2.1697,2.1697,2.1697,2.1523,2.1427,2.1333,2.1082,2.0842,2.0548,2.0441,2.0294,2.0094,2.0,1.9947,1.9947,1.9947,1.9947,1.9947,1.9746,1.9653,1.9653,1.9466,1.943,1.943,1.9559,1.9653,1.9666,1.996,2.0254,2.0548,2.0842,2.0962,2.0975,2.1069,2.1109,2.1109,2.1109,2.1109,2.1109,0.0,0.0,0.0,0.0,0.0,0.0,0.0,0.0,0.9822,0.9822,0.0,0.0,0.0,0.0,0.0,0.9836,0.9836,0.9829,0.9822,0.9822,0.0,0.0,0.0,0.0,0.9822,0.9909,0.9909,0.9822,0.9909,1.0412,1.12,1.1294,1.1755,1.2427,1.1714,1.1877,1.2671,1.2508,1.2203,1.1755,1.1016,1.0643,1.0609,1.1321,1.124,1.0806,1.1233,1.1009,1.0493,1.0351,1.0195,0.9977,0.9876,0.9523,0.9193,0.8988,0.8892,0.8892,0.0,0.0,0.0,0.0,0.0,0.0,1.646,0.0,2.03,2.0935,2.1069,2.1162,2.1521,2.1283,2.1176,2.1534,2.1588,2.1494,2.1136,2.1082,2.1082,2.1082,2.1082,2.0975,2.0695,2.0668,2.0535,2.018,1.996,1.98,1.9786,1.9519,1.9417,1.9417,1.9359,1.9417,1.9345,1.9403,1.9417,1.9417,1.9417,1.9417,1.943,1.943,1.943,1.9386,1.9666,1.9947,2.0227,2.0535,2.0668,2.0708,2.0989,2.1096,2.1109,2.1109,2.1109,2.1109,0.0,0.0,0.0,0.0,0.0,0.9822,0.9822,0.9822,0.9822,0.0,0.0,0.0,0.9923,1.0175,1.0263,1.0161,1.0154,1.0059,0.9836,0.9822,0.9822,0.9822,0.9903,0.9916,0.9822,0.9909,0.9909,0.9822,0.9863,1.0046,1.0365,1.0622,1.0968,1.1382,1.1504,1.1572,1.1572,1.1206,1.1226,1.1463,1.0934,1.1016,1.1423,1.109,1.1138,1.1362,1.126,1.1192,1.1104,1.0846,1.0663,1.0453,0.9971,0.9666,0.9435,0.9171,0.9171,0.9211,0.8939,0.0,0.0,0.0,0.0,0.0,0.0,0.0,1.8064,1.9582,2.0013,2.0254,2.0548,2.0535,2.0508,2.0588,2.0775,2.0895,2.0802,2.0615,2.0468,2.0468,2.0468,2.0441,2.0361,2.0361,2.0241,0.0,1.984,1.9706,1.9492,1.947,1.9265,1.9052,1.9252,1.9158,1.8744,1.8945,1.9052,1.9052,1.9052,1.9158,1.943,1.943,1.943,1.943,1.9452,1.9533,1.9639,2.0147,2.0481,2.0681,2.0762,2.0922,2.1109,2.1109,2.1109,2.1109,0.0,0.0,0.0,0.9829,0.9856,0.9937,1.0005,0.9958,0.9856,0.0,0.0,0.0,1.0141,1.0575,1.0711,1.0317,1.0283,1.0202,1.0025,0.9951,0.9944,1.0012,1.01,1.01,1.0012,0.9977,0.9943,0.9856,0.9849,0.9869,0.9896,1.0134,1.031,1.0422,1.0751,1.0806,1.0683,1.0419,1.0616,1.1118,1.1165,1.1443,1.183,1.1837,1.1979,1.2169,1.2115,1.2033,1.1884,1.1463,1.105,1.0616,1.0012,0.9768,0.9639,0.934,0.9313,0.9347,0.9171,0.9184,0.0,0.0,0.0,0.0,1.3432,1.5478,1.7591,0.0,1.9239,1.9519,1.9813,1.9867,1.9907,2.0027,2.0094,2.0214,2.0454,2.0347,2.0167,2.0167,2.0167,2.0187,2.0067,2.0054,1.988,1.9466,1.9546,1.9492,1.9199,1.9065,1.8918,1.8744,1.8905,1.8838,1.849,1.8664,1.8811,1.8918,1.8918,1.9078,1.943,1.943,1.943,1.943,1.943,1.943,1.9399,1.9733,2.012,2.0508,2.0628,2.0855,2.1109,2.1109,2.1109,2.1109,0.0,0.0,0.9869,0.9963,0.9984,1.0044,1.0276,1.0175,1.0024,0.0,1.0118,1.031,1.0527,1.1084,1.1165,1.0487,1.0371,1.0317,1.0283,1.0148,1.0134,1.0276,1.0297,1.029,1.0256,1.0134,0.9997,0.9963,0.989,0.9822,0.9822,0.9822,0.9822,0.9822,0.9822,0.9897,0.9963,0.9977,1.0233,1.0758,1.1491,1.185,1.2054,1.2976,1.3207,1.3064,1.3315,1.3146,1.2705,1.2074,1.1375,1.067,1.01,0.9883,0.9788,0.951,0.9429,0.0,0.9388,0.9395,0.0,0.0,1.1257,0.0,1.3442,1.5548,1.7668,0.0,1.8651,1.8918,1.9212,1.9323,1.9359,1.9613,1.9466,1.9519,2.0107,2.0134,2.0094,2.0094,2.0054,1.9933,1.9679,1.9653,1.9439,1.8918,1.9118,1.9158,1.8891,1.8637,1.8477,1.8437,1.8477,1.8464,1.8384,1.8424,1.8584,1.8878,1.8878,1.9052,1.943,1.943,1.943,1.943,1.943,1.943,1.943,1.943,1.9706,2.0254,2.0521,2.0828,2.1109,2.1109,2.1109,2.1109,0.0,0.9727,0.9869,0.9963,0.9984,1.0078,1.0405,1.0331,1.0317,1.0555,1.1009,1.1552,1.2182,1.1952,1.164,1.1382,1.0914,1.0534,1.0297,1.0249,1.0249,1.0276,1.0392,1.0337,1.0038,1.0188,1.0114,0.9863,0.9836,0.9822,0.9822,0.9822,0.9822,0.9822,0.9822,0.9836,0.9876,0.9936,1.0236,1.0595,1.1226,1.1986,1.2752,1.2834,1.3125,1.3492,1.3424,1.3342,1.3139,1.2298,1.1599,1.1016,1.0656,1.0297,0.9909,0.9788,0.9734,0.9686,0.9449,0.9469,0.9537,0.9415,0.9816,0.0,1.2981,1.394,1.512,0.0,1.8129,1.8249,1.8611,1.8664,1.8677,1.8744,1.8891,1.9212,1.98,1.9479,1.9172,1.9172,1.8971,1.8811,1.8758,1.8744,1.8691,1.8584,1.8624,1.8637,1.8584,1.8517,1.8384,1.8089,1.837,1.825,1.7769,1.8009,1.8277,1.8571,1.8571,1.8851,1.943,1.943,1.943,1.943,1.943,1.943,1.943,1.943,1.9706,2.0241,2.0294,2.0641,2.1109,2.1109,2.1109,2.1109,0.9686,0.9774,0.989,1.0127,1.0168,1.029,1.0663,1.0595,1.0663,1.1111,1.1823,1.2284,1.2284,1.221,1.1925,1.1264,1.0941,1.0656,1.0507,1.0426,1.0419,1.0493,1.0568,1.05,1.0276,1.0276,1.0168,0.9876,0.9856,0.9822,0.9822,0.9822,0.9822,0.9822,0.9822,0.9822,0.9829,0.9842,1.0107,1.0473,1.145,1.2244,1.2895,1.3342,1.3702,1.3953,1.3878,1.3654,1.3288,1.2535,1.1884,1.1314,1.086,1.0514,1.0256,1.0175,1.0053,0.9842,0.9754,0.9713,0.968,0.953,1.0076,0.0,0.0,1.4179,1.5263,1.7549,1.7862,1.7862,1.8009,1.8036,1.809,1.825,1.8342,1.8528,1.8878,1.8798,1.8651,1.8448,1.8223,1.8103,1.825,1.8263,1.833,1.8477,1.821,1.8103,1.8263,1.8116,1.7969,1.7822,1.7956,1.7889,1.7582,1.7729,1.8036,1.849,1.849,1.8798,1.943,1.943,1.943,1.943,1.943,1.943,1.943,1.943,1.9626,2.0027,2.0174,2.0508,2.0909,2.1056,2.1109,2.1109,0.9761,0.9822,0.9917,1.0229,1.0283,1.0432,1.0813,1.0819,1.0975,1.1694,1.2474,1.2793,1.2352,1.2447,1.2277,1.1606,1.107,1.0839,1.1009,1.0717,1.0588,1.0717,1.0717,1.0636,1.0453,1.0337,1.0188,0.9943,0.9883,0.9822,0.9822,0.9822,0.9822,0.9822,0.9822,0.9836,0.9863,0.9836,1.0066,1.0555,1.1728,1.2332,1.2637,1.3715,1.4109,1.4089,1.415,1.3858,1.3342,1.2684,1.2121,1.1592,1.0962,1.0656,1.0527,1.05,1.0572,1.0621,1.0592,1.0754,1.0936,1.0688,1.1606,1.2849,0.0,0.0,0.0,1.7683,1.7849,0.0,0.0,0.0,0.0,0.0,0.0,0.0,0.0,1.8063,0.0,1.7903,1.7595,1.7515,1.7716,1.7782,1.7996,1.829,1.7862,1.7689,1.7889,1.7716,1.7582,1.7582,1.7582,1.7582,1.7582,1.7582,1.7889,1.849,1.849,1.8798,1.943,1.943,1.943,1.943,1.943,1.943,1.943,1.943,1.9506,1.9746,2.004,2.0361,2.0708,2.0935,2.1069,2.1109,0.9761,0.9822,0.9917,1.0229,1.0283,1.0432,1.0813,1.0819,1.1124,1.2257,1.2725,1.3234,1.3939,1.3234,1.2976,1.3654,1.2006,1.126,1.206,1.1219,1.0704,1.0717,1.0717,1.0588,1.031,1.029,1.0134,0.9849,0.9829,0.9822,0.9822,0.9822,0.9822,0.9822,0.9822,0.9897,0.995,0.9876,1.0304,1.1111,1.166,1.183,1.187,1.3057,1.3417,1.3336,1.3607,1.3661,1.3471,1.2603,1.2182,1.1884,1.1151,1.0819,1.067,1.0534,1.155,1.2689,1.2603,1.3852,1.5064,1.4536,1.4759,1.5288,1.6055,0.0,1.6714,1.7762,0.0,0.0,0.0,0.0,0.0,0.0,0.0,0.0,1.7635,1.7221,1.6994,1.7273,1.6994,1.682,1.6847,1.7101,1.742,1.7662,1.7622,1.7595,1.7635,1.7595,1.7582,1.7582,1.7582,1.7582,1.7582,1.7582,1.7889,1.849,1.849,1.8798,1.943,1.943,1.943,1.943,1.943,1.943,1.943,1.943,1.9444,1.9452,1.9733,2.0187,2.0681,2.0708,2.0895,2.1109,0.9781,0.9822,0.989,1.0107,1.0222,1.0399,1.0758,1.1504,1.2203,1.2705,1.3336,1.3844,1.4136,1.3539,1.3234,1.3526,1.2508,1.1864,1.1898,1.1402,1.0995,1.0731,1.0717,1.0622,1.0405,1.0324,1.0175,0.9889,0.9863,0.9822,0.9822,0.9822,0.9822,0.9822,0.9822,0.9842,0.9984,0.9916,1.027,1.0812,1.126,1.1409,1.1525,1.3071,1.3614,1.358,1.3702,1.3702,1.3532,1.2895,1.2406,1.1993,1.1586,1.1797,1.2048,1.1182,1.1929,1.29,1.1811,1.2098,1.2914,1.359,1.3976,1.462,1.6567,1.6903,1.7107,1.8289,0.0,0.0,0.0,0.0,0.0,0.0,1.7528,0.0,0.0,0.0,1.65,0.0,0.0,0.0,1.6433,1.6714,1.6941,1.7061,1.7286,1.738,1.738,1.7541,1.7582,1.7582,1.7582,1.7582,1.7582,1.7582,1.7889,1.849,1.849,1.8798,1.943,1.943,1.943,1.943,1.943,1.943,1.943,1.943,1.943,1.943,1.9506,1.98,2.0214,2.0548,2.0748,2.0882,0.9849,0.9849,0.9883,1.008,1.0209,1.0392,1.0731,1.1742,1.2569,1.2861,1.3505,1.4034,1.4292,1.3953,1.3797,1.4014,1.3322,1.2705,1.2318,1.1803,1.1294,1.0806,1.0744,1.0649,1.0493,1.0351,1.0202,0.9984,0.9897,0.9822,0.9822,0.9822,0.9822,0.9822,0.991,1.0053,1.0172,1.0213,1.0561,1.1009,1.1294,1.1582,1.1789,1.301,1.3573,1.3722,1.3722,1.3654,1.3498,1.3051,1.2583,1.2142,1.1904,1.2233,1.2598,1.1516,1.2194,0.0,1.2248,1.2417,1.3206,1.4683,1.5193,1.5802,1.7755,1.8044,1.8105,1.8889,1.8704,0.0,0.0,0.0,0.0,0.0,0.0,1.7032,0.0,1.6433,0.0,0.0,0.0,0.0,0.0,1.646,1.662,1.67,1.7032,1.7206,1.7206,1.7474,1.7582,1.7582,1.7582,1.7582,1.7582,1.7662,1.7969,1.849,1.8571,1.8878,1.943,1.943,1.943,1.943,1.943,1.943,1.943,1.943,1.943,1.943,1.943,1.9492,1.976,2.0334,2.0601,2.0722,0.9923,0.9862,0.9917,1.0222,1.0276,1.0432,1.0806,1.1097,1.1586,1.2603,1.2895,1.3498,1.4801,1.4665,1.4943,1.611,1.4733,1.3851,1.3987,1.2623,1.1558,1.09,1.0799,1.0649,1.0493,1.0351,1.0202,0.9984,0.9897,0.9822,0.9822,0.9822,0.9822,0.9836,1.0134,1.0426,1.0711,1.0793,1.143,1.2223,1.2088,1.2386,1.2874,1.2637,1.2908,1.3417,1.3417,1.341,1.3342,1.2888,1.2623,1.2413,1.1972,1.1619,1.1412,1.1275,1.2445,1.4035,1.5371,1.7281,1.9196,2.0166,2.0618,2.0684,2.0225,2.0093,1.998,1.9466,1.939,1.9158,1.8584,0.0,0.0,0.0,0.0,0.0,0.0,0.0,0.0,0.0,0.0,0.0,0.0,1.6335,1.6406,1.6687,1.7032,1.7206,1.7206,1.7474,1.7582,1.7582,1.7582,1.7582,1.7582,1.7876,1.8129,1.849,1.8771,1.9078,1.943,1.943,1.943,1.943,1.943,1.943,1.943,1.943,1.943,1.943,1.943,1.943,1.9511,2.004,2.0428,2.0722,0.995,0.9943,1.0039,1.0243,1.0358,1.0609,1.1158,1.1538,1.2244,1.3593,1.4156,1.4909,1.6164,1.6117,1.6157,1.6564,1.5723,1.4943,1.4401,1.3424,1.2651,1.2073,1.1511,1.1185,1.124,1.0799,1.0453,1.0202,1.0046,0.9862,0.9822,0.9822,0.9822,0.9829,1.0039,1.0236,1.0453,1.0799,1.1179,1.1572,1.1998,1.2481,1.3078,1.2881,1.2935,1.3112,1.3112,1.3112,1.3085,1.2935,1.2651,1.2581,1.3861,1.46,1.5057,1.5268,1.6392,1.7109,1.5285,1.6382,1.8071,1.7907,1.9022,2.0182,2.0486,2.0681,2.0588,1.9813,1.9653,1.9479,1.8891,0.0,0.0,0.0,0.0,0.0,0.0,0.0,0.0,0.0,0.0,0.0,0.0,0.0,1.6019,1.6112,1.6406,1.6697,1.6847,1.7192,1.7434,1.7569,1.7582,1.7689,1.7889,1.7942,1.8235,1.8784,1.8878,1.9078,1.943,1.943,1.943,1.943,1.943,1.943,1.943,1.943,1.943,1.943,1.943,1.9492,1.9693,2.0094,2.0294,2.0454,1.0114,1.0175,1.0236,1.0337,1.0561,1.088,1.1321,1.1999,1.2901,1.4136,1.4909,1.5764,1.6863,1.6937,1.6931,1.6985,1.6537,1.5784,1.4665,1.4143,1.3512,1.2684,1.2149,1.1816,1.1694,1.1212,1.0758,1.0358,1.0209,1.0053,0.9842,0.9849,0.9822,0.9829,1.0039,1.0243,1.0473,1.0975,1.1335,1.1606,1.2101,1.2556,1.2922,1.2834,1.2895,1.303,1.3056,1.2963,1.2949,1.2895,1.2684,1.2671,1.3946,1.5203,1.6202,1.6333,1.7583,1.8424,1.6539,1.7223,1.84,1.8384,1.9405,2.0547,2.0922,2.1136,2.1042,2.0267,2.0027,1.98,1.9319,0.0,0.0,0.0,0.0,0.0,0.0,1.6139,0.0,0.0,0.0,0.0,0.0,1.5784,1.5784,1.5784,1.6112,1.6393,0.0,1.7032,1.734,1.7569,1.7582,1.7729,1.7995,1.8102,1.845,1.8918,1.9025,1.9185,1.943,1.943,1.943,1.943,1.943,1.943,1.943,1.943,1.943,1.943,1.9479,1.9639,1.984,2.012,2.0361,2.0601,1.029,1.0405,1.05,1.05,1.086,1.1199,1.1362,1.2393,1.3437,1.4238,1.5133,1.6035,1.6937,1.7161,1.7297,1.7419,1.7168,1.6388,1.4936,1.4814,1.4156,1.2718,1.2739,1.2515,1.1938,1.1592,1.1124,1.0534,1.0365,1.0202,0.9984,0.989,0.9822,0.9836,1.0134,1.0426,1.0738,1.1335,1.1857,1.2305,1.2603,1.2637,1.2522,1.2508,1.2779,1.3146,1.299,1.3009,1.2895,1.2752,1.2705,1.2651,1.2519,1.3656,1.5052,1.4765,1.6264,1.8199,1.9184,1.9835,2.0509,2.1632,2.1951,2.1924,2.1681,2.1614,2.1454,2.0802,2.0454,2.016,1.9853,1.9078,0.0,0.0,0.0,0.0,0.0,0.0,0.0,0.0,0.0,0.0,0.0,1.5784,1.5784,1.5784,1.6086,0.0,0.0,1.7018,1.7313,1.7555,1.7595,1.7756,1.8009,1.837,1.8651,1.8945,1.9225,1.943,1.943,1.943,1.943,1.943,1.943,1.943,1.943,1.943,1.943,1.947,1.9693,1.9813,1.988,2.0147,2.0615,2.1109,1.0419,1.0561,1.0663,1.0663,1.0758,1.0962,1.1335,1.2216,1.3349,1.4774,1.5839,1.6809,1.7704,1.7935,1.7914,1.7616,1.7419,1.7005,1.6279,1.5811,1.535,1.4855,1.4014,1.3485,1.3329,1.2271,1.1538,1.1158,1.0568,1.0202,0.9984,0.989,0.9822,0.9829,1.0019,1.0215,1.0426,1.0914,1.1511,1.2149,1.244,1.2678,1.282,1.2589,1.2718,1.2983,1.2718,1.2481,1.2305,1.2379,1.2325,1.2519,1.3917,1.4572,1.5342,1.8091,1.9186,1.9587,1.9936,2.1241,2.2128,2.0715,2.1365,2.2178,2.1735,2.1614,2.1454,2.0802,2.0615,2.0401,1.9893,1.9078,1.849,0.0,0.0,0.0,0.0,0.0,0.0,1.6473,0.0,0.0,0.0,1.5784,1.5784,1.5784,1.5899,1.6072,1.6366,1.666,1.6954,1.73,1.7689,1.8076,1.837,1.8664,1.8958,1.9252,1.939,1.943,1.943,1.943,1.943,1.943,1.943,1.943,1.943,1.943,1.9492,1.9693,1.9773,2.0067,2.0468,2.0535,2.0788,2.1109,1.0487,1.0772,1.0975,1.0846,1.1307,1.1762,1.1945,1.2515,1.3417,1.4808,1.5961,1.6795,1.7168,1.7758,1.7968,1.7582,1.7405,1.7073,1.6497,1.6327,1.6001,1.5466,1.4855,1.4346,1.3953,1.2813,1.1952,1.1389,1.0704,1.0263,0.9984,0.989,0.9822,0.0,0.9849,1.0073,1.0317,1.0894,1.1538,1.2176,1.2345,1.2515,0.0,1.2474,1.2474,1.2542,1.2372,1.2244,1.2155,1.2108,1.2664,1.3504,1.4513,1.536,1.6673,1.9487,2.0391,2.0591,2.1291,2.2267,2.277,2.1277,2.1623,2.2111,2.1722,2.1614,2.148,2.0962,2.0668,2.0388,2.0054,1.9265,1.8597,0.0,0.0,0.0,0.0,0.0,0.0,0.0,1.6567,0.0,1.6046,1.5912,1.5784,1.5784,1.5784,1.6019,0.0,1.662,1.6901,1.738,1.7929,1.8317,1.849,1.8905,1.9199,1.943,1.943,1.943,1.943,1.943,1.943,1.943,1.943,1.943,1.943,1.943,1.9533,1.9826,2.008,2.0468,2.0869,2.0869,2.0962,2.1109,1.0548,1.0975,1.1267,1.09,1.1999,1.2874,1.2874,1.3227,1.3831,1.476,1.5906,1.653,1.6259,1.7175,1.7684,1.7392,1.7256,1.691,1.6246,1.6544,1.6334,1.5398,1.5411,1.5059,1.4238,1.3241,1.2338,1.1538,1.0819,1.0331,1.0011,0.9903,0.0,0.0,0.0,0.0,0.0,1.1043,1.1674,1.2176,1.2237,1.2271,1.2291,1.2271,1.2176,1.2135,1.2331,1.2489,1.2559,1.2286,1.3498,1.5147,1.4891,1.6134,1.8063,1.9609,2.0391,2.0958,2.2431,2.2779,2.2686,2.2432,2.2151,2.1857,2.1681,2.1588,2.1416,2.1162,2.0641,2.0167,2.0167,1.9519,1.8675,0.0,0.0,0.0,1.7259,0.0,0.0,0.0,0.0,0.0,0.0,0.0,0.0,1.5784,1.5784,1.6072,0.0,1.6687,1.6954,1.7515,1.8156,1.8504,1.8544,1.9092,1.9444,1.9426,1.9444,1.943,1.943,1.943,1.943,1.943,1.943,1.9444,1.9426,1.9426,1.9613,1.9973,2.0521,2.0882,2.1109,2.1109,2.1109,2.1109,1.0683,1.0962,1.1111,1.0812,1.1674,1.2684,1.3519,1.4536,1.5316,1.5622,1.6592,1.7195,1.7019,1.7297,1.7378,1.708,1.7141,1.7087,1.6842,1.6775,1.6612,1.63,1.5845,1.5404,1.4997,1.3505,1.2589,1.2305,1.0968,1.029,1.0236,0.9951,0.9822,0.0,0.0,0.0,1.0078,1.0887,1.1335,1.1579,1.1952,1.2176,1.2277,1.2149,1.2088,1.227,1.3741,1.4286,1.4302,1.4237,1.5345,1.6783,1.6715,1.6817,1.7374,1.9461,1.9816,1.9931,2.1906,2.2325,2.2124,2.2071,2.1844,2.1681,2.1628,2.1363,2.1176,2.1122,2.0641,2.0167,2.0167,1.9519,1.8675,1.8089,1.7902,1.7796,1.7542,0.0,0.0,0.0,0.0,1.7099,0.0,0.0,0.0,0.0,0.0,1.5979,1.6326,1.658,1.686,1.7259,1.805,1.8611,1.8838,1.9199,1.9492,1.972,1.9479,1.943,1.943,1.943,1.943,1.943,1.943,1.9506,1.972,1.972,2.004,2.0561,2.0895,2.1069,2.1109,2.1109,2.1109,2.1109,1.128,1.1409,1.1586,1.1837,1.2745,1.3715,1.4529,1.5615,1.6164,1.5689,1.6198,1.6524,1.6293,1.689,1.7216,1.6998,1.7039,1.7019,1.687,1.6788,1.6612,1.6307,1.5872,1.5459,1.5079,1.3614,1.2698,1.2393,1.105,1.031,1.0154,0.9924,0.9822,0.9822,0.0,1.0025,0.0,1.0799,1.1185,1.1423,1.1796,1.1986,1.2047,1.1972,1.1945,1.2139,1.3922,1.514,1.5917,1.5988,1.7117,1.8462,1.8462,1.823,1.8462,2.0509,2.016,1.9657,2.1686,2.1977,2.1764,2.1764,2.1537,2.1323,2.1323,2.1216,2.1069,2.0909,2.0535,2.0134,1.984,1.9305,1.8784,1.8343,1.8089,1.7889,1.7622,0.0,1.7582,0.0,0.0,0.0,0.0,0.0,0.0,0.0,0.0,1.6019,1.6473,1.6633,1.6981,1.7595,1.833,1.8784,1.8918,1.9372,1.9586,1.9573,1.9439,1.943,1.943,1.9519,1.9586,1.9599,1.9746,1.9893,2.004,2.0187,2.0428,2.0708,2.1002,2.1109,2.1109,2.1109,2.1109,2.1109,1.1938,1.2047,1.2332,1.303,1.4007,1.4862,1.5337,1.6307,1.668,1.5852,1.5947,1.6001,1.5771,1.6558,1.7053,1.6944,1.6904,1.6829,1.6707,1.6639,1.6449,1.6096,1.5737,1.5364,1.4977,1.3682,1.2786,1.2332,1.1158,1.0439,1.0078,0.9958,0.9849,0.9829,0.9883,1.0086,1.0263,1.0711,1.107,1.1369,1.1667,1.1803,1.183,1.1796,1.2001,1.2554,1.434,1.6093,1.7656,1.8154,1.9107,2.0146,2.0207,2.0002,2.0025,2.1556,2.0884,1.994,2.1477,2.1683,2.1521,2.1521,2.1283,2.1096,2.1029,2.1015,2.0935,2.0641,2.0347,1.9987,1.9466,1.9172,1.8918,1.8637,1.833,1.8036,1.7729,0.0,1.7582,0.0,0.0,0.0,1.7313,0.0,0.0,0.0,0.0,1.6246,1.6767,1.6807,1.7181,1.7969,1.8502,1.8891,1.9011,1.9479,1.9626,1.9452,1.9457,1.9457,1.9466,1.9693,1.9826,1.9907,2.0134,2.0267,2.0347,2.0641,2.0775,2.0788,2.1015,2.1109,2.1109,2.1109,2.1109,2.1109,1.2386,1.2766,1.32,1.3675,1.4624,1.5343,1.5404,1.6307,1.6944,1.6849,1.6856,1.6863,1.6836,1.6809,1.6788,1.6775,1.6646,1.6558,1.6544,1.6293,1.6123,1.6083,1.5533,1.5147,1.4977,1.3777,1.2935,1.2481,1.1423,1.0751,1.0446,1.0161,0.9889,0.9822,0.9836,0.9869,1.0038,1.0548,1.0914,1.1212,1.1518,1.1714,1.1816,1.1687,1.2696,1.4386,1.6272,1.7951,1.963,2.1353,2.1857,2.1806,2.2057,2.1767,2.1449,2.1911,2.1474,2.1052,2.1523,2.1376,2.1149,2.1149,2.1136,2.1042,2.0775,2.0722,2.0628,2.0334,2.004,1.9746,1.9426,1.9345,1.9225,1.8931,1.8637,1.8343,1.7995,0.0,1.7582,1.7582,0.0,0.0,1.7542,1.7061,0.0,0.0,1.6794,1.6767,1.7139,1.7166,1.7395,1.7969,1.8357,1.8784,1.9377,1.9386,1.9533,1.976,1.9492,1.9506,1.976,1.9786,1.9947,2.0127,2.0167,2.0388,2.0655,2.0949,2.1069,2.1069,2.1096,2.1109,2.1109,2.1109,2.1109,2.1109,1.3403,1.3587,1.3966,1.478,1.5194,1.5622,1.6252,1.6714,1.6978,1.6978,1.6978,1.6944,1.6849,1.6788,1.6714,1.6619,1.6558,1.6483,1.6402,1.6286,1.6096,1.5825,1.5411,1.5072,1.4835,1.3926,1.3139,1.2501,1.1728,1.1056,1.0487,1.0283,1.0154,1.01,1.0188,1.0256,1.0344,1.0792,1.1056,1.1192,1.1497,1.1653,1.1694,1.164,1.2745,1.4645,1.6545,1.8132,1.9666,2.1748,2.2111,2.175,2.1857,2.1617,2.1309,2.143,2.1296,2.1136,2.1256,2.1203,2.1109,2.1109,2.1109,2.1029,2.0735,2.0681,2.0548,2.0067,1.9746,1.9506,1.9444,1.943,1.9212,1.8744,1.8571,1.8317,1.7836,0.0,0.0,1.7582,0.0,1.7582,0.0,1.7368,1.7275,0.0,1.6807,1.6697,1.7179,1.7206,1.7554,1.829,1.8424,1.8771,1.9417,1.943,1.9426,1.9546,1.9599,1.9693,1.9813,2.016,2.0481,2.0762,2.0762,2.0828,2.0949,2.1069,2.1109,2.1109,2.1109,2.1109,2.1109,2.1109,2.1109,2.1109,1.4401,1.4462,1.4801,1.5852,1.5906,1.6069,1.6863,1.6978,1.6978,1.6978,1.6944,1.689,1.6822,1.6734,1.6639,1.653,1.6442,1.6334,1.6185,1.6137,1.5934,1.552,1.5215,1.493,1.4679,1.4027,1.3363,1.2698,1.2108,1.145,1.0751,1.0521,1.0385,1.0351,1.0493,1.0582,1.0649,1.1009,1.1192,1.1253,1.1511,1.1619,1.1691,1.218,1.3555,1.5334,1.7368,1.8845,2.0158,2.1779,2.1911,2.1443,2.1588,2.1349,2.1109,2.1109,2.1109,2.1109,2.1109,2.1109,2.1109,2.1109,2.1109,2.1015,2.0628,2.0548,2.0374,1.98,1.9506,1.943,1.943,1.943,1.9199,1.8704,1.8544,1.8303,1.7796,1.7635,0.0,1.7582,1.7582,1.7582,1.7582,1.7502,0.0,1.7569,1.6978,1.6804,1.73,1.7326,1.7702,1.8464,1.849,1.8771,1.9417,1.943,1.947,1.9492,1.9706,1.9893,2.008,2.0575,2.0909,2.1109,2.1109,2.1109,2.1109,2.1109,2.1109,2.1109,2.1109,2.1109,2.1109,2.1109,2.1109,2.1109,1.5248,1.5398,1.5723,1.6781,1.6836,1.6788,1.6958,1.6978,1.6978,1.6978,1.6849,1.6809,1.6958,1.6707,1.6524,1.6524,1.6252,1.6022,1.5866,1.5723,1.5506,1.5201,1.4903,1.4672,1.4516,1.4068,1.362,1.3166,1.2576,1.1972,1.1369,1.0921,1.0636,1.0493,1.0649,1.0799,1.0887,1.1097,1.1253,1.1402,1.1558,1.1619,1.1828,1.3658,1.5359,1.7072,1.9265,2.0729,2.1603,2.1897,2.1603,2.1162,2.1521,2.1349,2.1109,2.1109,2.1109,2.1109,2.1109,2.1109,2.1109,2.1109,2.1109,2.0949,2.0313,2.0241,2.0067,1.9492,1.943,1.943,1.943,1.943,1.9265,1.8971,1.8677,1.8384,1.8035,1.7769,0.0,1.7582,1.7582,1.7582,1.7582,1.738,0.0,1.7555,1.7353,1.7326,1.7555,1.7582,1.7862,1.8477,1.849,1.8771,1.9417,1.943,1.9506,1.98,1.98,2.0107,2.0681,2.0962,2.1109,2.1109,2.1109,2.1109,2.1109,2.1109,2.1109,2.1109,2.1109,2.1109,2.1109,2.1109,2.1109,2.1109,1.5499,1.5811,1.6157,1.6592,1.6625,1.6646,1.6802,1.6734,1.6666,1.6666,1.6625,1.6612,1.6659,1.6497,1.6334,1.6232,1.6042,1.5906,1.5859,1.5622,1.5391,1.5194,1.4896,1.4665,1.4516,1.4278,1.3831,1.3173,1.2888,1.2338,1.1545,1.1294,1.1151,1.1104,1.1158,1.126,1.1409,1.1457,1.1558,1.176,1.2975,1.3515,1.3729,1.5557,1.7477,1.9173,1.9889,2.0966,2.2124,2.2017,2.1737,2.139,2.1283,2.1189,2.1109,2.1109,2.1109,2.1109,2.1109,2.1109,2.1109,2.1109,2.1109,2.0949,2.0374,1.992,1.9586,1.947,1.943,1.943,1.943,1.9199,1.8971,1.8677,1.8384,1.8076,1.7769,1.7649,1.7582,1.7582,1.7582,1.7582,1.7582,1.7502,1.7527,1.7569,1.7502,1.7488,1.7582,1.7782,1.8076,1.8477,1.8677,1.8971,1.9417,1.943,1.9506,1.98,2.0,2.0401,2.0975,2.1069,2.1109,2.1109,2.1109,2.1109,2.1109,2.1109,2.1109,2.1109,2.1109,2.1109,2.1109,2.1109,2.1109,2.1109,1.5852,1.6069,1.6286,1.6483,1.6476,1.649,1.6639,1.6537,1.6463,1.6517,1.6374,1.6293,1.6347,1.6178,1.6062,1.6083,1.5893,1.5723,1.5608,1.5425,1.5208,1.4943,1.4753,1.4584,1.4434,1.4292,1.3953,1.3424,1.3051,1.2501,1.1782,1.1687,1.1613,1.1558,1.1619,1.1694,1.1782,1.1721,1.1748,1.1962,1.373,1.4432,1.4716,1.7318,1.8941,1.9991,2.0857,2.1565,2.2084,2.2004,2.1724,2.1349,2.1162,2.1109,2.1109,2.1109,2.1109,2.1109,2.1109,2.1109,2.1109,2.1109,2.1109,2.0949,2.0374,1.9867,1.9492,1.9444,1.943,1.943,1.943,1.9212,1.8958,1.8557,1.833,1.8063,1.7649,1.7582,1.7582,1.7582,1.7582,1.7582,1.7582,1.7582,1.7582,1.7582,1.7689,1.7756,1.7756,1.7889,1.8182,1.8637,1.8824,1.9065,1.9417,1.9479,1.9679,1.996,2.0374,2.0762,2.1109,2.1109,2.1109,2.1109,2.1109,2.1109,2.1109,2.1109,2.1109,2.1109,2.1109,2.1109,2.1109,2.1109,2.1109,2.1109,1.6191,1.6151,1.6157,1.6442,1.6374,1.6327,1.6469,1.6361,1.6307,1.6442,1.6096,1.5886,1.6022,1.5778,1.5716,1.5981,1.5764,1.5486,1.5187,1.5147,1.495,1.4529,1.4502,1.4434,1.4306,1.4163,1.4,1.3824,1.3112,1.2535,1.2108,1.2094,1.2013,1.187,1.2006,1.2142,1.2067,1.1904,1.1837,1.1976,1.3873,1.4574,1.4991,1.8857,2.0117,2.0075,2.2138,2.2405,2.1748,2.1911,2.1617,2.1162,2.1122,2.1109,2.1109,2.1109,2.1109,2.1109,2.1109,2.1109,2.1109,2.1109,2.1096,2.0935,2.0388,2.0027,1.972,1.9452,1.9386,1.943,1.943,1.9403,1.9158,1.8584,1.8477,1.825,1.7662,1.7582,1.7582,1.7582,1.7582,1.7595,1.7609,1.7609,1.7622,1.7649,1.7916,1.8035,1.8049,1.8049,1.8302,1.8905,1.8945,1.9092,1.9399,1.9666,1.996,2.0267,2.0842,2.1109,2.1109,2.1109,2.1109,2.1109,2.1109,2.1109,2.1109,2.1109,2.1109,2.1109,2.1109,2.1109,2.1109,2.1109,2.1109,2.1109,1.5608,1.5778,1.5967,1.6151,1.6062,1.6008,1.6164,1.5967,1.5811,1.5845,1.5757,1.5662,1.5581,1.5404,1.5276,1.5235,1.5269,1.5215,1.5031,1.4801,1.4624,1.4516,1.4407,1.4333,1.4299,1.4265,1.4061,1.3682,1.3268,1.2895,1.2569,1.2454,1.2318,1.2176,1.2094,1.2128,1.2216,1.1945,1.1898,1.2275,1.5355,1.6545,1.6967,2.0756,2.219,2.2206,2.2696,2.2794,2.2566,2.2111,2.1897,2.1697,2.1256,2.1109,2.1109,2.1109,2.1109,2.1109,2.1109,2.1109,2.1109,2.1109,2.0949,2.0735,2.0601,2.0174,1.9786,1.972,1.9519,1.943,1.943,1.9185,1.8905,1.8544,1.8303,1.8023,1.7635,1.7582,1.7582,1.7582,1.7582,1.7675,1.7916,1.7943,1.8036,1.8263,1.8343,1.8477,1.8704,1.8718,1.8728,1.8918,1.9145,1.9399,1.9693,1.976,2.0054,2.0575,2.0935,2.1109,2.1109,2.1109,2.1109,2.1109,2.1109,2.1109,2.1109,2.1109,2.1109,2.1109,2.1109,2.1109,2.1109,2.1109,2.1109,2.1149,1.5486,1.5588,1.5696,1.5852,1.5811,1.5784,1.5866,1.5683,1.5533,1.5533,1.5418,1.5303,1.5221,1.5072,1.4923,1.4774,1.4896,1.4916,1.4774,1.4604,1.4482,1.4421,1.434,1.4299,1.4299,1.4231,1.4007,1.3627,1.339,1.3159,1.2929,1.2779,1.263,1.2481,1.2332,1.2311,1.2372,1.2142,1.2047,1.2338,1.4966,1.65,1.7529,2.0479,2.216,2.2928,2.2928,2.2779,2.2605,2.2285,2.2004,2.175,2.1577,2.1323,2.1136,2.1269,2.1216,2.1109,2.1109,2.1109,2.1109,2.1109,2.0989,2.0842,2.0708,2.0321,1.996,1.9826,1.9573,1.943,1.943,1.9239,1.8985,1.8557,1.8357,1.809,1.7649,1.7582,1.7635,1.7782,1.7796,1.7916,1.8223,1.825,1.8317,1.8477,1.8611,1.8758,1.8918,1.9052,1.9132,1.9132,1.9412,1.9639,1.98,2.0067,2.0428,2.0869,2.1029,2.1109,2.1109,2.1109,2.1109,2.1109,2.1109,2.1109,2.1109,2.1109,2.1189,2.1296,2.1162,2.1269,2.1496,2.1363,2.139,2.1537,1.5452,1.5418,1.5391,1.5547,1.5554,1.5547,1.5567,1.5418,1.5309,1.5309,1.5092,1.493,1.4903,1.4787,1.4645,1.4489,1.4597,1.4618,1.4489,1.4482,1.4428,1.4306,1.4299,1.4292,1.4265,1.4095,1.3885,1.3627,1.3478,1.3322,1.3166,1.303,1.2874,1.2725,1.2569,1.2501,1.2494,1.2352,1.2203,1.227,1.4002,1.5677,1.7388,1.9356,2.1252,2.2928,2.2928,2.2699,2.2472,2.2432,2.2084,2.1724,2.1924,2.1617,2.1229,2.1547,2.1336,2.1109,2.1109,2.1109,2.1109,2.1109,2.1109,2.1042,2.0802,2.0508,2.0227,1.9987,1.9666,1.9439,1.9439,1.9457,1.9172,1.8584,1.849,1.8277,1.7662,1.7622,1.7742,1.7955,1.8035,1.8182,1.8531,1.8597,1.8637,1.8677,1.8918,1.9052,1.9052,1.9252,1.9444,1.9439,1.9666,1.984,1.9933,2.0468,2.0869,2.1109,2.1109,2.1109,2.1109,2.1109,2.1109,2.1109,2.1109,2.1109,2.1109,2.1109,2.1256,2.1534,2.1256,2.1483,2.1897,2.1762,2.1777,2.1991,1.4869,1.4964,1.5086,1.5228,1.5153,1.5113,1.5235,1.5018,1.4841,1.4841,1.4801,1.4726,1.4597,1.4563,1.4489,1.4346,1.4353,1.436,1.4333,1.4333,1.4326,1.4299,1.4299,1.4238,1.4109,1.3838,1.3675,1.3627,1.3478,1.3322,1.3166,1.303,1.2874,1.2725,1.2569,1.2501,1.2494,1.2352,1.2203,1.227,1.4002,1.5677,1.7388,1.9356,2.1252,2.2928,2.2928,2.2901,2.2752,2.2498,2.2352,2.2245,2.2044,2.175,2.1561,2.1601,2.1336,2.1109,2.1109,2.1109,2.1109,2.1109,2.1109,2.1096,2.1056,2.0815,2.0601,2.0548,2.0107,1.9733,1.9733,1.9533,1.9172,1.8584,1.849,1.8277,1.7662,1.7796,1.7969,1.7982,1.8263,1.8531,1.8824,1.9078,1.9332,1.9573,1.9639,1.9666,1.9666,1.9479,1.9479,1.972,1.9773,2.004,2.0535,2.0869,2.1069,2.1109,2.1109,2.1109,2.1109,2.1109,2.1109,2.1109,2.1109,2.1109,2.1109,2.1109,2.1136,2.1203,2.1403,2.1601,2.1708,2.1844,2.1951,2.2017,1.4726,1.4733,1.4767,1.4916,1.4889,1.4869,1.4936,1.4828,1.4713,1.4624,1.4618,1.4563,1.4414,1.4394,1.4373,1.4306,1.4299,1.4299,1.4299,1.4299,1.4299,1.4299,1.4299,1.4265,1.4197,1.3899,1.3743,1.3743,1.3512,1.3363,1.3288,1.3064,1.2922,1.284,1.261,1.2501,1.2501,1.2433,1.287,1.3667,1.4457,1.6405,1.8868,1.9773,2.1252,2.2928,2.2928,2.2928,2.2914,2.2699,2.2552,2.2418,2.2445,2.2151,2.179,2.179,2.147,2.1109,2.1109,2.1109,2.1109,2.1109,2.1109,2.1109,2.1109,2.0882,2.0681,2.0681,2.0334,1.9987,1.9826,1.9693,1.9412,1.8824,1.8731,1.8571,1.813,1.8183,1.833,1.8448,1.8637,1.8838,1.9132,1.9426,1.9653,1.9786,1.9947,2.004,2.004,1.9907,1.9973,2.0267,2.0267,2.0481,2.0909,2.1042,2.1109,2.1109,2.1109,2.1109,2.1109,2.1109,2.1109,2.1109,2.1109,2.1109,2.1109,2.1109,2.1296,2.1577,2.1628,2.1909,2.2325,2.2231,2.2325,2.2472,1.4618,1.4543,1.4509,1.4658,1.4658,1.4652,1.4679,1.4658,1.4597,1.4475,1.4462,1.4421,1.4312,1.4299,1.4299,1.4299,1.4299,1.4299,1.4299,1.4299,1.4299,1.4299,1.4265,1.4245,1.4245,1.3946,1.379,1.379,1.3532,1.3403,1.3397,1.3132,1.299,1.3029,1.2678,1.2535,1.2501,1.2501,1.3452,1.4908,1.4908,1.6985,2.0132,2.0132,2.1252,2.2928,2.2928,2.2928,2.2928,2.2928,2.2712,2.2565,2.2792,2.2498,2.2071,2.2004,2.1563,2.1109,2.1109,2.1109,2.1109,2.1109,2.1109,2.1109,2.1109,2.0935,2.0775,2.0775,2.0548,2.0267,2.004,1.9893,1.9626,1.9105,1.8971,1.8824,1.8531,1.8544,1.8677,1.8905,1.9038,1.9212,1.9452,1.98,2.0,2.0,2.0214,2.0334,2.0334,2.0267,2.0374,2.0668,2.0735,2.0882,2.1109,2.1109,2.1109,2.1109,2.1109,2.1109,2.1109,2.1109,2.1109,2.1109,2.1109,2.1109,2.1109,2.1189,2.1483,2.1884,2.179,2.2164,2.2739,2.2579,2.2672,2.2928,1.4333,1.4326,1.436,1.4502,1.4421,1.438,1.4509,1.4414,1.4326,1.4319,1.4319,1.4312,1.4299,1.4299,1.4299,1.4299,1.4299,1.4299,1.4299,1.4299,1.4299,1.4299,1.4163,1.4089,1.4089,1.3797,1.3648,1.3648,1.3485,1.3403,1.3397,1.3234,1.3085,1.2956,1.2786,1.2637,1.2501,1.2501,1.3452,1.4908,1.4908,1.6985,2.0132,2.0132,2.1252,2.2928,2.2928,2.2928,2.2928,2.2928,2.2846,2.2901,2.2928,2.2645,2.2338,2.2071,2.1563,2.1109,2.1109,2.1109,2.1109,2.1109,2.1109,2.1109,2.1109,2.1096,2.1082,2.1082,2.0842,2.0641,2.0615,2.016,1.9693,1.9386,1.9105,1.8824,1.8531,1.8718,1.8905,1.8918,1.9399,1.9746,1.9773,2.0281,2.0615,2.0615,2.0628,2.0641,2.0641,2.0374,2.0374,2.0668,2.0935,2.1082,2.1109,2.1109,2.1109,2.1109,2.1109,2.1109,2.1109,2.1109,2.1109,2.1109,2.1109,2.1109,2.1136,2.1467,2.1614,2.1695,2.2151,2.2392,2.2485,2.2739,2.2914,2.2928,1.4299,1.4299,1.4319,1.4373,1.4333,1.4319,1.4373,1.4333,1.4299,1.4299,1.4299,1.4299,1.4299,1.4299,1.4299,1.4299,1.4299,1.4299,1.4299,1.4299,1.4299,1.4299,1.4245,1.417,1.4075,1.3865,1.3715,1.3627,1.3478,1.3403,1.3397,1.3247,1.3146,1.3078,1.284,1.2698,1.2715,1.3836,1.532,1.699,1.8029,2.0052,2.2371,2.1943,2.2532,2.3407,2.322,2.3273,2.342,2.342,2.33,2.3153,2.3153,2.2939,2.2632,2.2338,2.1844,2.139,2.139,2.1256,2.1109,2.1109,2.1109,2.1109,2.1109,2.1109,2.1109,2.1109,2.1029,2.0895,2.0708,2.0494,2.0241,1.9947,1.9813,1.9693,1.9586,1.9666,1.9733,1.9733,1.9933,2.0067,2.0067,2.0441,2.0681,2.0681,2.0842,2.0949,2.0949,2.0842,2.0828,2.0935,2.1056,2.1109,2.1109,2.1109,2.1109,2.1109,2.1109,2.1109,2.1122,2.1296,2.139,2.139,2.1577,2.1657,2.1657,2.1777,2.1924,2.2111,2.2338,2.2525,2.2712,2.2819,2.2928,2.2928,1.4299,1.4299,1.4299,1.4299,1.4299,1.4299,1.4299,1.4299,1.4299,1.4299,1.4299,1.4299,1.4299,1.4299,1.4299,1.4299,1.4299,1.4299,1.4299,1.4299,1.4299,1.4299,1.4299,1.4251,1.4143,1.3946,1.3705,1.3695,1.3498,1.3403,1.3397,1.3295,1.322,1.3159,1.2915,1.2779,1.2797,1.4021,1.5961,1.8229,1.9398,2.1486,2.3728,2.33,2.3407,2.3741,2.3541,2.3594,2.3768,2.3768,2.3634,2.3447,2.3354,2.3046,2.2686,2.2472,2.2071,2.1735,2.1641,2.1403,2.1229,2.1136,2.1109,2.1109,2.1109,2.1109,2.1109,2.1109,2.1109,2.1042,2.0855,2.0735,2.0615,2.0401,2.0294,2.0167,2.0167,2.0167,2.0167,2.0167,2.0307,2.0374,2.0374,2.0641,2.0815,2.0815,2.1002,2.1109,2.1109,2.1109,2.1109,2.1109,2.1109,2.1109,2.1109,2.1109,2.1109,2.1109,2.1203,2.1256,2.1256,2.155,2.1762,2.1762,2.1897,2.1991,2.1991,2.2084,2.2231,2.2432,2.2525,2.2686,2.2928,2.2928,2.2928,2.2928,1.4299,1.4299,1.4299,1.4299,1.4299,1.4299,1.4299,1.4299,1.4299,1.4299,1.4299,1.4299,1.4299,1.4299,1.4299,1.4299,1.4299,1.4299,1.4299,1.4299,1.4299,1.4299,1.4299,1.4299,1.4299,1.4,1.3838,1.3838,1.3546,1.3403,1.3403,1.3403,1.3322,1.3166,1.3024,1.2874,1.2718,1.2569,1.4678,1.809,1.809,2.0404,2.3781,2.3768,2.3768,2.3781,2.3768,2.3768,2.3781,2.3781,2.3768,2.3728,2.342,2.2913,2.2432,2.2418,2.2218,2.1924,2.1708,2.1614,2.1547,2.1189,2.1109,2.1109,2.1109,2.1109,2.1109,2.1109,2.1109,2.1109,2.1109,2.0869,2.0681,2.0681,2.0428,2.0241,2.0241,2.0241,2.0241,2.0241,2.0494,2.0681,2.0681,2.0935,2.1109,2.1109,2.1109,2.1109,2.1109,2.1109,2.1109,2.1109,2.1109,2.1109,2.1109,2.1109,2.1109,2.1109,2.1416,2.1614,2.1628,2.1857,2.1991,2.1991,2.1991,2.1991,2.2017,2.2298,2.2418,2.2458,2.2752,2.2928,2.2928,2.2928,2.2928,2.2928,1.4299,1.4299,1.4299,1.4299,1.4299,1.4299,1.4299,1.4299,1.4299,1.4299,1.4299,1.4299,1.4299,1.4299,1.4299,1.4299,1.4299,1.4299,1.4299,1.4299,1.4299,1.4299,1.4299,1.4251,1.4143,1.3946,1.3838,1.3838,1.3546,1.3458,1.3559,1.3451,1.3376,1.3322,1.3173,1.303,1.2961,1.4281,1.6239,1.8536,1.9796,2.1946,2.4329,2.3928,2.4022,2.4356,2.4142,2.4209,2.4382,2.4382,2.4249,2.3981,2.3487,2.3207,2.3006,2.2792,2.2525,2.2271,2.2178,2.2004,2.1737,2.1229,2.1109,2.1109,2.1109,2.1109,2.1109,2.1109,2.1109,2.1109,2.1109,2.1042,2.0975,2.0975,2.0909,2.0842,2.0842,2.0842,2.0842,2.0842,2.0922,2.0975,2.0975,2.1056,2.1109,2.1109,2.1109,2.1109,2.1109,2.1109,2.1109,2.1109,2.1109,2.1203,2.1416,2.1216,2.1109,2.1109,2.1416,2.1614,2.1641,2.2071,2.2285,2.2298,2.2512,2.2605,2.2605,2.2699,2.2726,2.2739,2.2832,2.2928,2.2928,2.2928,2.2928,2.2928,1.4299,1.4299,1.4299,1.4299,1.4299,1.4299,1.4299,1.4299,1.4299,1.4299,1.4299,1.4299,1.4299,1.4299,1.4299,1.4299,1.4299,1.4299,1.4299,1.4299,1.4299,1.4299,1.4245,1.4163,1.4075,1.398,1.3871,1.3756,1.358,1.3505,1.3539,1.3444,1.3403,1.3397,1.3241,1.3091,1.3109,1.4121,1.564,1.7578,1.9404,2.146,2.3462,2.3945,2.4329,2.4609,2.4436,2.4489,2.4636,2.4636,2.4449,2.4142,2.3781,2.3514,2.3287,2.31,2.2832,2.2565,2.2458,2.2285,2.2044,2.1577,2.1376,2.1283,2.1283,2.1189,2.1109,2.1109,2.1109,2.1109,2.1109,2.1109,2.1109,2.1109,2.1109,2.1109,2.1109,2.1109,2.1109,2.1109,2.1109,2.1109,2.1109,2.1109,2.1109,2.1109,2.1109,2.1109,2.1109,2.1109,2.1109,2.1109,2.1109,2.1256,2.1614,2.1376,2.1336,2.1456,2.175,2.1897,2.1911,2.2378,2.2592,2.2605,2.2779,2.2928,2.2928,2.2928,2.2928,2.2928,2.2928,2.2928,2.2928,2.2928,2.2928,2.2928,1.4299,1.4299,1.4299,1.4299,1.4299,1.4299,1.4299,1.4299,1.4299,1.4299,1.4299,1.4299,1.4299,1.4299,1.4299,1.4299,1.4299,1.4299,1.4299,1.4299,1.4292,1.4278,1.4143,1.4061,1.4055,1.4041,1.3912,1.3668,1.3627,1.3546,1.3417,1.341,1.3397,1.3376,1.3234,1.3085,1.2929,1.2793,1.3793,1.5693,1.7739,1.9779,2.1826,2.3796,2.4636,2.4636,2.4636,2.4636,2.4636,2.4636,2.4462,2.4235,2.4209,2.3821,2.3367,2.334,2.31,2.2806,2.2539,2.2458,2.2392,2.2124,2.1844,2.1695,2.1655,2.1376,2.1189,2.1189,2.1189,2.1176,2.1149,2.1149,2.1136,2.1109,2.1109,2.1109,2.1109,2.1109,2.1109,2.1109,2.1109,2.1109,2.1109,2.1109,2.1109,2.1109,2.1109,2.1122,2.1149,2.1149,2.1162,2.1189,2.1189,2.1336,2.1695,2.1695,2.175,2.1991,2.2285,2.2418,2.2432,2.2726,2.2928,2.2928,2.2928,2.2928,2.2928,2.2928,2.2928,2.2928,2.2928,2.2928,2.2928,2.2928,2.2928,2.2928,1.4299,1.4299,1.4299,1.4299,1.4299,1.4299,1.4299,1.4299,1.4299,1.4299,1.4299,1.4299,1.4299,1.4299,1.4299,1.4299,1.4299,1.4299,1.4299,1.4299,1.4245,1.4129,1.4089,1.4014,1.3892,1.3783,1.381,1.3973,1.362,1.3492,1.3573,1.3458,1.3336,1.322,1.3186,1.3024,1.2779,1.2745,1.3793,1.5693,1.7739,1.9779,2.1826,2.3796,2.4636,2.4636,2.4636,2.4636,2.4636,2.4636,2.4596,2.4502,2.4275,2.3955,2.3634,2.3394,2.31,2.2846,2.2779,2.2766,2.2752,2.2686,2.2445,2.2164,2.1937,2.1844,2.179,2.179,2.179,2.1724,2.1496,2.1521,2.1376,2.1149,2.1109,2.1109,2.1109,2.1109,2.1109,2.1109,2.1109,2.1109,2.1109,2.1109,2.1109,2.1109,2.1109,2.1216,2.1507,2.1521,2.1563,2.179,2.179,2.1937,2.2231,2.2231,2.2151,2.1991,2.2285,2.2418,2.2432,2.2726,2.2928,2.2928,2.2928,2.2928,2.2928,2.2928,2.2928,2.2928,2.2928,2.2928,2.2928,2.2928,2.2928,2.2928,1.4204,1.419,1.417,1.4095,1.4143,1.419,1.419,1.4251,1.4299,1.4299,1.4299,1.4299,1.4299,1.4299,1.4734,1.5858,1.4911,1.5256,1.7422,1.5513,1.4752,1.5703,1.467,1.4513,1.5368,1.5202,1.4703,1.3858,1.3627,1.3512,1.3519,1.3437,1.3315,1.3173,1.3173,1.301,1.2732,1.2732,1.3255,1.4253,1.6294,1.8345,2.038,2.2434,2.3722,2.4636,2.4636,2.4636,2.4636,2.4636,2.4636,2.4609,2.4462,2.4115,2.3741,2.3581,2.322,2.2928,2.2928,2.2928,2.2928,2.2928,2.2739,2.2552,2.2258,2.2084,2.1991,2.1991,2.1991,2.1937,2.179,2.1764,2.171,2.155,2.1523,2.1523,2.1523,2.1523,2.1523,2.1523,2.1403,2.1269,2.1122,2.1243,2.1323,2.1323,2.1323,2.1443,2.1737,2.1764,2.183,2.1977,2.1991,2.2124,2.2418,2.2418,2.2418,2.2405,2.2552,2.2632,2.2632,2.2792,2.2928,2.2928,2.2928,2.2928,2.2928,2.2928,2.2928,2.2928,2.2928,2.2928,2.2928,2.2928,2.2928,2.2928,1.4061,1.4034,1.3994,1.3865,1.3946,1.4034,1.4034,1.4163,1.4265,1.4265,1.4285,1.4476,1.4822,1.4911,1.5851,1.8148,1.6187,1.6729,2.0962,1.7247,1.5863,1.7965,1.5854,1.5605,1.7594,1.7513,1.6359,1.4126,1.4098,1.3853,1.3403,1.3811,1.3645,1.3254,1.3545,1.3377,1.2725,1.3012,1.2929,1.2733,1.5463,1.736,1.8874,2.1216,2.3116,2.4636,2.4636,2.4636,2.4636,2.4636,2.4636,2.4549,2.4583,2.4235,2.3821,2.3728,2.334,2.2926,2.2873,2.2928,2.2928,2.2928,2.2928,2.2806,2.2552,2.2311,2.2138,2.2138,2.2138,2.2124,2.2071,2.2058,2.2044,2.1991,2.1991,2.1991,2.1991,2.1991,2.1991,2.1991,2.1777,2.1523,2.1283,2.1483,2.1695,2.1695,2.1695,2.1815,2.2044,2.2058,2.2084,2.2138,2.2138,2.2245,2.2485,2.2498,2.2619,2.2928,2.2928,2.2928,2.2928,2.2913,2.2913,2.2941,2.3035,2.3021,2.2928,2.2926,2.2913,2.2928,2.2928,2.2928,2.2928,2.2928,2.2928,2.2928,1.3905,1.3871,1.3865,1.3759,1.3858,1.3871,1.3871,1.4,1.4102,1.4102,1.4217,1.508,1.7071,1.7334,1.8131,2.0189,1.853,1.8453,2.1048,1.8802,1.8208,2.0111,1.8169,1.7835,1.9702,1.9755,1.8753,1.6443,1.6278,1.5208,1.3403,1.5267,1.51,1.3247,1.5025,1.4615,1.2797,1.4423,1.4122,1.2958,1.8572,1.993,1.9025,2.2732,2.4327,2.4636,2.4636,2.4636,2.4636,2.4636,2.4636,2.4596,2.4342,2.4209,2.4048,2.3541,2.3327,2.3207,2.2939,2.2928,2.2928,2.2928,2.2928,2.2914,2.2806,2.2766,2.2807,2.2807,2.2807,2.2659,2.2405,2.2365,2.2271,2.2031,2.1991,2.1991,2.1991,2.1991,2.1991,2.1991,2.1951,2.1911,2.1871,2.1897,2.1924,2.1924,2.1924,2.2058,2.2338,2.2365,2.2485,2.2807,2.2807,2.2834,2.2806,2.2806,2.2887,2.2928,2.2928,2.2928,2.2941,2.314,2.3113,2.2954,2.342,2.3354,2.2954,2.3153,2.31,2.2928,2.2928,2.2928,2.2928,2.2928,2.2928,2.2928,1.3749,1.3722,1.3695,1.3607,1.3668,1.3722,1.3722,1.3851,1.3973,1.4061,1.4129,1.4601,1.5635,1.675,1.8876,2.2609,2.0792,2.109,2.4838,2.1739,2.0505,2.2422,2.0438,2.012,2.1768,2.197,2.0908,1.8585,1.8491,1.7302,1.5185,1.6164,1.5373,1.3131,1.4018,1.3763,1.2752,1.4661,1.5012,1.4475,1.8345,2.008,2.0466,2.2285,2.3648,2.4636,2.4636,2.4636,2.4636,2.4636,2.4636,2.4609,2.4489,2.4329,2.4115,2.3701,2.3581,2.3474,2.2993,2.2993,2.3086,2.2968,2.2928,2.2928,2.2928,2.2928,2.2928,2.2928,2.2928,2.2819,2.2699,2.2672,2.2619,2.2498,2.2472,2.2472,2.2472,2.2472,2.2418,2.2245,2.2378,2.2352,2.2017,2.2138,2.2231,2.2231,2.2231,2.2352,2.2645,2.2672,2.2726,2.2928,2.2928,2.2928,2.2928,2.2928,2.2928,2.2928,2.2928,2.2928,2.2928,2.3006,2.3086,2.3126,2.322,2.3207,2.3113,2.3086,2.2993,2.2928,2.2928,2.2928,2.2928,2.2928,2.2928,2.2928]}]]